[[{"header":{"parameterUnit":"m.s-1","parameterCategory":1,"la1":30.6,"la2":28.766,"lo1":-90.7593,"lo2":-88.6598,"dy":0.0162,"dx":0.0183,"nx":116,"ny":114,"refTime":"2024-05-02T00:00:00:Z","depth":0,"parameterNumber":2,"parameterNumberName":"U-component_of_WINDS"},"data":[0.0,0.0,0.0,0.0,0.0,0.0,0.0,0.0,0.0,0.0,0.0,0.0,0.0,0.0,0.0,0.0,0.0,0.0,0.0,0.0,0.0,0.0,0.0,0.0,0.0,0.0,0.0,0.0,0.0,0.0,0.0,0.0,0.0,0.0,0.0,0.0,0.0,0.0,0.0,0.0,0.0,0.0,0.0,0.0,0.0,0.0,0.0,0.0,0.0,0.0,0.0,0.0,0.0,0.0,0.0,0.0,0.0,0.0,0.0,0.0,0.0,0.0,0.0,0.0,0.0,0.0,0.0,0.0,0.0,0.0,0.0,0.0,0.0,0.0,0.0,0.0,0.0,0.0,0.0,0.0,0.0,0.0,0.0,0.0,0.0,0.0,0.0,0.0,0.0,0.0,0.0,0.0,0.0,0.0,0.0,0.0,0.0,0.0,0.0,0.0,0.0,0.0,0.0,0.0,0.0,0.0,0.0,0.0,0.0,0.0,0.0,0.0,0.0,0.0,0.0,0.0,0.0,0.0,0.0,0.0,0.0,0.0,0.0,0.0,0.0,0.0,0.0,0.0,0.0,0.0,0.0,0.0,0.0,0.0,0.0,0.0,0.0,0.0,0.0,0.0,0.0,0.0,0.0,0.0,0.0,0.0,0.0,0.0,0.0,0.0,0.0,0.0,0.0,0.0,0.0,0.0,0.0,0.0,0.0,0.0,0.0,0.0,0.0,0.0,0.0,0.0,0.0,0.0,0.0,0.0,0.0,0.0,0.0,0.0,0.0,0.0,0.0,0.0,0.0,0.0,0.0,0.0,0.0,0.0,0.0,0.0,0.0,0.0,0.0,0.0,0.0,0.0,0.0,0.0,0.0,0.0,0.0,0.0,0.0,0.0,0.0,0.0,0.0,0.0,0.0,0.0,0.0,0.0,0.0,0.0,0.0,0.0,0.0,0.0,0.0,0.0,0.0,0.0,0.0,0.0,0.0,0.0,0.0,0.0,0.0,0.0,0.0,0.0,0.0,0.0,0.0,0.0,0.0,0.0,0.0,0.0,0.0,0.0,0.0,0.0,0.0,0.0,0.0,0.0,0.0,0.0,0.0,0.0,0.0,0.0,0.0,0.0,0.0,0.0,0.0,0.0,0.0,0.0,0.0,0.0,0.0,0.0,0.0,0.0,0.0,0.0,0.0,0.0,0.0,0.0,0.0,0.0,0.0,0.0,0.0,0.0,0.0,0.0,0.0,0.0,0.0,0.0,0.0,0.0,0.0,0.0,0.0,0.0,0.0,0.0,0.0,0.0,0.0,0.0,0.0,0.0,0.0,0.0,0.0,0.0,0.0,0.0,0.0,0.0,0.0,0.0,0.0,0.0,0.0,0.0,0.0,0.0,0.0,0.0,0.0,0.0,0.0,0.0,0.0,0.0,0.0,0.0,0.0,0.0,0.0,0.0,0.0,0.0,0.0,0.0,0.0,0.0,0.0,0.0,0.0,0.0,0.0,0.0,0.0,0.0,0.0,0.0,0.0,0.0,0.0,0.0,0.0,0.0,0.0,0.0,0.0,0.0,0.0,0.0,0.0,0.0,0.0,0.0,0.0,0.0,0.0,0.0,0.0,0.0,0.0,0.0,0.0,0.0,0.0,0.0,0.0,0.0,0.0,0.0,0.0,0.0,0.0,0.0,0.0,0.0,0.0,0.0,0.0,0.0,0.0,0.0,0.0,0.0,0.0,0.0,0.0,0.0,0.0,0.0,0.0,0.0,0.0,0.0,0.0,0.0,0.0,0.0,0.0,0.0,0.0,0.0,0.0,0.0,0.0,0.0,0.0,0.0,0.0,0.0,0.0,0.0,0.0,0.0,0.0,0.0,0.0,0.0,0.0,0.0,0.0,0.0,0.0,0.0,0.0,0.0,0.0,0.0,0.0,0.0,0.0,0.0,0.0,0.0,0.0,0.0,0.0,0.0,0.0,0.0,0.0,0.0,0.0,0.0,0.0,0.0,0.0,0.0,0.0,0.0,0.0,0.0,0.0,0.0,0.0,0.0,0.0,0.0,0.0,0.0,0.0,0.0,0.0,0.0,0.0,0.0,0.0,0.0,0.0,0.0,0.0,0.0,0.0,0.0,0.0,0.0,0.0,0.0,0.0,0.0,0.0,0.0,0.0,0.0,0.0,0.0,0.0,0.0,0.0,0.0,0.0,0.0,0.0,0.0,0.0,0.0,0.0,0.0,0.0,0.0,0.0,0.0,0.0,0.0,0.0,0.0,0.0,0.0,0.0,0.0,0.0,0.0,0.0,0.0,0.0,0.0,0.0,0.0,0.0,0.0,0.0,0.0,0.0,0.0,0.0,0.0,0.0,0.0,0.0,0.0,0.0,0.0,0.0,0.0,0.0,0.0,0.0,0.0,0.0,0.0,0.0,0.0,0.0,0.0,0.0,0.0,0.0,0.0,0.0,0.0,0.0,0.0,0.0,0.0,0.0,0.0,0.0,0.0,0.0,0.0,0.0,0.0,0.0,0.0,0.0,0.0,0.0,0.0,0.0,0.0,0.0,0.0,0.0,0.0,0.0,0.0,0.0,0.0,0.0,0.0,0.0,0.0,0.0,0.0,0.0,0.0,0.0,0.0,0.0,0.0,0.0,0.0,0.0,0.0,0.0,0.0,0.0,0.0,0.0,0.0,0.0,0.0,0.0,0.0,0.0,0.0,0.0,0.0,0.0,0.0,0.0,0.0,0.0,0.0,0.0,0.0,0.0,0.0,0.0,0.0,0.0,0.0,0.0,0.0,0.0,0.0,0.0,0.0,0.0,0.0,0.0,0.0,0.0,0.0,0.0,0.0,0.0,0.0,0.0,0.0,0.0,0.0,0.0,0.0,0.0,0.0,0.0,0.0,0.0,0.0,0.0,0.0,0.0,0.0,0.0,0.0,0.0,0.0,0.0,0.0,0.0,0.0,0.0,0.0,0.0,0.0,0.0,0.0,0.0,0.0,0.0,0.0,0.0,0.0,0.0,0.0,0.0,0.0,0.0,0.0,0.0,0.0,0.0,0.0,0.0,0.0,0.0,0.0,0.0,0.0,0.0,0.0,0.0,0.0,0.0,0.0,0.0,0.0,0.0,0.0,0.0,0.0,0.0,0.0,0.0,0.0,0.0,0.0,0.0,0.0,0.0,0.0,0.0,0.0,0.0,0.0,0.0,0.0,0.0,0.0,0.0,0.0,0.0,0.0,0.0,0.0,0.0,0.0,0.0,0.0,0.0,0.0,0.0,0.0,0.0,0.0,0.0,0.0,0.0,0.0,0.0,0.0,0.0,0.0,0.0,0.0,0.0,0.0,0.0,0.0,0.0,0.0,0.0,0.0,0.0,0.0,0.0,0.0,0.0,0.0,0.0,0.0,0.0,0.0,0.0,0.0,0.0,0.0,0.0,0.0,0.0,0.0,0.0,0.0,0.0,0.0,0.0,0.0,0.0,0.0,0.0,0.0,0.0,0.0,0.0,0.0,0.0,0.0,0.0,0.0,0.0,0.0,0.0,0.0,0.0,0.0,0.0,0.0,0.0,0.0,0.0,0.0,0.0,0.0,0.0,0.0,0.0,0.0,0.0,0.0,0.0,0.0,0.0,0.0,0.0,0.0,0.0,0.0,0.0,0.0,0.0,0.0,0.0,0.0,0.0,0.0,0.0,0.0,0.0,0.0,0.0,0.0,0.0,0.0,0.0,0.0,0.0,0.0,0.0,0.0,0.0,0.0,0.0,0.0,0.0,0.0,0.0,0.0,0.0,0.0,0.0,0.0,0.0,0.0,0.0,0.0,0.0,0.0,0.0,0.0,0.0,0.0,0.0,0.0,0.0,0.0,0.0,0.0,0.0,0.0,0.0,0.0,0.0,0.0,0.0,0.0,0.0,0.0,0.0,0.0,0.0,0.0,0.0,0.0,0.0,0.0,0.0,0.0,0.0,0.0,0.0,0.0,0.0,0.0,0.0,0.0,0.0,0.0,0.0,0.0,0.0,0.0,0.0,0.0,0.0,0.0,0.0,0.0,0.0,0.0,0.0,0.0,0.0,0.0,0.0,0.0,0.0,0.0,0.0,0.0,0.0,0.0,0.0,0.0,0.0,0.0,0.0,0.0,0.0,0.0,0.0,0.0,0.0,0.0,0.0,0.0,0.0,0.0,0.0,0.0,0.0,0.0,0.0,0.0,0.0,0.0,0.0,0.0,0.0,0.0,0.0,0.0,0.0,0.0,0.0,0.0,0.0,0.0,0.0,0.0,0.0,0.0,0.0,0.0,0.0,0.0,0.0,0.0,0.0,0.0,0.0,0.0,0.0,0.0,0.0,0.0,0.0,0.0,0.0,0.0,0.0,0.0,0.0,0.0,0.0,0.0,0.0,0.0,0.0,0.0,0.0,0.0,0.0,0.0,0.0,0.0,0.0,0.0,0.0,0.0,0.0,0.0,0.0,0.0,0.0,0.0,0.0,0.0,0.0,0.0,0.0,0.0,0.0,0.0,0.0,0.0,0.0,0.0,0.0,0.0,0.0,0.0,0.0,0.0,0.0,0.0,0.0,0.0,0.0,0.0,0.0,0.0,0.0,0.0,0.0,0.0,0.0,0.0,0.0,0.0,0.0,0.0,0.0,0.0,0.0,0.0,0.0,0.0,0.0,0.0,0.0,0.0,0.0,0.0,0.0,0.0,0.0,0.0,0.0,0.0,0.0,0.0,0.0,0.0,0.0,0.0,0.0,0.0,0.0,0.0,0.0,0.0,0.0,0.0,0.0,0.0,0.0,0.0,0.0,0.0,0.0,0.0,0.0,0.0,0.0,0.0,0.0,0.0,0.0,0.0,0.0,0.0,0.0,0.0,0.0,0.0,0.0,0.0,0.0,0.0,0.0,0.0,0.0,0.0,0.0,0.0,0.0,0.0,0.0,0.0,0.0,0.0,0.0,0.0,0.0,0.0,0.0,0.0,0.0,0.0,0.0,0.0,0.0,0.0,0.0,0.0,0.0,0.0,0.0,0.0,0.0,0.0,0.0,0.0,0.0,0.0,0.0,0.0,0.0,0.0,0.0,0.0,0.0,0.0,0.0,0.0,0.0,0.0,0.0,0.0,0.0,0.0,0.0,0.0,0.0,0.0,0.0,0.0,0.0,0.0,0.0,0.0,0.0,0.0,0.0,0.0,0.0,0.0,0.0,0.0,0.0,0.0,0.0,0.0,0.0,0.0,0.0,0.0,0.0,0.0,0.0,0.0,0.0,0.0,0.0,0.0,0.0,0.0,0.0,0.0,0.0,0.0,0.0,0.0,0.0,0.0,0.0,0.0,0.0,0.0,0.0,0.0,0.0,0.0,0.0,0.0,0.0,0.0,0.0,0.0,0.0,0.0,0.0,0.0,0.0,0.0,0.0,0.0,0.0,0.0,0.0,0.0,0.0,0.0,0.0,0.0,0.0,0.0,0.0,0.0,0.0,0.0,0.0,0.0,0.0,0.0,0.0,0.0,0.0,0.0,0.0,0.0,0.0,0.0,0.0,0.0,0.0,0.0,0.0,0.0,0.0,0.0,0.0,0.0,0.0,0.0,0.0,0.0,0.0,0.0,0.0,0.0,0.0,0.0,0.0,0.0,0.0,0.0,0.0,0.0,0.0,0.0,0.0,0.0,0.0,0.0,0.0,0.0,0.0,0.0,0.0,0.0,0.0,0.0,0.0,0.0,0.0,0.0,0.0,0.0,0.0,0.0,0.0,0.0,0.0,0.0,0.0,0.0,0.0,0.0,0.0,0.0,0.0,0.0,0.0,0.0,0.0,0.0,0.0,0.0,0.0,0.0,0.0,0.0,0.0,0.0,0.0,0.0,0.0,0.0,0.0,0.0,0.0,0.0,0.0,0.0,0.0,0.0,0.0,0.0,0.0,0.0,0.0,0.0,0.0,0.0,0.0,0.0,0.0,0.0,0.0,0.0,0.0,0.0,0.0,0.0,0.0,0.0,0.0,0.0,0.0,0.0,0.0,0.0,0.0,0.0,0.0,0.0,0.0,0.0,0.0,0.0,0.0,0.0,0.0,0.0,0.0,0.0,0.0,0.0,0.0,0.0,0.0,0.0,0.0,0.0,-4.5152,0.0,0.0,0.0,0.0,0.0,0.0,0.0,0.0,0.0,0.0,0.0,0.0,0.0,0.0,0.0,0.0,0.0,0.0,0.0,0.0,0.0,0.0,0.0,0.0,-4.2464,-4.2865,-4.3444,-4.3515,-4.3515,-4.3515,-4.3232,0.0,0.0,0.0,0.0,-4.3069,-4.3069,-4.3087,-4.3124,-4.3375,-4.3515,-4.3479,-4.3214,-4.2464,-4.1335,0.0,0.0,0.0,0.0,0.0,0.0,0.0,0.0,0.0,0.0,0.0,0.0,0.0,0.0,0.0,0.0,0.0,0.0,0.0,0.0,0.0,0.0,0.0,0.0,0.0,0.0,0.0,0.0,0.0,0.0,0.0,0.0,0.0,0.0,0.0,0.0,0.0,0.0,0.0,0.0,0.0,0.0,0.0,0.0,0.0,0.0,0.0,0.0,0.0,0.0,0.0,0.0,0.0,0.0,0.0,0.0,0.0,0.0,0.0,0.0,0.0,0.0,0.0,0.0,0.0,0.0,0.0,0.0,0.0,0.0,0.0,-4.5344,0.0,0.0,0.0,0.0,0.0,0.0,0.0,0.0,0.0,0.0,0.0,0.0,0.0,0.0,0.0,0.0,0.0,0.0,0.0,0.0,0.0,-4.1916,-4.2616,-4.3105,-4.3392,-4.3479,-4.3515,-4.3515,-4.3515,-4.3515,-4.3515,-4.3515,-4.3515,-4.3515,-4.3515,-4.3515,-4.3268,-4.2845,-4.3268,-4.3515,-4.3515,-4.341,-4.26,-4.1201,-4.0744,0.0,0.0,0.0,0.0,0.0,0.0,0.0,0.0,0.0,0.0,0.0,0.0,0.0,0.0,0.0,0.0,0.0,0.0,0.0,0.0,0.0,0.0,0.0,0.0,0.0,0.0,0.0,0.0,0.0,0.0,0.0,0.0,0.0,0.0,0.0,0.0,0.0,0.0,0.0,0.0,0.0,0.0,0.0,0.0,0.0,0.0,0.0,0.0,0.0,0.0,0.0,0.0,0.0,0.0,0.0,0.0,0.0,0.0,0.0,0.0,0.0,0.0,0.0,-4.5594,-4.5594,-4.5594,-4.5594,-4.5594,-4.5594,-4.5594,-4.5594,-4.5594,-4.5594,0.0,0.0,0.0,0.0,0.0,0.0,0.0,0.0,0.0,0.0,0.0,0.0,0.0,0.0,0.0,0.0,0.0,0.0,0.0,-4.1446,-4.2577,-4.2769,-4.2995,-4.3444,-4.3515,-4.3515,-4.3515,-4.3515,-4.3515,-4.3515,-4.3515,-4.3515,-4.3515,-4.3515,-4.348,-4.3392,-4.348,-4.3515,-4.3479,-4.3014,-4.2674,-4.246,-4.24,-4.236,-4.2282,0.0,0.0,0.0,0.0,0.0,0.0,0.0,0.0,0.0,0.0,0.0,0.0,0.0,0.0,0.0,0.0,0.0,0.0,0.0,0.0,0.0,0.0,0.0,0.0,0.0,0.0,0.0,0.0,0.0,0.0,0.0,0.0,0.0,0.0,0.0,0.0,0.0,0.0,0.0,0.0,0.0,-4.3515,-4.3515,0.0,0.0,0.0,0.0,0.0,0.0,0.0,0.0,0.0,0.0,0.0,0.0,0.0,-4.5594,-4.5594,-4.5594,-4.5594,-4.5594,-4.5594,-4.5594,-4.5594,-4.5594,-4.5594,-4.5594,-4.5594,0.0,-4.5594,-4.5594,0.0,0.0,0.0,0.0,0.0,0.0,0.0,0.0,0.0,0.0,0.0,0.0,0.0,0.0,0.0,0.0,0.0,0.0,0.0,0.0,0.0,-4.2771,-4.3232,-4.3479,-4.3515,-4.3515,-4.3515,-4.3515,-4.3515,-4.3515,-4.3515,-4.3515,-4.3515,-4.3515,-4.3515,-4.3515,-4.3515,-4.3515,-4.3479,-4.325,-4.316,-4.316,-4.316,-4.279,-4.2162,-4.1621,0.0,0.0,0.0,0.0,0.0,0.0,0.0,0.0,0.0,0.0,0.0,0.0,0.0,0.0,0.0,0.0,0.0,0.0,0.0,0.0,0.0,0.0,0.0,0.0,0.0,0.0,0.0,0.0,0.0,0.0,0.0,0.0,0.0,0.0,0.0,0.0,0.0,0.0,0.0,-4.3515,-4.3515,-4.3515,-4.3515,-4.3515,0.0,0.0,0.0,0.0,0.0,0.0,0.0,0.0,0.0,-4.5594,-4.5594,-4.5594,-4.5594,-4.5594,-4.5594,-4.5594,-4.5594,-4.5594,-4.5594,-4.5594,-4.5594,-4.5594,-4.5594,-4.5594,-4.5594,-4.5594,-4.5594,-4.5594,0.0,0.0,0.0,0.0,-4.5594,-4.5556,0.0,0.0,0.0,0.0,0.0,0.0,0.0,0.0,0.0,0.0,0.0,0.0,-4.2246,-4.2977,-4.3515,-4.3515,-4.3515,-4.3515,-4.3515,-4.3515,-4.3589,-4.3791,-4.3809,-4.3901,-4.4103,-4.3901,-4.3699,-4.3515,-4.3515,-4.3515,-4.3515,-4.3515,-4.3515,-4.3515,-4.3515,-4.3032,-4.2226,-4.2083,-4.1771,-4.1335,0.0,0.0,0.0,0.0,0.0,0.0,0.0,0.0,0.0,0.0,0.0,0.0,0.0,0.0,0.0,0.0,0.0,0.0,0.0,0.0,0.0,0.0,0.0,0.0,0.0,0.0,0.0,0.0,0.0,0.0,0.0,0.0,0.0,0.0,0.0,0.0,0.0,-4.3515,-4.3515,-4.3515,-4.3515,-4.3515,0.0,0.0,0.0,0.0,0.0,0.0,-4.5467,-4.5559,-4.5594,-4.5594,-4.5825,-4.5932,-4.5932,-4.6144,-4.624,-4.624,-4.624,-4.624,-4.624,-4.624,-4.624,-4.624,-4.624,-4.6124,-4.5913,-4.5691,-4.5594,-4.5594,-4.5594,-4.5594,-4.5594,-4.5594,-4.5594,-4.5594,0.0,0.0,0.0,0.0,0.0,0.0,0.0,0.0,0.0,0.0,0.0,-4.2246,-4.3303,-4.3462,-4.3515,-4.3515,-4.3515,-4.3515,-4.3515,-4.3515,-4.3828,-4.4617,-4.4654,-4.5002,-4.5755,-4.5039,-4.4268,-4.3515,-4.3515,-4.3515,-4.3515,-4.3515,-4.3515,-4.3515,-4.3515,-4.3462,-4.3392,-4.2883,-4.2635,-4.25,-4.1358,0.0,0.0,0.0,0.0,0.0,0.0,0.0,0.0,0.0,0.0,0.0,0.0,0.0,0.0,0.0,0.0,0.0,0.0,0.0,0.0,0.0,0.0,0.0,0.0,0.0,0.0,0.0,0.0,0.0,0.0,0.0,0.0,0.0,0.0,0.0,0.0,0.0,0.0,-4.3515,-4.3515,0.0,0.0,0.0,0.0,-4.4028,-4.4688,-4.5107,-4.5118,-4.5429,-4.5594,-4.5594,-4.6394,-4.6827,-4.6827,-4.7586,-4.7971,-4.7971,-4.7971,-4.7971,-4.7971,-4.7971,-4.7971,-4.7971,-4.7971,-4.7548,-4.6778,-4.5932,-4.5594,-4.5594,-4.5594,-4.5594,-4.5594,-4.5594,-4.5594,-4.5594,0.0,0.0,0.0,0.0,0.0,-4.0424,-4.0601,-4.1105,-4.1556,-4.1771,-4.2426,-4.2922,-4.2976,-4.3286,-4.3515,-4.3515,-4.3515,-4.3515,-4.3515,-4.3975,-4.4415,-4.469,-4.5204,-4.5369,-4.5131,-4.4342,-4.4048,-4.4268,-4.4268,-4.4544,-4.5039,-4.5039,-4.5039,-4.5039,-4.5039,-4.4764,-4.4232,-4.3523,-4.3014,-4.2655,-4.2223,-4.1599,0.0,0.0,0.0,0.0,0.0,0.0,0.0,0.0,0.0,0.0,0.0,0.0,0.0,0.0,0.0,0.0,0.0,0.0,0.0,0.0,0.0,0.0,0.0,0.0,0.0,0.0,0.0,0.0,0.0,0.0,0.0,0.0,0.0,0.0,0.0,0.0,0.0,-4.3515,-4.3515,0.0,-4.3515,-4.3804,-4.4001,-4.4001,-4.5161,-4.587,-4.587,-4.6724,-4.7201,-4.7201,-4.7509,-4.7682,-4.7682,-4.7971,-4.8105,-4.8105,-4.8105,-4.8105,-4.8105,-4.8105,-4.8105,-4.8105,-4.8105,-4.7952,-4.7663,-4.7336,-4.6567,-4.5594,-4.5594,-4.5594,-4.5594,-4.5594,-4.5594,-4.5594,0.0,0.0,0.0,-4.046,-4.0424,-4.0497,-4.085,-4.1424,-4.1874,-4.208,-4.2771,-4.316,-4.2995,-4.3304,-4.3515,-4.3515,-4.3736,-4.3901,-4.3901,-4.4654,-4.5241,-4.5498,-4.6287,-4.6342,-4.5517,-4.5002,-4.4837,-4.5112,-4.5112,-4.5388,-4.5902,-4.5902,-4.5902,-4.5902,-4.5902,-4.5608,-4.5057,-4.425,-4.3541,-4.2958,-4.2769,-4.2101,-4.1183,0.0,0.0,0.0,0.0,0.0,0.0,0.0,0.0,0.0,0.0,0.0,0.0,0.0,0.0,0.0,0.0,0.0,0.0,0.0,0.0,0.0,0.0,0.0,0.0,0.0,0.0,0.0,0.0,0.0,0.0,0.0,0.0,0.0,0.0,0.0,-4.3515,-4.3515,-4.3515,-4.3625,-4.3883,-4.4118,-4.4355,-4.4633,-4.5822,-4.6547,-4.6547,-4.7536,-4.8105,-4.8105,-4.8394,-4.8682,-4.8971,-4.926,-4.9385,-4.9385,-4.9385,-4.924,-4.8971,-4.8971,-4.8971,-4.8971,-4.8971,-4.8817,-4.8548,-4.8548,-4.7702,-4.6432,-4.6432,-4.6432,-4.6413,-4.6144,-4.6028,-4.599,0.0,-4.1728,-4.1238,-4.1238,-4.107,-4.0949,-4.0972,-4.1494,-4.2089,-4.2688,-4.2803,-4.2993,-4.3518,-4.357,-4.357,-4.357,-4.4287,-4.4745,-4.4745,-4.5498,-4.6305,-4.7094,-4.7846,-4.7901,-4.7113,-4.7076,-4.6691,-4.5938,-4.5938,-4.5957,-4.6012,-4.6012,-4.6012,-4.6012,-4.6012,-4.5993,-4.5883,-4.5112,-4.4305,-4.3518,-4.2957,-4.2362,-4.1832,0.0,0.0,0.0,0.0,0.0,0.0,0.0,0.0,0.0,0.0,0.0,0.0,0.0,0.0,0.0,0.0,0.0,0.0,0.0,0.0,0.0,0.0,0.0,0.0,0.0,0.0,0.0,0.0,0.0,0.0,0.0,0.0,0.0,-4.3515,-4.3515,-4.3515,-4.3533,-4.3551,-4.3846,-4.4672,-4.4745,-4.5057,-4.5847,-4.6632,-4.707,-4.707,-4.7832,-4.8259,-4.8259,-4.9086,-4.9913,-5.077,-5.1548,-5.1942,-5.1942,-5.1942,-5.1529,-5.0789,-5.0789,-5.0789,-5.0789,-5.0789,-5.0298,-4.951,-4.949,-4.8971,-4.8221,-4.8125,-4.8105,-4.8009,-4.7212,-4.6942,-4.6817,-4.2286,-4.2134,-4.1999,-4.1999,-4.1953,-4.209,-4.2552,-4.3109,-4.3711,-4.4349,-4.4778,-4.5077,-4.5205,-4.5241,-4.5241,-4.5241,-4.5443,-4.5571,-4.5571,-4.6305,-4.7131,-4.792,-4.7608,-4.7333,-4.7094,-4.6544,-4.6416,-4.6764,-4.6764,-4.7388,-4.8582,-4.8582,-4.8582,-4.8582,-4.8582,-4.7902,-4.6746,-4.6526,-4.5993,-4.5131,-4.3797,-4.294,-4.246,0.0,0.0,0.0,0.0,0.0,0.0,0.0,0.0,0.0,0.0,0.0,0.0,0.0,0.0,0.0,0.0,0.0,0.0,0.0,0.0,0.0,0.0,0.0,0.0,0.0,0.0,0.0,0.0,0.0,0.0,0.0,-4.3515,-4.3515,-4.3515,-4.3515,-4.3718,-4.4305,-4.4378,-4.469,-4.5498,-4.5571,-4.5663,-4.5883,-4.7763,-4.89,-4.89,-5.0742,-5.1798,-5.1798,-5.2029,-5.2279,-5.251,-5.2741,-5.2837,-5.2837,-5.2837,-5.2741,-5.251,-5.251,-5.251,-5.251,-5.251,-5.2375,-5.2106,-5.1471,-5.1058,-5.0673,-4.8817,-4.8105,-4.8067,-4.7855,-4.7778,-4.774,-4.3278,-4.298,-4.276,-4.276,-4.2506,-4.2507,-4.3143,-4.3522,-4.3948,-4.4546,-4.516,-4.5529,-4.5529,-4.5754,-4.5902,-4.5902,-4.6214,-4.6416,-4.6416,-4.7149,-4.781,-4.8288,-4.7846,-4.759,-4.759,-4.715,-4.7315,-4.8159,-4.8159,-4.882,-5.0086,-5.0086,-5.0086,-5.0086,-5.0086,-4.937,-4.8122,-4.7755,-4.6981,-4.5912,-4.4654,-4.3757,-4.3162,-4.2838,-4.2162,-4.1424,-4.137,-4.115,-4.0949,-4.1201,0.0,0.0,0.0,0.0,0.0,0.0,0.0,0.0,0.0,0.0,0.0,0.0,0.0,0.0,0.0,0.0,0.0,0.0,0.0,0.0,0.0,0.0,0.0,0.0,-4.3515,-4.3608,-4.3956,-4.3993,-4.4176,-4.4636,-4.5002,-4.5516,-4.6324,-4.6709,-4.7058,-4.7407,-4.923,-5.0313,-5.0313,-5.1795,-5.2653,-5.2653,-5.2843,-5.3104,-5.3449,-5.3659,-5.3741,-5.3741,-5.3741,-5.3549,-5.3203,-5.3203,-5.3203,-5.3203,-5.3203,-5.3203,-5.3164,-5.2654,-5.2442,0.0,0.0,0.0,0.0,0.0,-4.8413,-4.8105,-4.4615,-4.4028,-4.3527,-4.3527,-4.2997,-4.2762,-4.3352,-4.3452,-4.3638,-4.4195,-4.4793,-4.5189,-4.5271,-4.5746,-4.6103,-4.6159,-4.6838,-4.7241,-4.7241,-4.7901,-4.8306,-4.8306,-4.8306,-4.8306,-4.8306,-4.8398,-4.882,-4.961,-4.9702,-5.0161,-5.0949,-5.0949,-5.0949,-5.0949,-5.0949,-5.049,-4.9684,-4.8802,-4.7722,-4.6512,-4.5526,-4.4642,-4.3814,-4.3108,-4.211,-4.1161,-4.1707,-4.1512,-4.1087,-4.1686,0.0,0.0,0.0,0.0,0.0,0.0,0.0,0.0,0.0,0.0,0.0,0.0,0.0,0.0,0.0,0.0,0.0,0.0,0.0,0.0,0.0,0.0,0.0,0.0,-4.3588,-4.3883,-4.4617,-4.4856,-4.4966,-4.4966,-4.5608,-4.6397,-4.7278,-4.8031,-4.8802,-4.9684,-5.0787,-5.145,-5.145,0.0,0.0,0.0,0.0,-5.316,-5.3865,-5.4295,-5.449,-5.449,-5.449,-5.4087,-5.3347,-5.3347,-5.3347,-5.3347,-5.3347,-5.3347,-5.3327,-5.3231,-5.3135,-5.2916,-5.1413,-5.0846,-5.0721,-4.9875,-4.9067,-4.8394,-4.4615,-4.4479,-4.4378,-4.4378,-4.4259,-4.4344,-4.4949,-4.5052,-4.5271,-4.587,-4.6058,-4.6333,-4.6891,-4.7039,-4.7322,-4.7791,-4.7994,-4.8086,-4.8086,-4.8214,-4.8306,-4.8306,-4.8306,-4.8306,-4.8306,-4.8985,-4.9445,-4.961,-5.0251,-5.0986,-5.1756,-5.1756,-5.1756,-5.1756,-5.1756,-5.1316,-5.0508,-4.9682,-4.9203,-4.8771,-4.6757,-4.5088,-4.3808,-4.3646,-4.3059,-4.2362,-4.248,-4.2142,-4.1707,-4.2322,-4.2537,-4.2598,-4.3032,0.0,0.0,0.0,0.0,0.0,0.0,0.0,0.0,0.0,0.0,0.0,0.0,0.0,0.0,0.0,0.0,0.0,0.0,0.0,0.0,-4.3515,-4.4048,-4.4525,-4.4673,-4.581,-4.6636,-4.6636,-4.6764,-4.7462,-4.8967,-4.9262,-4.9682,-5.0508,-5.1658,-5.2361,-5.2361,-5.3393,-5.4012,-5.4012,-5.4075,-5.4216,-5.4348,-5.4458,-5.4488,-5.4488,0.0,0.0,-5.4242,-5.4242,-5.4242,-5.4242,-5.4242,-5.4242,-5.4185,-5.3489,-5.2792,-5.2111,-5.1801,-5.1673,-5.1568,-5.0741,-5.0346,-5.0212,-4.4615,-4.4615,-4.4615,-4.4615,-4.4615,-4.4692,-4.4998,-4.5052,-4.5169,-4.5459,-4.5757,-4.6088,-4.6425,-4.6728,-4.7172,-4.7797,-4.7856,-4.7856,-4.7856,-4.7856,-4.7977,-4.8287,-4.8306,-4.8306,-4.8306,-4.9132,-4.9812,-5.0196,-5.1004,-5.1811,-5.2601,-5.2601,-5.2601,-5.258,-5.2211,-5.1575,-5.0745,-4.9982,-4.9203,-4.8382,-4.688,-4.5346,-4.39,-4.3507,-4.2902,-4.2262,-4.2262,-4.2262,-4.2302,-4.2596,-4.2883,-4.316,-4.341,-4.3322,-4.3142,0.0,0.0,0.0,0.0,0.0,0.0,0.0,0.0,0.0,0.0,0.0,0.0,0.0,0.0,-4.3515,-4.3515,0.0,-4.3643,-4.403,-4.4452,-4.4966,-4.5792,-4.6581,-4.7094,-4.7094,-4.7847,-4.8673,-4.9519,-5.0326,-5.0987,-5.1371,-5.2332,-5.2895,-5.2895,-5.3516,-5.3851,-5.3851,-5.4049,-5.4153,-5.4153,-5.4371,-5.4503,-5.4503,-5.4503,-5.4503,-5.4503,-5.4503,-5.4503,-5.4503,-5.4503,-5.4503,-5.4465,-5.4034,-5.3601,-5.316,-5.2724,-5.2436,-5.2162,-5.1526,-5.1298,-5.1241,-4.4615,-4.4615,-4.4615,-4.4615,-4.4615,-4.4615,-4.4615,-4.4615,-4.4615,-4.4615,-4.5025,-4.5372,-4.5485,-4.594,-4.6478,-4.715,-4.7194,-4.7194,-4.7194,-4.7194,-4.747,-4.8094,-4.8132,-4.8132,-4.8132,-4.9093,-4.9845,-5.0364,-5.1477,-5.2265,-5.2761,-5.3051,-5.306,-5.2765,-5.2172,-5.1484,-5.0744,-4.9744,-4.8663,-4.754,-4.6441,-4.5182,-4.386,-4.3044,-4.2335,-4.1832,-4.1937,-4.2282,-4.2731,-4.2826,-4.3142,-4.3515,-4.3515,-4.3515,-4.3515,-4.3515,-4.3515,0.0,0.0,0.0,0.0,0.0,0.0,0.0,0.0,0.0,-4.3515,-4.3515,-4.3515,-4.3515,-4.3515,-4.3643,-4.3956,-4.4581,-4.4948,-4.5608,-4.6911,-4.7223,-4.7388,-4.7571,-4.8783,-4.9665,-4.9831,-5.1153,-5.205,-5.2215,-5.2839,-5.3185,-5.3185,-5.3185,-5.3185,-5.3185,-5.3505,-5.3683,-5.3683,-5.4049,-5.424,-5.424,-5.424,-5.424,-5.424,-5.424,-5.424,-5.424,-5.424,-5.424,-5.424,-5.424,-5.424,-5.42,-5.3572,-5.3115,-5.2753,-5.2138,-5.196,-5.1918,-4.4615,-4.4615,-4.4615,-4.4615,-4.4615,-4.4615,-4.4615,-4.4615,-4.4615,-4.4615,-4.4654,-4.4906,-4.5433,-4.5545,-4.5858,-4.6454,-4.6524,-4.6524,-4.6524,-4.6524,-4.6801,-4.747,-4.7509,-4.7509,-4.7509,-4.8877,-4.9352,-4.8848,-5.096,-5.1706,-5.1199,-5.2568,-5.2527,-5.1325,-5.1191,-5.1026,-5.0773,-4.8752,-4.812,-4.8235,-4.5662,-4.4118,-4.3301,-4.2506,-4.203,-4.1874,-4.242,-4.2635,-4.2769,-4.325,-4.3444,-4.3515,-4.3515,-4.3515,-4.3515,-4.3515,0.0,-4.3515,-4.3515,-4.3515,0.0,-4.3515,-4.3515,-4.3515,0.0,0.0,-4.3515,-4.3515,-4.3515,-4.3515,-4.3515,-4.4085,-4.4617,-4.469,-4.5902,-4.6892,-4.7076,-4.7718,-4.8453,-4.9243,-4.95,-4.9886,-5.06,-5.1463,-5.2289,-5.3023,-5.3148,-5.3185,-5.3185,-5.3185,-5.3185,-5.3185,-5.323,-5.3272,-5.3272,-5.3316,-5.3336,-5.3336,-5.3336,-5.3336,-5.3336,-5.3336,-5.3336,-5.3336,-5.3336,-5.3336,-5.3336,-5.3336,-5.3336,-5.338,-5.3628,-5.3701,-5.3528,-5.2328,-5.2148,-5.2406,-4.4615,-4.4615,-4.4615,-4.4615,-4.4615,-4.4615,-4.4615,-4.4615,-4.4615,-4.4615,-4.4615,-4.4709,-4.4961,-4.5294,-4.5459,-4.5372,-4.5656,-4.5865,-4.5865,-4.5865,-4.6161,-4.6778,-4.7194,-4.7406,-4.7406,-4.8837,-4.9455,-4.9177,-5.0609,-5.1138,-5.0851,-5.1486,-5.1505,-5.0914,-5.0444,-5.022,-5.0044,-4.8347,-4.7497,-4.7086,-4.5168,-4.369,-4.259,-4.1856,-4.1464,-4.1313,-4.1556,-4.2101,0.0,-4.2542,-4.2959,-4.3515,-4.3515,-4.3515,-4.3515,-4.3515,-4.3515,0.0,-4.3515,0.0,0.0,0.0,-4.3515,-4.3515,-4.3515,-4.3515,-4.3515,-4.3515,-4.3515,-4.3626,-4.4103,-4.447,-4.5021,0.0,-4.6654,-4.7259,-4.7718,-4.8104,-4.8618,-4.95,-5.0014,-5.06,-5.1408,-5.2234,-5.2839,-5.3167,-5.3185,-5.3185,-5.3185,-5.3185,-5.3185,-5.3185,-5.3185,-5.3185,-5.3185,-5.3185,-5.3185,-5.3185,-5.3185,-5.3185,-5.3185,-5.3185,-5.3185,-5.3185,-5.3185,-5.3185,-5.3185,-5.3185,-5.3185,-5.3227,-5.34,-5.3444,-5.3395,-5.2855,-5.2772,-5.2826,-4.4615,-4.4615,-4.4615,-4.4615,-4.4615,-4.4615,-4.4615,-4.4615,-4.4615,-4.4615,-4.4615,-4.4615,-4.4615,-4.4998,-4.5062,-4.4626,-4.4998,-4.5258,-4.5258,-4.5258,-4.552,-4.6136,-4.6635,-4.6864,-4.6864,-4.8254,-4.889,-4.8728,-4.9711,-5.0091,-4.9925,-5.0331,-5.0235,-4.9694,-4.931,-4.8902,-4.8377,-4.7037,-4.6076,-4.536,-4.406,-4.2881,-4.1849,-4.1155,-4.0813,-4.0703,-4.085,-4.1578,-4.242,-4.2142,-4.2599,-4.3322,-4.3444,-4.3515,-4.3515,-4.3515,-4.3515,-4.3515,-4.3515,0.0,0.0,-4.3515,-4.3515,-4.3515,-4.3515,-4.3515,-4.3552,-4.3791,-4.3828,-4.4066,-4.4892,-4.5205,-4.5737,-4.6911,-4.7278,-4.7626,-4.8233,-4.8508,-4.8985,-4.9831,-5.0637,-5.1444,-5.2252,-5.2858,-5.3185,-5.3185,-5.3185,-5.3185,-5.3185,-5.3185,-5.3185,-5.3185,-5.3185,-5.3185,-5.3185,-5.3185,-5.3185,-5.3185,-5.3185,-5.3185,-5.3185,-5.3185,-5.3185,-5.3185,-5.3185,-5.3185,-5.3185,-5.3185,-5.3185,-5.3185,-5.3185,-5.3185,-5.3198,-5.3199,-5.3271,-5.3238,-4.4615,-4.4615,-4.4615,-4.4615,-4.4615,-4.4615,-4.4615,-4.4615,-4.4615,-4.4615,-4.4615,-4.4615,-4.4615,-4.4626,-4.4626,-4.4615,-4.4626,-4.4626,-4.4626,-4.4626,-4.4906,-4.5511,-4.5563,-4.5563,-4.5563,-4.6814,-4.7164,-4.6513,-4.7954,-4.8344,-4.7736,-4.9162,-4.8792,-4.6939,-4.7524,-4.6977,-4.5528,-4.4121,-4.3459,-4.3256,-4.1861,-4.1264,-4.1145,-4.0417,-4.0113,-4.0179,-4.0709,-4.1313,-4.1916,0.0,-4.2711,-4.2826,-4.3339,-4.3515,0.0,-4.3515,-4.3515,0.0,0.0,0.0,-4.3515,-4.3515,-4.3515,-4.3515,-4.3515,-4.3515,-4.3718,-4.4507,-4.4672,-4.4911,-4.5718,-4.6507,-4.7039,-4.7094,-4.7736,-4.8269,-4.8306,-4.9022,-4.9867,-5.0674,-5.1463,-5.227,0.0,-5.3206,-5.3185,-5.3185,-5.3185,-5.3185,-5.3185,-5.3185,-5.3185,-5.3185,-5.3185,-5.3185,-5.3185,-5.3185,-5.3185,-5.3185,-5.3185,-5.3185,-5.3185,-5.3185,-5.3185,-5.3185,-5.3185,-5.3185,-5.3185,-5.3185,-5.3185,-5.3185,-5.3185,-5.3185,-5.3206,-5.3191,-5.3447,-5.3646,-4.4615,-4.4615,-4.4615,-4.4615,-4.4615,-4.4615,-4.4615,-4.4615,-4.4615,-4.4615,-4.4615,0.0,0.0,0.0,0.0,0.0,-4.4615,-4.4615,-4.4615,-4.4615,-4.4692,-4.4879,-4.5294,-4.5511,-4.5511,-4.6312,-4.6824,-4.7044,-4.7569,-4.7886,-4.8073,-4.8157,-4.785,-4.7168,-4.6436,-4.6056,-4.5841,-4.4083,-4.3228,-4.2996,-4.1722,-4.0899,-4.0426,-4.0197,-4.0096,-4.0121,0.0,-4.0726,-4.1228,0.0,0.0,0.0,-4.2789,0.0,0.0,-4.3392,0.0,-4.3515,0.0,0.0,-4.3643,-4.4158,-4.4305,-4.4433,-4.4966,-4.5094,-4.5168,-4.5443,-4.5498,-4.5736,-4.6562,-4.6911,-4.7278,-4.781,-4.8122,-4.8306,-4.8306,-4.904,-4.9904,-5.071,-5.1499,0.0,0.0,0.0,0.0,-5.3185,-5.3185,-5.3185,-5.3185,-5.3185,-5.3185,-5.3185,-5.3185,-5.3185,-5.3185,-5.3185,-5.3185,-5.3185,-5.3185,-5.3185,-5.3185,-5.3185,-5.3185,-5.3185,-5.3185,-5.3185,-5.3185,-5.3185,-5.3185,-5.3185,-5.3185,-5.3185,-5.3185,-5.3185,-5.3293,-5.3365,0.0,-4.4615,-4.4615,-4.4615,-4.4615,0.0,0.0,0.0,0.0,0.0,0.0,0.0,0.0,0.0,0.0,0.0,0.0,-4.4615,-4.4615,-4.4615,-4.4615,-4.4615,-4.4971,-4.5178,-4.5178,-4.5783,-4.6288,-4.6728,-4.6728,-4.691,-4.7302,-4.711,-4.6932,-4.6669,-4.5732,-4.5257,-4.504,-4.3284,-4.2303,-4.1905,-4.1127,-4.051,-4.0096,-4.0096,-4.0096,0.0,-4.0096,-4.0336,0.0,0.0,0.0,0.0,0.0,0.0,0.0,0.0,-4.4121,-4.4287,-4.4011,-4.414,-4.447,-4.5002,-4.5131,-4.5259,-4.5773,-4.5902,-4.5975,-4.6269,-4.6342,-4.6581,-4.7369,-4.7516,-4.77,-4.8233,-4.8306,-4.8416,-4.8728,-4.9481,-5.0325,-5.1132,-5.194,-5.2637,0.0,0.0,0.0,-5.3185,-5.3185,-5.3185,-5.3185,-5.3482,-5.3628,-5.3628,-5.3922,-5.4069,-5.4069,-5.4069,-5.4069,-5.4051,-5.3775,-5.3628,-5.3628,-5.3335,-5.3185,-5.3185,-5.3185,-5.3185,-5.3185,-5.3185,-5.3185,-5.3185,-5.3185,-5.3185,-5.3185,-5.3185,-5.3185,-5.3185,0.0,0.0,-4.4615,0.0,0.0,0.0,0.0,0.0,0.0,0.0,0.0,0.0,0.0,0.0,0.0,0.0,0.0,0.0,-4.4615,-4.4615,-4.4615,-4.4615,-4.4615,-4.4615,-4.4615,-4.5152,-4.5459,-4.5511,-4.5511,-4.5537,-4.5545,-4.6059,-4.5993,-4.5433,-4.5198,-4.4401,-4.3138,-4.1733,-4.0756,-4.0146,-4.0096,-4.0096,-4.0096,-4.0096,-4.0096,-4.0096,-4.0096,0.0,0.0,0.0,0.0,0.0,0.0,0.0,0.0,0.0,0.0,-4.5736,-4.4984,-4.5333,-4.5902,-4.5957,-4.5957,-4.5975,-4.6012,-4.6012,-4.625,-4.7003,-4.7168,-4.7388,0.0,0.0,-4.8306,-4.8306,-4.8306,-4.86,-4.9482,-5.0288,-5.1096,0.0,0.0,0.0,0.0,0.0,0.0,-5.3185,0.0,-5.3203,-5.3259,-5.3995,-5.4418,-5.4454,-5.5188,-5.5614,-5.5614,-5.5614,-5.5614,-5.5574,-5.4821,-5.4454,-5.4436,-5.3628,-5.3259,-5.3259,-5.3203,-5.3185,-5.3185,-5.3185,-5.3185,-5.3185,-5.3185,-5.3185,-5.3185,-5.3185,-5.3185,-5.3185,0.0,0.0,0.0,0.0,0.0,0.0,0.0,0.0,0.0,0.0,0.0,0.0,0.0,0.0,0.0,0.0,0.0,0.0,-4.4615,-4.4615,-4.4615,-4.4615,-4.4615,-4.4615,-4.4615,-4.4748,-4.5052,-4.5511,-4.5511,-4.5732,-4.615,-4.5313,-4.4829,-4.4618,-4.2978,-4.2307,-4.2327,-4.0966,-4.0506,-4.0655,-4.0262,-4.0096,-4.0096,-4.0096,-4.0096,-4.0096,-4.0096,0.0,0.0,0.0,0.0,0.0,0.0,-4.3725,-4.4691,0.0,0.0,-4.5865,-4.5645,-4.5736,-4.6049,-4.6636,-4.6782,-4.6947,-4.7553,-4.77,-4.7755,-4.7957,-4.7975,-4.8067,0.0,0.0,0.0,-4.8306,-4.8306,0.0,-4.9482,-5.0288,0.0,-5.1885,0.0,-5.3185,-5.3185,-5.3185,0.0,0.0,-5.3185,-5.3463,-5.4069,-5.4289,-5.4675,-5.5262,-5.5504,-5.5614,-5.5614,-5.5614,-5.5614,-5.5614,-5.5372,-5.528,-5.5262,-5.4454,-5.4087,-5.4069,-5.3463,-5.3185,-5.3185,-5.3185,-5.3185,-5.3185,-5.3185,-5.3185,-5.3185,-5.3185,-5.3185,-5.3185,0.0,0.0,0.0,0.0,0.0,0.0,0.0,0.0,0.0,0.0,0.0,0.0,0.0,0.0,0.0,0.0,0.0,0.0,0.0,-4.4615,-4.4615,-4.4615,-4.4615,-4.4615,-4.4615,-4.4615,-4.4776,-4.5115,-4.5115,-4.5095,-4.5058,-4.4617,-4.4227,-4.3838,-4.2326,-4.1835,-4.2057,-4.0677,-4.0262,0.0,0.0,-4.0096,-4.0096,-4.0096,-4.0096,0.0,0.0,0.0,0.0,0.0,0.0,-4.3632,-4.3996,-4.4857,-4.5737,-4.5737,0.0,-4.6874,-4.6526,-4.6691,-4.7058,-4.7498,-4.7626,-4.7736,-4.8214,-4.8306,-4.8306,-4.8306,-4.8306,0.0,0.0,0.0,0.0,0.0,0.0,0.0,-4.9939,-5.0508,-5.1224,0.0,-5.2931,0.0,-5.3185,-5.3185,-5.3353,0.0,-5.3739,-5.3922,-5.4381,-5.5078,-5.5666,-5.6106,-5.6455,-5.6638,-5.6638,-5.6638,-5.6638,-5.6638,-5.629,-5.6124,-5.6106,-5.528,-5.473,-5.4363,0.0,-5.3537,-5.3185,-5.3185,-5.3185,-5.3185,-5.3185,-5.3185,-5.3185,-5.3185,-5.3185,-5.3185,0.0,0.0,0.0,0.0,0.0,0.0,0.0,0.0,0.0,0.0,-4.4615,-4.4615,0.0,0.0,0.0,0.0,0.0,0.0,0.0,0.0,-4.4615,-4.4615,-4.4615,-4.4615,-4.4615,-4.4615,-4.4615,-4.4615,-4.4615,-4.4181,-4.342,-4.3898,-4.3739,-4.2995,-4.2251,-4.1905,-4.1847,-4.0601,-4.0096,-4.0096,-4.0096,-4.0096,-4.0096,0.0,0.0,0.0,0.0,0.0,0.0,0.0,-4.3902,-4.4984,-4.5681,-4.6452,-4.7094,-4.7094,-4.7663,-4.8159,-4.7443,-4.7755,-4.8306,-4.8306,-4.8306,-4.8306,-4.8306,-4.8306,-4.8306,-4.8306,0.0,-4.8306,-4.8306,-4.8306,-4.8306,-4.8306,0.0,-4.8893,-5.0563,-5.0802,-5.1408,-5.3002,-5.3185,-5.3185,-5.3185,-5.3316,-5.3665,-5.4344,-5.4601,-5.473,-5.473,-5.6051,-5.6859,-5.6969,-5.7648,-5.7997,-5.7997,-5.7997,-5.7997,-5.7997,-5.7299,-5.6969,-5.6932,-5.6124,-5.5372,-5.4711,-5.4491,-5.4014,-5.3353,-5.3243,-5.3185,-5.3185,-5.3185,-5.3185,-5.3185,-5.3185,-5.3185,-5.3185,0.0,0.0,0.0,0.0,0.0,0.0,0.0,0.0,0.0,0.0,-4.4615,-4.4615,0.0,0.0,0.0,0.0,0.0,0.0,0.0,0.0,0.0,-4.4615,-4.4615,-4.4615,-4.4615,-4.4615,0.0,0.0,0.0,-4.4181,-4.3375,-4.2894,-4.2277,-4.152,-4.0798,-4.0458,-4.0441,-4.0197,-4.0096,-4.0096,-4.0096,-4.0096,-4.0096,0.0,0.0,0.0,0.0,0.0,0.0,0.0,-4.4612,-4.5718,-4.5865,-4.6452,-4.7094,-4.7094,-4.7663,-4.8269,-4.8141,-4.8196,-4.8306,-4.8306,-4.8306,-4.8306,-4.8306,-4.8306,0.0,0.0,-4.8306,-4.8306,-4.8306,-4.8306,0.0,-4.8306,0.0,0.0,0.0,0.0,-5.1408,0.0,0.0,0.0,0.0,0.0,0.0,0.0,0.0,-5.6381,-5.6381,-5.6657,-5.7097,-5.7776,-5.7923,-5.7997,-5.7997,-5.7997,-5.7997,-5.7997,-5.785,-5.7795,-5.7758,-5.6969,-5.6528,-5.6326,-5.4987,0.0,-5.4142,-5.3482,-5.3185,-5.3185,-5.3185,-5.3185,-5.3185,-5.3185,-5.3185,-5.3185,0.0,0.0,0.0,0.0,0.0,0.0,0.0,-4.4615,-4.4615,-4.4615,-4.4615,-4.4615,-4.4615,-4.4615,-4.4615,0.0,0.0,0.0,0.0,0.0,0.0,0.0,0.0,0.0,0.0,0.0,0.0,0.0,0.0,0.0,0.0,0.0,0.0,0.0,0.0,0.0,0.0,0.0,-4.0096,0.0,0.0,0.0,0.0,0.0,0.0,0.0,0.0,0.0,0.0,0.0,-4.5269,-4.6656,-4.6561,-4.7076,-4.7718,-4.7718,-4.8012,-4.8306,-4.8306,-4.8306,-4.8306,-4.8306,-4.8306,-4.8306,-4.8306,0.0,0.0,0.0,-4.8306,-4.8306,-4.8306,0.0,0.0,0.0,0.0,0.0,0.0,0.0,0.0,0.0,0.0,0.0,0.0,0.0,0.0,0.0,0.0,-5.6804,-5.6804,-5.7207,-5.7593,-5.7997,-5.7997,-5.7997,-5.7997,-5.7997,-5.7997,-5.7997,-5.7997,-5.7997,-5.7997,-5.7593,-5.7207,-5.6767,-5.5978,0.0,-5.4363,-5.3977,-5.3592,-5.3185,-5.3185,-5.3185,-5.3185,-5.3185,-5.3185,-5.3185,0.0,0.0,0.0,0.0,0.0,0.0,-4.4615,-4.4615,-4.4615,-4.4615,-4.4615,-4.4615,-4.4615,-4.4615,-4.4615,0.0,0.0,0.0,0.0,0.0,0.0,0.0,0.0,0.0,0.0,0.0,0.0,0.0,0.0,0.0,0.0,0.0,0.0,0.0,0.0,0.0,0.0,0.0,0.0,0.0,0.0,0.0,0.0,0.0,0.0,0.0,0.0,0.0,0.0,0.0,-4.5575,-4.6998,-4.6951,-4.7563,-4.8306,-4.8306,-4.8306,-4.8306,-4.8306,-4.8306,-4.8306,-4.8306,-4.8306,-4.8306,-4.8306,-4.8306,0.0,0.0,-4.8306,-4.8306,-4.8306,0.0,0.0,0.0,0.0,0.0,0.0,0.0,0.0,0.0,0.0,0.0,0.0,0.0,0.0,0.0,0.0,0.0,-5.706,-5.7666,-5.7997,-5.7997,-5.7997,-5.7997,-5.7997,-5.7997,-5.7997,-5.7997,-5.7997,-5.7997,-5.7997,-5.7997,-5.7666,-5.706,-5.6877,0.0,-5.4638,-5.4473,-5.394,-5.3185,-5.3185,-5.3185,-5.3185,-5.3185,-5.3185,-5.3185,0.0,0.0,0.0,0.0,0.0,0.0,-4.4615,-4.4615,-4.4615,-4.4615,-4.4615,-4.4615,-4.4615,-4.4615,-4.4615,0.0,0.0,0.0,0.0,0.0,0.0,0.0,0.0,0.0,0.0,0.0,0.0,0.0,0.0,0.0,0.0,0.0,0.0,0.0,0.0,0.0,0.0,0.0,0.0,0.0,0.0,0.0,0.0,0.0,0.0,0.0,0.0,0.0,0.0,0.0,0.0,-4.5783,-4.6295,-4.7313,-4.8306,-4.8306,0.0,0.0,-4.8306,-4.8306,-4.8306,-4.8306,-4.8306,-4.8306,-4.8306,0.0,0.0,-4.8306,-4.8306,-4.8306,-4.8306,-4.8306,-4.8306,0.0,0.0,0.0,0.0,0.0,0.0,0.0,0.0,0.0,0.0,0.0,0.0,0.0,0.0,0.0,-5.7886,-5.796,-5.7997,-5.7997,-5.7997,-5.7997,-5.7997,-5.7997,-5.7997,-5.7997,-5.7997,-5.7997,-5.7997,-5.7997,-5.796,-5.785,-5.7134,0.0,0.0,-5.4693,-5.394,-5.3185,-5.3185,-5.3185,-5.3185,-5.3185,-5.3185,-5.3185,0.0,0.0,0.0,0.0,0.0,0.0,-4.4615,-4.4615,-4.4615,-4.4615,-4.4615,-4.4615,-4.4615,-4.4615,-4.4615,-4.4615,-4.4615,0.0,0.0,0.0,0.0,0.0,0.0,0.0,0.0,0.0,-4.2743,-4.2743,0.0,0.0,0.0,0.0,0.0,0.0,0.0,0.0,0.0,0.0,0.0,0.0,0.0,0.0,0.0,0.0,0.0,0.0,0.0,0.0,0.0,0.0,0.0,0.0,-4.5783,-4.6454,0.0,0.0,-4.7756,-4.7856,-4.8191,-4.8306,-4.8306,-4.8306,-4.8306,-4.8306,-4.8306,0.0,-4.8306,-4.8306,-4.8306,-4.8306,-4.8306,-4.8306,-4.8306,0.0,0.0,0.0,0.0,0.0,0.0,0.0,0.0,0.0,0.0,0.0,0.0,0.0,0.0,0.0,-5.7997,-5.7997,-5.7997,-5.7997,-5.7997,-5.7997,-5.7997,-5.7997,-5.7997,-5.7997,-5.7997,-5.7997,-5.7997,-5.7997,-5.7997,-5.7978,-5.7666,0.0,0.0,-5.5244,-5.4363,-5.3185,-5.3185,-5.3185,-5.3185,-5.3185,-5.3185,-5.3185,0.0,0.0,0.0,0.0,0.0,-4.4615,-4.4615,-4.4615,-4.4615,-4.4615,-4.4615,-4.4615,-4.4615,-4.4615,-4.4615,-4.4615,-4.4395,0.0,0.0,0.0,0.0,0.0,0.0,0.0,0.0,0.0,-4.1965,-4.1965,-4.1238,-4.0865,0.0,0.0,0.0,0.0,0.0,0.0,0.0,0.0,0.0,0.0,0.0,0.0,0.0,0.0,0.0,0.0,0.0,0.0,0.0,0.0,0.0,0.0,0.0,0.0,0.0,0.0,-4.7406,-4.753,-4.8152,-4.8306,-4.8306,-4.8306,-4.8306,-4.8306,0.0,-4.8306,-4.8306,-4.8306,-4.8306,-4.8306,-4.8306,-4.8306,-4.8306,0.0,0.0,-4.8508,0.0,0.0,0.0,0.0,0.0,0.0,0.0,0.0,0.0,0.0,0.0,0.0,-5.7997,-5.7997,-5.7997,-5.7997,-5.7997,-5.7997,-5.7997,-5.7997,-5.7997,-5.7997,-5.7997,-5.7997,-5.7997,-5.7997,-5.7997,-5.7997,-5.7997,0.0,0.0,-5.5684,-5.4785,-5.3537,-5.3277,-5.3185,-5.3185,-5.3185,-5.3185,-5.3185,0.0,0.0,0.0,0.0,0.0,-4.4615,-4.4615,-4.4615,-4.4615,-4.4615,-4.4615,-4.4615,-4.4615,-4.4615,-4.4615,-4.4615,-4.3876,0.0,0.0,0.0,0.0,0.0,0.0,0.0,-4.3392,-4.1965,-4.1221,-4.1221,-4.046,-4.0113,-4.0113,-4.0096,0.0,0.0,0.0,0.0,0.0,0.0,0.0,0.0,0.0,0.0,0.0,0.0,0.0,0.0,0.0,0.0,0.0,0.0,0.0,0.0,0.0,-4.4598,-4.4988,0.0,-4.7406,-4.753,-4.8152,-4.8306,-4.8306,-4.8306,-4.8306,-4.8306,0.0,-4.8306,-4.8306,-4.8306,-4.8306,-4.8306,-4.8306,-4.8306,-4.8306,-4.8306,-4.8306,0.0,0.0,0.0,0.0,0.0,0.0,0.0,0.0,0.0,0.0,0.0,0.0,0.0,-5.7997,-5.7997,-5.7997,-5.7997,-5.7997,-5.7997,-5.7997,-5.7997,-5.7997,-5.7997,-5.7997,-5.7997,-5.7997,-5.7997,-5.7997,-5.7997,0.0,0.0,0.0,-5.5923,-5.5115,-5.4308,-5.3518,-5.3185,-5.3185,-5.3185,-5.3185,-5.3185,0.0,0.0,0.0,0.0,0.0,0.0,-4.4615,-4.4615,-4.4615,-4.4615,-4.4615,-4.4615,-4.4615,-4.4615,-4.4615,-4.4615,-4.3859,0.0,0.0,0.0,0.0,0.0,0.0,0.0,-4.1914,-4.095,-4.0468,-4.0468,-4.0214,-4.0096,-4.0096,-4.0096,-4.0096,-4.0096,0.0,0.0,0.0,0.0,0.0,0.0,0.0,0.0,0.0,0.0,0.0,0.0,0.0,0.0,0.0,0.0,0.0,0.0,0.0,0.0,0.0,-4.5825,-4.6088,-4.6233,-4.6824,-4.7004,-4.711,-4.7572,-4.7677,-4.7797,-4.821,-4.7977,-4.7797,-4.821,-4.7957,-4.7797,-4.821,-4.8306,-4.8306,-4.8306,-4.8306,0.0,0.0,0.0,0.0,0.0,0.0,0.0,0.0,0.0,0.0,0.0,0.0,0.0,-5.7997,-5.7997,-5.7997,-5.7997,-5.7997,-5.7997,-5.7997,-5.7997,-5.7997,-5.7997,-5.7997,-5.7997,-5.7997,-5.7997,-5.7997,0.0,0.0,0.0,0.0,-5.6528,-5.5941,-5.5188,-5.4932,-5.484,-5.484,-5.484,-5.4491,-5.4014,0.0,0.0,0.0,0.0,0.0,0.0,-4.4615,-4.4615,-4.4615,-4.4615,-4.4615,-4.4615,-4.4615,-4.4615,-4.4615,-4.4615,-4.3859,0.0,0.0,0.0,0.0,0.0,0.0,0.0,-4.2033,-4.1018,-4.0536,-4.0536,-4.0248,-4.0096,-4.0096,-4.0096,-4.0096,-4.0096,-4.0096,-4.0096,0.0,0.0,0.0,0.0,0.0,0.0,-4.1644,0.0,0.0,0.0,0.0,0.0,0.0,0.0,0.0,0.0,0.0,0.0,0.0,0.0,-4.5152,-4.5346,0.0,-4.6407,-4.6501,-4.6932,-4.7021,-4.711,-4.7512,-4.7302,-4.7128,-4.7512,-4.7281,-4.7216,-4.7838,-4.7957,-4.8035,-4.8267,-4.8306,0.0,0.0,0.0,0.0,0.0,0.0,0.0,0.0,0.0,0.0,0.0,0.0,0.0,-5.7997,-5.7997,-5.7997,-5.7997,-5.7997,-5.7997,-5.7997,-5.7997,-5.7997,-5.7997,-5.7997,-5.7997,-5.7997,-5.7997,-5.7997,0.0,0.0,0.0,0.0,-5.6932,-5.651,-5.6014,-5.5702,-5.5614,-5.5614,-5.5614,-5.5262,-5.4803,0.0,0.0,0.0,0.0,0.0,0.0,0.0,-4.4542,-4.4542,-4.4598,-4.4615,-4.4615,-4.4615,-4.4615,-4.4615,-4.4615,-4.3927,0.0,0.0,0.0,0.0,0.0,0.0,-4.3308,-4.3308,-4.1982,-4.1288,-4.1288,-4.0578,-4.0265,-4.0265,-4.0265,-4.0265,-4.0265,-4.0265,-4.0265,-4.0265,-4.0265,-4.106,-4.2236,-4.1542,-4.1728,0.0,0.0,0.0,0.0,0.0,0.0,0.0,0.0,0.0,0.0,0.0,0.0,0.0,0.0,0.0,0.0,0.0,-4.6264,-4.6288,-4.6336,-4.6336,-4.6359,-4.6407,-4.6383,0.0,-4.6407,-4.6359,-4.6548,-4.7277,-4.7406,-4.7593,-4.8191,0.0,0.0,0.0,0.0,0.0,0.0,0.0,0.0,0.0,0.0,0.0,0.0,0.0,0.0,-5.7997,-5.7997,-5.7997,-5.7997,-5.7941,-5.7941,-5.7997,-5.7997,-5.7997,-5.7997,-5.7997,-5.7997,-5.7997,-5.7997,-5.7997,0.0,0.0,0.0,0.0,-5.7189,-5.6895,-5.6822,-5.6051,-5.578,-5.578,-5.578,-5.5721,-5.5574,0.0,0.0,0.0,0.0,0.0,0.0,0.0,0.0,0.0,0.0,-4.4615,-4.4615,-4.4615,-4.4615,-4.4615,0.0,0.0,0.0,0.0,0.0,0.0,0.0,-4.2557,-4.2557,-4.2557,-4.2219,-4.2033,-4.2033,-4.1863,-4.1788,-4.1788,-4.1788,-4.1788,-4.1788,-4.1788,-4.1788,-4.1788,-4.1788,-4.1965,-4.2269,-4.21,-4.2489,0.0,0.0,0.0,0.0,-4.4547,-4.4615,0.0,0.0,0.0,0.0,0.0,0.0,0.0,0.0,-4.4615,-4.4654,-4.4961,0.0,-4.5125,-4.5597,-4.5707,-4.5815,0.0,-4.6021,-4.584,-4.6312,0.0,-4.6063,-4.7194,-4.7406,-4.7593,0.0,0.0,0.0,0.0,0.0,0.0,0.0,0.0,0.0,0.0,0.0,0.0,0.0,0.0,-5.7997,-5.7997,-5.7997,-5.7997,-5.7997,-5.7409,-5.7373,-5.7997,-5.7997,-5.7997,-5.7997,-5.7997,-5.7997,-5.7997,-5.7997,-5.7997,0.0,0.0,0.0,-5.7997,-5.7795,-5.7721,-5.7703,-5.7501,-5.7428,-5.7428,-5.7428,-5.7042,-5.6492,0.0,0.0,0.0,0.0,0.0,0.0,0.0,0.0,0.0,0.0,-4.4355,-4.4615,-4.4615,-4.4615,-4.4457,0.0,0.0,0.0,0.0,0.0,0.0,-4.3379,-4.3379,-4.3379,-4.3379,-4.2997,-4.2811,-4.2811,-4.2472,-4.2286,-4.2286,-4.2286,-4.2286,-4.2286,-4.2286,-4.2489,-4.2777,-4.2439,-4.2692,-4.3301,-4.2946,0.0,0.0,0.0,0.0,0.0,-4.4615,-4.4615,0.0,-4.4615,-4.4615,-4.4615,0.0,0.0,0.0,0.0,-4.4615,-4.4615,-4.4615,-4.4615,-4.4682,-4.4998,-4.5089,-4.5152,-4.5511,-4.532,0.0,0.0,0.0,0.0,0.0,0.0,0.0,0.0,0.0,0.0,0.0,0.0,0.0,0.0,0.0,0.0,0.0,0.0,0.0,0.0,0.0,-5.7446,-5.7446,-5.7446,-5.7281,-5.6895,-5.6473,-5.6638,-5.7446,-5.7079,-5.6895,-5.6895,-5.6895,-5.6895,-5.6895,-5.6895,-5.7097,0.0,0.0,0.0,-5.7997,-5.7997,-5.7997,-5.7997,-5.7997,-5.7997,-5.7997,-5.7997,-5.7721,-5.7299,0.0,0.0,0.0,0.0,0.0,0.0,0.0,0.0,0.0,0.0,0.0,0.0,0.0,0.0,0.0,0.0,0.0,0.0,0.0,0.0,-4.4615,-4.4615,-4.4615,-4.4615,-4.4615,-4.3927,-4.3589,-4.3589,-4.2946,-4.2642,-4.2642,-4.2642,-4.2642,-4.2642,-4.2642,-4.2997,-4.3527,-4.2912,-4.3413,-4.4547,-4.3859,0.0,0.0,0.0,0.0,0.0,0.0,0.0,0.0,-4.4615,-4.4615,-4.4615,-4.4615,0.0,0.0,0.0,0.0,0.0,-4.4615,-4.4615,-4.4615,-4.4615,-4.4615,-4.4615,-4.4615,0.0,0.0,0.0,0.0,0.0,0.0,0.0,0.0,0.0,0.0,0.0,0.0,0.0,0.0,0.0,0.0,0.0,0.0,0.0,0.0,0.0,0.0,-5.662,-5.662,-5.662,-5.6308,-5.5611,-5.5464,-5.5739,-5.6436,-5.5868,-5.5614,-5.5614,-5.5614,-5.5614,-5.5614,-5.5614,-5.5959,-5.662,0.0,0.0,-5.7831,-5.7941,-5.7997,-5.7997,-5.7997,-5.7997,-5.7997,-5.7997,-5.7997,-5.7868,0.0,0.0,0.0,0.0,0.0,0.0,0.0,0.0,0.0,0.0,0.0,0.0,0.0,0.0,0.0,0.0,0.0,0.0,0.0,-4.4138,-4.4615,-4.4615,-4.4615,-4.4615,-4.4615,-4.4496,-4.4429,-4.4429,-4.431,-4.4259,-4.4259,-4.4259,-4.4259,-4.4259,-4.4259,-4.4327,-4.4429,-4.431,-4.4395,-4.4598,-4.4479,0.0,0.0,0.0,0.0,0.0,0.0,0.0,0.0,-4.4615,-4.4615,-4.4615,-4.4615,0.0,0.0,0.0,0.0,0.0,-4.4615,-4.4615,-4.4615,-4.4615,-4.4615,-4.4615,-4.4615,0.0,0.0,0.0,0.0,0.0,0.0,0.0,0.0,0.0,0.0,0.0,0.0,0.0,0.0,0.0,0.0,0.0,0.0,0.0,0.0,0.0,0.0,-5.5776,-5.5776,-5.5776,-5.5721,-5.5614,-5.4932,-5.4638,-5.4766,-5.5317,-5.5614,-5.5614,-5.5614,-5.5614,-5.5614,-5.5614,-5.5666,-5.5812,0.0,-5.6877,-5.7042,-5.7721,-5.7997,-5.7997,-5.7997,-5.7997,-5.7997,-5.7997,-5.7997,-5.7776,0.0,0.0,0.0,0.0,0.0,0.0,0.0,0.0,0.0,0.0,0.0,0.0,0.0,0.0,0.0,0.0,0.0,0.0,0.0,-4.3697,-4.4109,-4.457,-4.4615,-4.4615,-4.4615,-4.4615,-4.4615,-4.4615,-4.4615,-4.4615,-4.4615,-4.4615,-4.4615,-4.4615,-4.4615,-4.4615,-4.4615,-4.4615,-4.4615,-4.4615,0.0,0.0,0.0,0.0,0.0,0.0,0.0,0.0,0.0,0.0,-4.4615,-4.4615,-4.4615,0.0,0.0,0.0,0.0,0.0,-4.4615,-4.4615,-4.4615,-4.4615,-4.4615,-4.4615,-4.4615,-4.4615,0.0,0.0,0.0,0.0,0.0,0.0,0.0,0.0,0.0,0.0,0.0,0.0,0.0,0.0,0.0,0.0,0.0,0.0,0.0,0.0,0.0,0.0,-5.495,-5.495,-5.4748,-5.4326,-5.394,-5.3757,-5.3757,-5.3726,-5.3713,-5.3713,-5.41,-5.4078,-5.3713,-5.4122,-5.4546,-5.4987,0.0,-5.64,-5.6877,-5.7666,-5.7774,-5.7449,-5.7821,-5.775,-5.7449,-5.7862,-5.7721,-5.7189,0.0,0.0,0.0,0.0,0.0,0.0,0.0,0.0,0.0,0.0,0.0,0.0,0.0,0.0,0.0,0.0,0.0,0.0,0.0,-4.3185,-4.368,-4.4542,-4.4615,-4.4615,-4.4615,-4.4615,-4.4615,-4.4615,-4.4615,-4.4615,-4.4615,-4.4615,-4.4615,-4.4615,-4.4615,-4.4615,-4.4615,-4.4615,-4.4615,-4.4615,0.0,0.0,0.0,0.0,0.0,0.0,0.0,0.0,0.0,0.0,0.0,0.0,0.0,0.0,0.0,-4.4615,-4.4615,-4.4615,-4.4615,-4.4615,-4.4615,-4.4615,-4.4615,-4.4615,-4.4615,-4.4615,0.0,0.0,0.0,0.0,0.0,0.0,0.0,0.0,0.0,0.0,0.0,0.0,0.0,0.0,0.0,0.0,0.0,0.0,0.0,0.0,0.0,0.0,-5.3636,-5.3636,-5.3344,-5.2739,-5.2702,-5.2702,-5.2702,-5.2154,-5.1952,-5.2094,-5.2509,-5.2399,-5.188,-5.2617,-5.3266,-5.391,-5.4906,-5.5776,-5.6561,-5.7193,-5.7237,-5.6938,-5.7315,-5.7216,-5.6964,-5.7522,-5.7326,-5.6693,0.0,0.0,0.0,0.0,0.0,0.0,0.0,0.0,0.0,0.0,0.0,0.0,0.0,0.0,0.0,0.0,0.0,0.0,-4.2029,-4.2847,-4.368,-4.4542,-4.4615,-4.4615,-4.4615,-4.4615,-4.4615,-4.4615,-4.4615,-4.4615,-4.4615,-4.4615,-4.4615,-4.4615,-4.4615,-4.4615,-4.4615,-4.4615,-4.4615,-4.4615,-4.4615,0.0,0.0,0.0,0.0,0.0,0.0,0.0,0.0,0.0,0.0,0.0,0.0,0.0,-4.4615,-4.4615,-4.4615,-4.4615,-4.4615,-4.4615,-4.4615,-4.4615,-4.4615,-4.4615,-4.4615,-4.4615,0.0,-4.4615,0.0,0.0,0.0,0.0,0.0,0.0,0.0,0.0,0.0,0.0,0.0,0.0,0.0,0.0,0.0,0.0,0.0,0.0,0.0,0.0,-5.1329,-5.1329,-5.1294,-5.1241,-5.1241,-5.1241,-5.1241,-5.1189,-5.1494,-5.2089,-5.1519,-5.1215,-5.1189,-5.188,-5.2219,-5.2351,-5.3829,-5.4932,-5.5695,-5.5825,-5.6252,-5.6817,-5.6132,-5.6286,-5.6912,-5.6964,-5.6891,-5.6693,0.0,0.0,0.0,0.0,0.0,0.0,0.0,0.0,0.0,0.0,0.0,0.0,0.0,0.0,0.0,0.0,0.0,0.0,-4.3469,-4.3426,-4.368,-4.4542,-4.4615,-4.4615,-4.4615,-4.4615,-4.4615,-4.4615,-4.4615,-4.4615,-4.4615,-4.4615,-4.4615,-4.4615,-4.4615,-4.4615,-4.4615,-4.4615,-4.4615,-4.4615,-4.4615,-4.4615,0.0,0.0,0.0,0.0,0.0,0.0,0.0,0.0,-4.4615,-4.4615,-4.4615,-4.4615,-4.4615,-4.4615,-4.4615,-4.4615,-4.4615,-4.4615,-4.4615,-4.4615,-4.4615,0.0,0.0,-4.4615,-4.4615,-4.4615,-4.4615,0.0,0.0,0.0,0.0,0.0,0.0,0.0,0.0,0.0,0.0,0.0,0.0,0.0,0.0,0.0,0.0,0.0,0.0,0.0,-5.1086,-5.1086,-5.1086,-5.1086,-5.1086,-5.1086,-5.1086,-5.0635,-5.0554,-5.0805,-5.1008,-5.085,-5.0445,-5.1146,-5.1469,-5.1547,-5.2601,-5.3264,-5.3623,-5.4623,-5.4916,-5.4803,-5.4956,-5.5195,-5.5482,-5.5482,-5.5112,-5.4571,0.0,0.0,0.0,0.0,0.0,0.0,0.0,0.0,0.0,0.0,0.0,0.0,0.0,0.0,0.0,0.0,0.0,0.0,-4.3634,-4.3229,-4.3396,-4.4542,-4.4615,-4.4615,-4.4615,-4.4615,-4.4615,-4.4615,-4.4615,-4.4615,-4.4615,-4.4615,-4.4615,-4.4615,-4.4615,-4.4615,-4.4615,-4.4615,-4.4615,-4.4615,-4.4615,-4.4615,0.0,0.0,0.0,0.0,0.0,0.0,0.0,0.0,-4.4615,-4.4615,-4.4615,-4.4615,-4.4615,-4.4615,-4.4615,-4.4615,-4.4615,-4.4615,-4.4615,-4.4615,0.0,0.0,-4.4615,-4.4615,-4.4615,-4.4615,-4.4615,0.0,0.0,0.0,0.0,0.0,0.0,0.0,0.0,0.0,0.0,0.0,0.0,0.0,0.0,0.0,0.0,0.0,0.0,0.0,0.0,-5.0435,-5.0435,-5.0435,-5.0435,-5.0435,-5.0435,-4.9936,-4.9693,-4.9693,-5.0202,-5.0174,-4.9722,-5.0435,-5.0743,-5.0805,-5.1573,-5.2068,-5.2369,-5.3185,-5.3242,-5.2836,-5.3335,-5.3684,-5.3922,-5.3922,-5.3513,-5.2974,0.0,0.0,0.0,0.0,0.0,0.0,0.0,0.0,-3.9388,-3.9388,-3.9388,0.0,0.0,0.0,0.0,0.0,0.0,0.0,-4.1901,-4.1997,-4.2769,-4.4514,-4.4587,-4.4587,-4.4587,-4.457,-4.4598,-4.4615,-4.4615,-4.4615,-4.4615,-4.4615,-4.4615,-4.4615,-4.4615,-4.4615,-4.4615,-4.4615,-4.4615,-4.4615,-4.4615,-4.4615,-4.4615,0.0,0.0,0.0,0.0,0.0,0.0,0.0,-4.4615,-4.4615,-4.4615,-4.4615,-4.4615,-4.4615,-4.4615,-4.4615,-4.4615,-4.4615,-4.4615,0.0,0.0,0.0,-4.4615,-4.4615,-4.4615,-4.4615,0.0,-4.4615,-4.4615,0.0,0.0,0.0,0.0,0.0,0.0,0.0,0.0,0.0,0.0,0.0,0.0,0.0,0.0,0.0,0.0,0.0,0.0,-4.9001,-4.9001,-4.9001,-4.9001,-4.9001,-4.9001,-4.9001,-4.9001,-4.9001,-4.9001,-4.9001,-4.9032,-4.9693,-5.0004,-5.0033,-5.077,-5.1528,-5.2201,-5.1481,-5.1188,-5.1185,-5.1185,-5.1688,-5.2379,-5.2379,-5.2337,-5.2281,0.0,0.0,0.0,0.0,0.0,0.0,0.0,0.0,-3.9388,-3.9388,-3.9388,0.0,0.0,0.0,0.0,0.0,0.0,0.0,-4.1933,-4.1997,-4.2221,-4.2738,-4.2769,-4.2769,-4.2769,-4.335,-4.3977,-4.4615,-4.4615,-4.4615,-4.4615,-4.4615,-4.4615,-4.4615,-4.4615,-4.4615,-4.4615,-4.4615,-4.4615,-4.4615,-4.4615,-4.4615,-4.4615,0.0,0.0,0.0,0.0,0.0,0.0,0.0,0.0,0.0,-4.4615,-4.4615,-4.4615,-4.4615,-4.4615,-4.4615,-4.4615,-4.4615,0.0,-4.4615,0.0,0.0,0.0,-4.4615,0.0,0.0,0.0,-4.4615,0.0,0.0,0.0,0.0,0.0,0.0,0.0,0.0,0.0,0.0,0.0,0.0,0.0,0.0,0.0,0.0,0.0,0.0,0.0,-4.9001,-4.9001,-4.9001,-4.9001,-4.9001,-4.9001,-4.9001,-4.9001,-4.9001,-4.9001,-4.9001,-4.9001,-4.9212,-4.9286,-4.9316,-4.9521,-4.9759,-5.0017,-5.0294,-5.0728,-5.1185,-5.1185,-5.1021,-5.0779,-5.0779,-5.0732,-5.0683,0.0,0.0,0.0,0.0,0.0,0.0,0.0,0.0,-3.9388,-3.9388,-3.9388,-3.9388,0.0,0.0,0.0,0.0,0.0,0.0,-4.1445,-4.1478,-4.1642,-4.1997,-4.1997,-4.1997,-4.1997,-4.2847,-4.3562,-4.4093,-4.4412,-4.4615,-4.4615,-4.4615,-4.4615,-4.4615,-4.4615,-4.4615,-4.4615,-4.4615,-4.4615,-4.4615,-4.4615,-4.4615,-4.4615,0.0,0.0,0.0,0.0,0.0,0.0,0.0,0.0,0.0,-4.4615,-4.4615,-4.4615,-4.4615,-4.4615,-4.4615,-4.4615,-4.4615,0.0,-4.4615,-4.4615,-4.4615,-4.4615,0.0,0.0,0.0,0.0,0.0,0.0,0.0,0.0,0.0,0.0,0.0,0.0,0.0,0.0,0.0,0.0,0.0,0.0,0.0,0.0,0.0,0.0,0.0,0.0,-4.9001,-4.9001,-4.9001,-4.9001,-4.9001,-4.9001,-4.9001,-4.9001,-4.9001,-4.9001,-4.9001,-4.9001,-4.9001,-4.9001,-4.9001,-4.9001,-4.9001,-4.9035,-4.9475,-4.9932,-5.0338,-5.0338,-5.005,-4.9661,-4.9661,-4.9647,-4.9593,0.0,0.0,-3.9388,-3.9388,0.0,0.0,0.0,0.0,-3.9388,-3.9388,-3.9388,-3.9388,0.0,0.0,0.0,0.0,0.0,0.0,-4.0535,-4.0588,-4.0961,-4.1739,-4.1772,-4.1804,-4.1869,-4.2645,-4.3108,-4.3169,-4.4121,-4.4542,-4.4485,-4.457,-4.4575,-4.4587,-4.4671,-4.475,-4.4801,-4.4801,-4.4801,-4.4801,-4.4801,-4.4801,-4.4801,-4.4801,0.0,0.0,0.0,0.0,0.0,0.0,0.0,0.0,-4.4615,-4.4615,-4.4615,-4.4615,-4.4615,-4.4615,-4.4615,0.0,0.0,-4.4615,-4.4615,0.0,-4.4615,0.0,0.0,0.0,0.0,0.0,0.0,0.0,0.0,0.0,0.0,0.0,0.0,0.0,0.0,0.0,0.0,0.0,0.0,0.0,0.0,0.0,0.0,0.0,0.0,-4.9001,-4.9001,-4.9001,-4.9001,-4.9001,-4.9001,-4.9001,-4.9001,-4.9001,-4.9001,-4.9001,-4.9001,-4.9001,-4.9001,-4.9001,-4.9001,-4.9001,-4.9001,-4.9001,-4.9001,-4.9001,-4.9001,-4.9001,-4.9001,-4.9001,-4.9001,-4.9001,0.0,0.0,-3.9388,-3.9388,0.0,0.0,0.0,0.0,0.0,0.0,0.0,0.0,0.0,0.0,0.0,0.0,0.0,0.0,-3.9681,-3.9666,-3.9773,-3.9935,-3.997,-4.0289,-4.0979,-4.118,-4.1593,-4.2284,-4.3844,-4.4253,-4.3591,-4.4281,-4.4527,-4.445,-4.5156,-4.5771,-4.6312,-4.6312,-4.6312,-4.6312,-4.6312,-4.6312,-4.6312,-4.6312,-4.5957,0.0,0.0,0.0,0.0,0.0,0.0,0.0,-4.4615,-4.4615,-4.4615,-4.4615,-4.4615,-4.4615,-4.4615,-4.4615,0.0,0.0,-4.4615,-4.4615,-4.4615,0.0,0.0,0.0,0.0,0.0,0.0,0.0,0.0,0.0,0.0,0.0,0.0,0.0,0.0,0.0,0.0,0.0,0.0,0.0,0.0,0.0,0.0,0.0,-4.9001,-4.9001,-4.9001,-4.9001,-4.9001,-4.9001,-4.9001,-4.9001,-4.9001,0.0,-4.9001,-4.9001,-4.9001,-4.9001,-4.9001,-4.9001,-4.9001,-4.9001,-4.9001,-4.9001,-4.9001,-4.9001,-4.9001,-4.9001,-4.9001,-4.9001,-4.9001,-4.9001,0.0,0.0,0.0,0.0,0.0,0.0,0.0,0.0,0.0,0.0,0.0,0.0,0.0,0.0,0.0,0.0,0.0,0.0,-3.9888,-4.0187,-4.0367,-4.0367,-4.0367,-4.0558,-4.1041,-4.1437,-4.189,-4.2354,-4.3652,-4.4146,-4.3847,-4.462,-4.5183,-4.5581,-4.6018,-4.643,-4.6786,-4.6786,-4.6786,-4.6786,-4.6786,-4.6786,-4.6786,-4.6786,-4.6549,-4.6177,-4.5838,0.0,0.0,0.0,0.0,0.0,0.0,0.0,-4.4615,-4.4615,-4.4615,-4.4615,-4.4615,0.0,0.0,-4.4615,0.0,0.0,0.0,0.0,0.0,0.0,0.0,0.0,0.0,0.0,0.0,0.0,0.0,0.0,0.0,0.0,0.0,0.0,0.0,0.0,0.0,0.0,0.0,0.0,0.0,-4.9001,-4.9001,-4.9001,-4.9001,-4.9001,-4.9001,-4.9001,-4.9001,-4.9001,-4.9001,-4.9001,-4.9001,-4.9001,-4.9001,-4.9001,-4.9001,-4.9001,-4.9001,-4.9001,-4.9001,-4.9001,-4.9001,-4.9001,-4.9001,-4.9001,-4.9001,-4.9001,-4.9001,-4.9001,0.0,0.0,0.0,0.0,0.0,0.0,0.0,0.0,0.0,0.0,0.0,0.0,0.0,0.0,0.0,0.0,0.0,0.0,-4.0561,-4.107,-4.1422,-4.1422,-4.1422,-4.1422,-4.1422,-4.2108,-4.2494,-4.2494,-4.3306,-4.3932,-4.4298,-4.5043,-4.5812,-4.6549,-4.6853,-4.695,-4.6962,-4.7098,-4.7175,-4.7175,-4.7175,-4.7175,-4.7175,-4.7175,-4.709,-4.6904,-4.6312,-4.5923,-4.5618,-4.4993,0.0,0.0,0.0,0.0,-4.4615,-4.4615,-4.4615,-4.4615,-4.4615,0.0,-4.4615,-4.4615,-4.4615,0.0,0.0,0.0,0.0,0.0,0.0,0.0,0.0,0.0,0.0,0.0,0.0,0.0,0.0,0.0,0.0,0.0,0.0,0.0,0.0,0.0,0.0,0.0,0.0,-4.9001,-4.9001,-4.9001,-4.9001,-4.9001,-4.9001,-4.9001,-4.9001,-4.9001,-4.9001,-4.9001,-4.9001,-4.9001,-4.9001,-4.9001,-4.9001,-4.9001,-4.9001,-4.9001,-4.9001,-4.9001,-4.9001,-4.9001,-4.9001,-4.9001,-4.9001,-4.9001,-4.9001,-4.9001,0.0,0.0,0.0,0.0,0.0,0.0,0.0,0.0,0.0,0.0,-4.1115,-4.1115,0.0,0.0,-4.1115,-4.1115,-4.119,-4.1287,-4.1287,0.0,0.0,-4.1422,-4.1422,-4.1422,-4.1422,-4.152,-4.1558,-4.1558,-4.2266,-4.305,-4.3917,-4.4934,-4.5391,-4.5465,-4.7039,-4.7673,-4.7554,-4.8354,-4.8714,-4.8714,-4.8714,-4.8714,-4.8714,-4.8714,-4.8325,-4.772,-4.7635,-4.6786,-4.5686,-4.5602,-4.5128,0.0,0.0,0.0,-4.4615,-4.4615,-4.4615,-4.4615,0.0,0.0,-4.4615,0.0,0.0,0.0,0.0,0.0,0.0,0.0,0.0,0.0,0.0,0.0,0.0,0.0,0.0,0.0,0.0,0.0,0.0,0.0,0.0,0.0,0.0,0.0,0.0,0.0,-4.9001,-4.9001,-4.9001,-4.9001,-4.9001,-4.9001,-4.9001,-4.9001,-4.9001,-4.9001,-4.9001,-4.9001,-4.9001,-4.9001,-4.9001,-4.9001,-4.9001,-4.9001,-4.9001,-4.9001,-4.9001,-4.9001,-4.9001,-4.9001,-4.9001,-4.9001,-4.9001,-4.9001,-4.9001,-4.9001,0.0,0.0,0.0,0.0,0.0,0.0,0.0,0.0,0.0,0.0,0.0,-4.1422,-4.1422,-4.1422,-4.1422,-4.1422,-4.1752,-4.2087,-4.2447,-4.2476,-4.2476,-4.2476,-4.2476,-4.2476,-4.2476,-4.2476,-4.2476,-4.2476,-4.2761,-4.341,-4.4369,-4.4839,-4.5576,-4.6598,-4.7372,-4.7973,-4.8401,-4.8829,-4.9001,-4.9001,-4.9001,-4.9001,-4.9001,-4.9001,-4.8798,-4.8477,-4.8041,-4.7225,-4.6244,-4.5838,-4.5213,-4.4615,-4.4615,0.0,0.0,0.0,-4.4615,0.0,-4.4615,-4.4615,-4.4615,0.0,0.0,0.0,0.0,0.0,0.0,0.0,0.0,0.0,0.0,0.0,0.0,0.0,0.0,0.0,0.0,0.0,0.0,0.0,0.0,0.0,0.0,0.0,0.0,0.0,-4.9001,-4.9001,-4.9001,-4.9001,-4.9001,-4.9001,-4.9001,-4.9001,-4.9001,-4.9001,-4.9001,-4.9001,-4.9001,-4.9001,-4.9001,-4.9001,-4.9001,-4.9001,-4.9001,-4.9001,-4.9001,-4.9001,-4.9001,-4.9001,-4.9001,-4.9001,-4.9001,-4.9001,-4.9001,-4.9001,0.0,0.0,0.0,0.0,0.0,0.0,0.0,0.0,0.0,0.0,0.0,-4.1878,-4.1878,0.0,0.0,0.0,-4.2327,-4.2821,-4.326,-4.329,-4.329,-4.329,-4.329,-4.329,-4.329,-4.329,-4.329,-4.329,-4.329,-4.3669,-4.4412,-4.4412,-4.5322,-4.69,-4.7389,-4.7982,-4.8656,-4.8892,-4.9001,-4.9001,-4.9001,-4.9001,-4.9001,-4.9001,-4.9001,-4.8934,-4.8392,-4.7597,-4.6718,-4.616,-4.5348,-4.4615,-4.4615,-4.4615,0.0,0.0,0.0,0.0,0.0,0.0,0.0,0.0,0.0,0.0,0.0,0.0,0.0,0.0,0.0,0.0,0.0,0.0,0.0,0.0,0.0,0.0,0.0,0.0,0.0,0.0,0.0,0.0,0.0,0.0,0.0,0.0,-4.9001,-4.9001,-4.9001,-4.9001,-4.9001,-4.9001,-4.9001,-4.9001,-4.9001,-4.9001,-4.9001,-4.9001,-4.9001,-4.9001,-4.9001,-4.9001,-4.9001,-4.9001,-4.9001,-4.9001,-4.9001,-4.9001,-4.9001,-4.9001,-4.9001,-4.9001,-4.9001,-4.9001,-4.9001,-4.9001,0.0,0.0,0.0,0.0,0.0,0.0,0.0,0.0,0.0,0.0,0.0,-4.3185,-4.3185,-4.3185,-4.3185,-4.3185,-4.323,-4.326,-4.329,-4.329,-4.329,-4.329,-4.329,0.0,-4.329,-4.329,-4.329,-4.329,-4.329,-4.3329,-4.3369,-4.3369,-4.3966,-4.502,-4.6831,-4.7622,-4.7721,-4.8608,-4.9001,-4.9001,-4.9001,-4.9001,-4.9001,-4.9001,-4.9001,-4.9001,-4.8968,-4.802,-4.6786,-4.6752,-4.5799,-4.4615,-4.4615,-4.4615,-4.4615,0.0,0.0,0.0,0.0,0.0,0.0,0.0,0.0,0.0,0.0,0.0,0.0,0.0,0.0,0.0,0.0,0.0,0.0,0.0,0.0,0.0,0.0,0.0,0.0,0.0,0.0,0.0,0.0,0.0,0.0,0.0,-4.9001,-4.9001,-4.9001,-4.9001,-4.9001,-4.9001,-4.9001,-4.9001,-4.9001,-4.9001,-4.9001,-4.9001,-4.9001,-4.9001,-4.9001,-4.9001,-4.9001,-4.9001,-4.9001,-4.9001,-4.9001,-4.9001,-4.9001,-4.9001,-4.9001,-4.9001,-4.9001,-4.9001,-4.9001,-4.9001,0.0,0.0,0.0,0.0,0.0,0.0,0.0,0.0,0.0,0.0,0.0,0.0,0.0,-4.329,-4.329,-4.329,-4.329,-4.329,-4.329,-4.329,-4.329,-4.329,-4.329,-4.329,-4.329,-4.329,-4.329,-4.329,-4.329,-4.329,-4.329,-4.329,-4.3849,-4.4849,-4.6119,-4.6696,-4.6815,-4.837,-4.8656,-4.8144,-4.8767,-4.9001,-4.9001,-4.9001,-4.9001,0.0,0.0,0.0,0.0,-4.6955,-4.6126,-4.5127,-4.4098,-4.3785,-4.3785,-4.3785,0.0,0.0,0.0,0.0,0.0,0.0,0.0,0.0,0.0,0.0,0.0,0.0,0.0,0.0,0.0,0.0,0.0,0.0,0.0,0.0,0.0,0.0,0.0,0.0,0.0,0.0,0.0,0.0,0.0,0.0,0.0,-4.8511,-4.8984,-4.9001,-4.9001,-4.9001,-4.9001,-4.9001,-4.9001,-4.9001,-4.9001,-4.9001,-4.9001,-4.9001,-4.9001,-4.9001,-4.9001,-4.9001,-4.9001,-4.9001,-4.9001,-4.9001,-4.9001,-4.9001,-4.9001,-4.9001,-4.9001,-4.9001,-4.9001,-4.9001,0.0,0.0,0.0,-4.329,0.0,-4.329,-4.329,-4.329,-4.329,-4.329,0.0,0.0,0.0,0.0,-4.329,-4.329,-4.329,-4.329,-4.329,-4.329,-4.329,-4.329,-4.329,-4.329,-4.329,-4.329,-4.329,-4.329,-4.329,-4.329,-4.329,-4.329,-4.3669,-4.4358,-4.5618,-4.6384,-4.6747,-4.8015,-4.837,-4.8112,-4.875,-4.9001,-4.9001,0.0,0.0,0.0,0.0,0.0,0.0,0.0,0.0,0.0,0.0,0.0,0.0,0.0,0.0,0.0,-4.2363,0.0,0.0,0.0,0.0,0.0,0.0,0.0,0.0,0.0,0.0,0.0,0.0,0.0,0.0,0.0,0.0,0.0,0.0,0.0,0.0,0.0,0.0,0.0,0.0,0.0,0.0,0.0,0.0,0.0,-4.8612,-4.8883,-4.9001,-4.9001,-4.9001,-4.9001,-4.9001,-4.9001,-4.9001,-4.9001,-4.9001,-4.9001,-4.9001,-4.9001,-4.9001,-4.9001,-4.9001,-4.9001,-4.9001,-4.9001,-4.9001,-4.9001,-4.9001,-4.9001,-4.9001,-4.9001,-4.9001,-4.9001,-4.329,-4.329,-4.329,-4.329,-4.329,-4.329,-4.329,-4.329,-4.329,-4.329,0.0,0.0,0.0,0.0,0.0,-4.329,-4.329,-4.329,-4.329,-4.329,-4.329,-4.329,-4.329,-4.329,-4.329,-4.329,-4.329,-4.329,-4.329,-4.329,-4.329,-4.329,-4.329,-4.3354,-4.529,-4.6643,-4.7523,-4.7622,-4.8129,-4.8923,0.0,-4.897,-4.897,0.0,0.0,0.0,-4.897,-4.8041,0.0,-4.6727,0.0,0.0,0.0,0.0,0.0,0.0,0.0,0.0,0.0,0.0,0.0,0.0,0.0,0.0,0.0,0.0,0.0,0.0,0.0,0.0,0.0,0.0,0.0,0.0,0.0,0.0,0.0,0.0,0.0,0.0,0.0,0.0,0.0,0.0,0.0,0.0,-4.7445,-4.7838,-4.7889,-4.8612,-4.9001,-4.9001,-4.9001,-4.9001,-4.9001,-4.9001,-4.9001,-4.9001,-4.9001,-4.9001,-4.9001,-4.9001,-4.9001,-4.9001,-4.9001,-4.9001,-4.9001,-4.9001,-4.9001,-4.9001,-4.9001,-4.9001,-4.9001,-4.9001,-4.9001,-4.9001,-4.329,-4.329,-4.329,-4.329,-4.329,-4.329,-4.329,-4.329,-4.329,0.0,0.0,0.0,-4.329,-4.329,-4.329,-4.329,-4.329,-4.329,-4.329,-4.329,-4.329,-4.329,-4.329,-4.329,-4.329,-4.329,-4.329,-4.329,-4.329,-4.329,-4.329,-4.329,-4.329,-4.3329,-4.3873,-4.4668,-4.5722,-4.7737,0.0,-4.7088,-4.8433,-4.8576,0.0,0.0,0.0,0.0,0.0,-4.7717,-4.7106,0.0,-4.4835,-4.4532,0.0,0.0,0.0,0.0,0.0,0.0,-4.0588,0.0,0.0,0.0,0.0,0.0,-4.192,-4.1832,0.0,0.0,0.0,0.0,0.0,0.0,0.0,0.0,0.0,0.0,0.0,0.0,0.0,0.0,0.0,0.0,0.0,0.0,0.0,0.0,-4.6194,-4.6786,-4.7838,-4.8612,-4.9001,-4.9001,-4.9001,-4.9001,-4.9001,-4.9001,-4.9001,-4.9001,-4.9001,-4.9001,-4.9001,-4.9001,-4.9001,-4.9001,-4.9001,-4.9001,-4.9001,-4.9001,-4.9001,-4.9001,-4.9001,-4.9001,-4.9001,-4.9001,-4.9001,-4.9001,-4.329,-4.329,-4.329,-4.329,-4.329,-4.329,-4.329,-4.329,-4.329,0.0,0.0,0.0,-4.329,-4.329,-4.329,-4.329,-4.329,-4.329,-4.329,-4.329,-4.329,-4.329,-4.329,-4.329,-4.329,-4.329,-4.329,-4.329,-4.329,-4.329,-4.329,-4.329,-4.329,-4.3329,-4.3747,-4.4259,-4.4909,-4.6968,0.0,0.0,-4.8401,0.0,0.0,-4.8798,-4.8767,0.0,0.0,0.0,-4.6881,-4.5101,-4.4209,0.0,0.0,0.0,0.0,0.0,0.0,0.0,0.0,0.0,0.0,0.0,0.0,0.0,-4.0893,-4.0705,-4.0542,0.0,0.0,0.0,0.0,0.0,0.0,0.0,0.0,0.0,0.0,0.0,0.0,0.0,0.0,0.0,0.0,-4.4615,-4.4784,-4.5213,-4.5534,-4.621,-4.7394,-4.8156,-4.8545,-4.8545,-4.8849,-4.9001,-4.9001,-4.9001,-4.9001,-4.9001,-4.9001,-4.9001,-4.9001,-4.9001,-4.9001,-4.9001,-4.9001,-4.9001,-4.9001,-4.9001,-4.9001,-4.9001,-4.9001,-4.9001,-4.9001,-4.9001,-4.9001,-4.9001,0.0,-4.329,-4.329,-4.329,-4.329,-4.329,-4.329,-4.329,-4.329,0.0,-4.329,-4.329,-4.329,-4.329,-4.329,-4.329,-4.329,-4.329,-4.329,-4.329,-4.329,-4.329,-4.329,-4.329,-4.329,-4.329,-4.329,-4.329,-4.329,-4.329,-4.329,-4.329,-4.329,-4.3329,-4.422,-4.4624,-4.4699,-4.5634,0.0,-4.7523,-4.8482,-4.8829,0.0,0.0,-4.8401,-4.7589,-4.7489,-4.6946,-4.6158,-4.525,-4.3493,0.0,0.0,0.0,0.0,0.0,-3.9388,0.0,0.0,0.0,0.0,0.0,0.0,0.0,-3.9502,-3.9185,-3.9133,0.0,0.0,0.0,0.0,0.0,0.0,0.0,0.0,0.0,0.0,0.0,0.0,0.0,0.0,0.0,-4.4598,-4.4615,-4.4615,-4.4615,-4.528,-4.5991,-4.6633,-4.7394,-4.7804,-4.7889,-4.8545,-4.8917,-4.9001,-4.9001,-4.9001,-4.9001,-4.9001,-4.9001,-4.9001,-4.9001,-4.9001,-4.9001,-4.9001,-4.9001,-4.9001,-4.9001,-4.9001,-4.9001,-4.9001,-4.9001,-4.9001,-4.9001,-4.9001,-4.9001,-4.329,-4.329,-4.329,-4.329,-4.329,-4.329,-4.329,-4.329,-4.329,-4.329,-4.329,-4.329,-4.329,-4.329,-4.329,-4.329,-4.329,-4.329,-4.329,-4.329,-4.329,-4.329,-4.329,-4.329,-4.329,-4.329,-4.329,-4.329,-4.329,-4.329,-4.329,-4.329,-4.329,-4.329,-4.3527,-4.3591,-4.3669,-4.4646,0.0,-4.6574,-4.7489,0.0,-4.795,-4.8719,-4.8401,-4.7523,-4.673,-4.5897,-4.5018,-4.4252,-4.2846,-4.1444,0.0,0.0,0.0,0.0,0.0,0.0,0.0,0.0,0.0,0.0,0.0,0.0,-3.8767,-3.8341,-3.7957,0.0,0.0,0.0,0.0,0.0,0.0,0.0,0.0,0.0,0.0,0.0,0.0,0.0,0.0,0.0,-4.4547,-4.4615,-4.4615,-4.4615,-4.528,-4.5771,-4.5906,-4.6616,-4.7293,-4.7872,-4.8024,-4.8409,-4.9001,-4.9001,-4.9001,-4.9001,-4.9001,-4.9001,-4.9001,-4.9001,-4.9001,-4.9001,-4.9001,-4.9001,-4.9001,-4.9001,-4.9001,-4.9001,-4.9001,-4.9001,-4.9001,-4.9001,-4.9001,-4.9001,-4.3783,-4.3514,-4.329,-4.329,-4.329,-4.3409,-4.3738,-4.3783,-4.3902,-4.4272,-4.4317,-4.4317,-4.4317,-4.4317,-4.4317,-4.4317,-4.4317,-4.4317,-4.4317,-4.3962,-4.3783,-4.3783,-4.3469,-4.329,-4.329,-4.329,-4.329,-4.329,-4.329,-4.329,-4.329,-4.329,-4.329,-4.329,-4.329,-4.329,-4.3329,0.0,-4.4608,-4.5634,-4.702,0.0,-4.7655,-4.8112,-4.7423,-4.6134,-4.567,-4.4893,-4.4059,-4.4185,-4.3197,0.0,0.0,-4.1299,-4.0337,0.0,-3.9679,-3.9388,0.0,0.0,0.0,-3.9388,0.0,0.0,0.0,-3.8317,-3.7748,0.0,0.0,0.0,0.0,0.0,0.0,0.0,0.0,0.0,0.0,0.0,0.0,0.0,0.0,0.0,-4.343,-4.3775,-4.4164,-4.4581,-4.4925,-4.5145,-4.5145,-4.5838,-4.643,-4.6802,-4.7175,-4.7716,-4.846,-4.846,-4.8646,-4.9001,-4.9001,-4.9001,-4.9001,-4.9001,-4.9001,-4.9001,-4.9001,-4.9001,-4.9001,-4.9001,-4.9001,-4.9001,-4.9001,-4.9001,-4.9001,-4.9001,-4.9001,-4.9001,-4.4526,-4.4077,-4.3678,-4.3678,-4.3678,-4.3883,-4.4421,-4.4496,-4.4691,-4.5229,-4.5289,-4.5289,-4.5289,-4.5289,-4.5289,-4.5289,-4.5185,-4.5155,-4.5289,-4.4676,-4.4317,-4.4317,-4.3768,-4.3424,-4.329,-4.329,-4.329,-4.329,-4.329,-4.329,-4.329,-4.329,-4.329,-4.329,-4.329,-4.329,0.0,0.0,0.0,-4.4909,0.0,-4.7172,-4.734,-4.734,-4.6276,-4.4774,-4.4586,-4.4004,-4.3433,-4.4259,-4.3639,-4.256,-4.244,-4.1677,0.0,0.0,0.0,0.0,0.0,0.0,0.0,0.0,0.0,-3.8717,0.0,0.0,0.0,0.0,0.0,0.0,0.0,0.0,0.0,0.0,0.0,0.0,0.0,0.0,0.0,0.0,0.0,0.0,0.0,-4.2728,-4.349,-4.4316,-4.4356,-4.4412,-4.4598,-4.5162,-4.5551,-4.5703,-4.6278,-4.6938,-4.7699,-4.7821,-4.8206,-4.8798,-4.8934,-4.9001,-4.9001,-4.9001,-4.9001,-4.9001,-4.9001,-4.9001,-4.9001,-4.9001,-4.9001,-4.9001,-4.9001,-4.9001,-4.9001,-4.9001,-4.9001,-4.9001,-4.5304,-4.5125,-4.5065,-4.5065,-4.5065,-4.5095,-4.517,-4.5185,-4.5214,-4.5289,-4.5289,-4.5289,-4.5289,-4.5289,-4.5289,0.0,0.0,0.0,-4.5259,0.0,-4.4317,-4.4317,-4.4242,-4.3888,-4.3305,-4.329,-4.329,-4.329,-4.329,-4.329,-4.329,-4.329,-4.329,-4.329,-4.329,0.0,0.0,0.0,-4.3888,0.0,-4.502,-4.5597,0.0,-4.6349,-4.5706,-4.4662,-4.3771,-4.3409,-4.3329,0.0,-4.3364,-4.312,0.0,-4.2306,-4.1946,0.0,0.0,0.0,0.0,0.0,0.0,0.0,-3.9328,0.0,0.0,0.0,0.0,0.0,0.0,0.0,0.0,0.0,0.0,0.0,0.0,0.0,0.0,0.0,0.0,0.0,0.0,0.0,0.0,-4.1935,-4.2675,-4.3483,-4.3489,-4.3785,-4.4542,-4.4682,-4.501,-4.5686,-4.5788,-4.6177,-4.6921,-4.7581,-4.7922,-4.8024,-4.8697,-4.9001,-4.9001,-4.9001,-4.9001,-4.9001,-4.9001,-4.9001,-4.9001,-4.9001,-4.9001,-4.9001,-4.9001,-4.9001,-4.9001,-4.9001,-4.9001,-4.9001,-4.6022,-4.5574,-4.5289,-4.5289,-4.5289,-4.5424,-4.5828,-4.6217,-4.6456,-4.6456,-4.6456,-4.6456,0.0,0.0,0.0,0.0,0.0,-4.6172,0.0,0.0,-4.5442,-4.5442,-4.4736,-4.4182,-4.3873,-4.3484,-4.329,-4.329,-4.329,-4.329,-4.329,-4.329,-4.329,-4.329,-4.329,0.0,-4.329,0.0,-4.3551,0.0,0.0,0.0,0.0,-4.5174,-4.4781,-4.3888,-4.3448,-4.329,-4.329,0.0,-4.329,0.0,0.0,0.0,0.0,0.0,0.0,0.0,0.0,0.0,0.0,0.0,0.0,0.0,-3.905,0.0,-3.8242,0.0,0.0,0.0,0.0,0.0,0.0,0.0,0.0,0.0,0.0,0.0,0.0,0.0,0.0,0.0,0.0,0.0,0.0,0.0,-4.2265,-4.2528,-4.3838,-4.3858,-4.4214,-4.5043,-4.5043,-4.5415,-4.616,-4.6481,-4.7043,-4.7889,-4.8193,-4.8595,-4.9001,-4.9001,-4.9001,-4.9001,-4.9001,-4.9001,-4.9001,-4.9001,-4.9001,-4.9001,-4.9001,-4.9001,-4.9001,-4.9001,-4.9001,-4.9001,-4.6696,-4.6187,-4.5843,-4.5843,-4.5843,-4.6007,-4.6516,-4.6995,-4.7309,-4.7309,-4.7309,0.0,-4.7309,-4.7309,0.0,0.0,-4.7145,-4.7115,0.0,0.0,-4.6204,0.0,0.0,0.0,0.0,-4.3708,-4.3469,-4.329,-4.329,-4.329,-4.329,-4.329,-4.329,-4.329,0.0,-4.329,-4.329,0.0,-4.329,-4.3305,-4.3484,-4.3663,-4.3933,-4.444,-4.42,-4.3559,-4.3559,-4.3439,-4.329,-4.329,-4.329,0.0,-4.329,0.0,0.0,0.0,0.0,0.0,-4.0846,0.0,0.0,0.0,0.0,0.0,0.0,0.0,0.0,0.0,0.0,0.0,0.0,0.0,0.0,0.0,0.0,0.0,0.0,0.0,0.0,0.0,0.0,0.0,0.0,0.0,0.0,0.0,0.0,-4.1073,-4.2665,-4.292,-4.3405,-4.4224,-4.4485,-4.4869,-4.5382,-4.5366,-4.5971,-4.72,-4.7432,-4.7919,-4.8608,-4.8892,-4.9001,-4.9001,-4.9001,-4.9001,-4.9001,-4.9001,-4.9001,-4.9001,-4.9001,-4.9001,-4.9001,-4.9001,-4.9001,-4.9001,-4.7279,-4.7249,0.0,-4.7249,-4.7249,-4.7249,-4.7264,-4.7294,-4.7309,-4.7309,0.0,0.0,0.0,0.0,0.0,0.0,0.0,-4.6636,-4.7264,0.0,-4.6022,0.0,0.0,-4.5308,0.0,0.0,-4.3932,-4.329,-4.329,-4.329,-4.329,-4.329,-4.329,-4.329,-4.329,-4.329,-4.329,-4.329,-4.329,-4.3349,-4.3992,-4.4661,-4.517,0.0,-4.4287,-4.4287,-4.4287,0.0,0.0,-4.329,-4.329,0.0,0.0,0.0,0.0,0.0,0.0,0.0,0.0,0.0,0.0,-4.0367,0.0,0.0,0.0,0.0,-3.92,0.0,0.0,0.0,0.0,0.0,0.0,0.0,0.0,0.0,0.0,0.0,0.0,0.0,0.0,0.0,0.0,0.0,0.0,0.0,0.0,0.0,-4.1003,-4.186,-4.2637,-4.332,-4.4167,-4.4615,-4.4649,-4.4501,-4.4801,-4.548,-4.6285,-4.6995,-4.7688,-4.8576,-4.9001,-4.9001,-4.9001,-4.9001,-4.9001,-4.9001,-4.9001,-4.9001,-4.9001,-4.9001,-4.9001,-4.9001,-4.9001,-4.9001,-4.7309,0.0,0.0,0.0,0.0,-4.7309,-4.7309,-4.7309,-4.7309,0.0,0.0,0.0,0.0,-4.7309,-4.7309,0.0,0.0,-4.707,-4.7294,-4.71,0.0,0.0,0.0,-4.5965,0.0,0.0,0.0,0.0,-4.3499,-4.329,-4.329,-4.329,-4.329,-4.329,0.0,-4.329,0.0,0.0,0.0,0.0,0.0,-4.5364,-4.5903,0.0,-4.496,-4.49,-4.4466,-4.4167,0.0,-4.3439,-4.329,-4.329,-4.329,-4.329,-4.3245,-4.3075,-4.3015,0.0,0.0,0.0,-4.1527,-4.0621,0.0,0.0,0.0,0.0,0.0,0.0,0.0,0.0,0.0,0.0,0.0,0.0,0.0,0.0,0.0,0.0,0.0,0.0,0.0,0.0,0.0,0.0,0.0,0.0,-3.7591,0.0,-4.0175,-4.0467,-4.1418,-4.3243,-4.3591,-4.3756,-4.3756,-4.3704,-4.3752,-4.3881,-4.4609,-4.5337,-4.605,-4.6808,-4.7138,-4.7172,-4.7803,-4.808,-4.8112,-4.875,-4.8639,-4.808,-4.808,-4.808,-4.8161,-4.875,-4.9001,-4.9001,-4.7309,-4.7309,0.0,0.0,0.0,-4.7309,-4.7309,-4.7309,0.0,0.0,-4.7309,0.0,-4.7309,0.0,-4.7309,0.0,-4.7309,-4.7309,-4.7309,-4.7309,0.0,-4.6965,-4.677,0.0,0.0,0.0,0.0,0.0,0.0,-4.329,-4.329,-4.329,-4.329,-4.329,0.0,-4.329,-4.3305,0.0,-4.3928,0.0,0.0,-4.6067,0.0,0.0,-4.5858,-4.5603,0.0,-4.4721,-4.4242,-4.3783,-4.3484,-4.329,-4.329,-4.329,-4.329,-4.329,-4.329,-4.32,-4.2821,-4.2575,0.0,-4.1347,-4.0741,0.0,-3.9858,0.0,0.0,0.0,0.0,0.0,0.0,0.0,0.0,0.0,0.0,0.0,0.0,-3.5504,0.0,0.0,0.0,0.0,0.0,0.0,0.0,-3.692,-3.6449,-3.6899,0.0,0.0,-4.0162,-4.196,-4.2546,-4.2847,-4.2847,-4.252,-4.2446,-4.2606,-4.33,-4.4015,-4.4747,-4.5748,-4.6208,-4.6244,-4.685,-4.7088,-4.7155,-4.7754,-4.7655,-4.7088,-4.7088,-4.7088,-4.7205,-4.8161,-4.8513,-4.8513,-4.7309,-4.7309,0.0,0.0,-4.7309,0.0,0.0,0.0,-4.7309,0.0,-4.7309,-4.7309,-4.7309,-4.7309,-4.7309,-4.7309,-4.7309,-4.7309,-4.7309,-4.7309,0.0,0.0,-4.698,-4.6696,-4.5424,0.0,0.0,0.0,0.0,0.0,-4.3349,-4.3305,-4.329,-4.329,-4.3319,0.0,-4.3379,-4.4077,-4.4392,-4.4526,-4.5843,-4.6741,-4.7309,-4.7309,-4.692,-4.6324,-4.6294,-4.5484,-4.4362,-4.4332,-4.3828,-4.329,-4.329,-4.329,-4.329,-4.329,-4.329,-4.329,-4.329,-4.288,-4.244,-4.241,-4.1452,0.0,0.0,0.0,-3.9454,0.0,0.0,0.0,0.0,0.0,0.0,0.0,0.0,0.0,0.0,0.0,0.0,0.0,0.0,0.0,0.0,0.0,-3.5504,-3.5504,-3.5504,-3.5789,0.0,0.0,-3.897,-3.9685,-4.1147,-4.1933,-4.1933,-4.1113,-4.0997,-4.1608,-4.2359,-4.3077,-4.3727,-4.5322,-4.6067,-4.6067,-4.6103,-4.6138,-4.6138,-4.6173,-4.6173,-4.6138,-4.6138,-4.6138,-4.6244,-4.7189,-4.7523,-4.7523,-4.7309,-4.7309,-4.7309,0.0,-4.7309,-4.7309,0.0,0.0,0.0,0.0,-4.7309,-4.7309,-4.7309,-4.7309,-4.7309,-4.7309,-4.7309,0.0,0.0,0.0,0.0,-4.7055,-4.7219,-4.7145,-4.68,-4.6307,0.0,-4.5813,0.0,0.0,-4.4007,-4.3529,-4.329,-4.3319,0.0,0.0,-4.4107,-4.4766,-4.5334,-4.5873,-4.6711,-4.716,-4.7309,0.0,-4.7189,-4.6995,-4.6501,-4.5768,-4.4975,-4.4481,-4.3828,-4.329,-4.329,-4.329,-4.329,-4.329,-4.329,-4.329,-4.329,-4.317,-4.297,-4.2515,-4.2141,-4.1647,0.0,0.0,0.0,0.0,0.0,0.0,0.0,0.0,0.0,0.0,0.0,0.0,0.0,0.0,0.0,-3.5504,0.0,0.0,0.0,0.0,-3.5504,-3.5504,-3.5504,-3.5789,-3.6447,0.0,0.0,-3.9652,-4.0553,-4.1046,-4.1046,-4.0811,-4.0455,-4.0009,-4.1209,-4.1843,-4.204,-4.3404,-4.4036,-4.4074,-4.4818,-4.5153,-4.5227,-4.5905,-4.5798,-4.5153,-4.5153,-4.5153,-4.5248,-4.6224,-4.6574,-4.6574,-4.7309,-4.7309,0.0,-4.7309,0.0,0.0,-4.7309,-4.7309,0.0,-4.7309,-4.7309,0.0,-4.7698,-4.7743,-4.7848,-4.8132,-4.7908,0.0,-4.7743,0.0,0.0,-4.7309,-4.7309,-4.7309,-4.7309,-4.6651,0.0,-4.6279,0.0,0.0,-4.4736,-4.4362,-4.4182,0.0,0.0,-4.4751,0.0,-4.5454,-4.6127,-4.6785,-4.716,-4.7309,0.0,-4.7309,-4.7309,-4.7249,-4.689,-4.6127,-4.5229,-4.487,-4.4122,-4.329,-4.329,-4.329,-4.329,-4.329,-4.329,-4.329,-4.329,-4.329,-4.32,-4.288,-4.262,-4.2201,-4.1467,-4.0816,-4.0292,0.0,-3.9619,-3.9388,0.0,0.0,0.0,0.0,0.0,0.0,0.0,0.0,0.0,0.0,0.0,0.0,0.0,-3.5504,-3.5504,-3.5504,-3.5504,-3.5669,0.0,0.0,0.0,-3.8684,-3.9631,-4.0115,-4.0115,-4.0115,-3.99,-3.9388,-4.0457,-4.11,-4.1414,-4.2447,-4.306,-4.3329,-4.3888,-4.4143,-4.4182,-4.4728,-4.4631,-4.4143,-4.4143,-4.4143,-4.422,-4.4728,-4.5232,-4.5597,-4.7309,0.0,0.0,0.0,0.0,0.0,0.0,-4.7309,0.0,-4.7429,0.0,-4.7683,-4.8341,-4.8416,-4.8685,-4.9269,0.0,-4.8282,-4.8282,-4.7668,-4.7309,-4.7309,-4.7309,-4.7309,-4.7309,-4.6741,0.0,0.0,0.0,-4.5424,-4.5424,-4.5334,0.0,0.0,0.0,0.0,0.0,-4.6202,-4.6785,-4.7309,-4.7309,-4.7309,-4.7309,-4.7309,-4.7309,-4.7309,-4.7309,-4.6441,-4.5289,-4.5289,-4.4421,-4.329,-4.329,-4.329,-4.329,-4.329,-4.329,-4.329,-4.329,-4.329,-4.329,-4.329,-4.291,-4.2515,-4.2425,-4.1512,-4.0606,-4.0442,-3.9948,-3.9514,0.0,0.0,0.0,0.0,0.0,0.0,0.0,0.0,0.0,0.0,0.0,0.0,0.0,0.0,-3.5504,-3.5504,-3.5504,-3.5504,0.0,0.0,0.0,-3.7404,-3.8686,-3.9388,-3.9388,-3.9388,-3.9388,-3.9388,-4.0083,-4.0741,-4.1399,-4.2096,-4.2716,-4.329,-4.329,-4.329,-4.329,-4.329,-4.329,-4.329,-4.329,-4.329,-4.329,-4.329,-4.3849,-4.4586,0.0,0.0,0.0,0.0,0.0,-4.7309,-4.7309,-4.7309,-4.7504,-4.8042,-4.8117,-4.8356,-4.906,-4.9134,-4.9179,-4.9299,-4.8715,0.0,0.0,0.0,0.0,-4.7309,-4.7309,-4.7309,-4.7309,-4.7189,-4.713,0.0,-4.6471,-4.6142,-4.6127,-4.5559,0.0,0.0,0.0,0.0,-4.6965,-4.7085,0.0,-4.7309,-4.7309,-4.7309,-4.7309,-4.7309,-4.7309,-4.7309,-4.7309,-4.6441,-4.5289,-4.5289,-4.4421,-4.329,-4.329,-4.329,-4.329,-4.329,-4.329,-4.329,-4.329,-4.329,-4.329,-4.329,-4.32,-4.3015,-4.2515,-4.2216,-4.1752,-4.0621,-4.0307,-4.0068,-3.9514,0.0,0.0,0.0,0.0,0.0,0.0,0.0,0.0,0.0,0.0,0.0,0.0,0.0,0.0,0.0,0.0,-3.5504,0.0,0.0,0.0,0.0,-3.8686,0.0,0.0,0.0,-3.9388,-3.9388,-4.0083,-4.0741,-4.1399,-4.2096,-4.2716,-4.329,-4.329,-4.329,-4.329,-4.329,-4.329,-4.329,-4.329,-4.329,-4.329,-4.329,-4.3409,-4.3551,0.0,0.0,0.0,0.0,0.0,0.0,0.0,-4.7818,-4.7923,-4.8252,-4.8581,-4.9045,-4.9703,-4.9778,-4.9912,-5.0257,-4.9673,-4.9149,-4.882,-4.8177,-4.7653,-4.7324,-4.7309,0.0,-4.7309,-4.7309,-4.7309,-4.7309,-4.6995,-4.683,-4.683,-4.6501,0.0,0.0,0.0,-4.701,0.0,0.0,0.0,-4.7309,-4.7309,-4.7309,-4.7309,-4.7309,-4.7309,-4.7309,-4.7309,-4.6441,-4.5289,-4.5289,-4.4421,-4.329,-4.329,-4.329,-4.329,-4.329,-4.329,-4.329,-4.329,-4.329,-4.329,-4.329,-4.329,-4.32,-4.294,-4.2635,-4.2126,-4.1115,-4.0636,-4.0202,-3.9508,-3.9155,0.0,0.0,0.0,0.0,0.0,0.0,0.0,0.0,0.0,0.0,0.0,0.0,0.0,0.0,0.0,0.0,0.0,0.0,-3.7404,0.0,0.0,0.0,-3.9388,0.0,-3.9388,-3.9388,-3.9738,-4.0412,-4.1384,-4.1752,-4.2402,-4.329,-4.329,-4.329,-4.329,-4.329,-4.329,-4.329,-4.329,-4.329,-4.329,-4.329,-4.329,-4.329,0.0,-4.7309,0.0,0.0,-4.7519,0.0,-4.8401,-4.8611,-4.8701,-4.8701,-4.9149,-4.9733,-5.033,-5.0405,-5.0614,-5.1169,-5.0569,-4.9957,-4.9359,-4.8656,-4.7997,-4.7339,-4.7309,-4.7309,-4.7309,-4.7309,-4.7309,0.0,-4.7309,-4.7234,-4.71,-4.7234,0.0,0.0,0.0,0.0,0.0,0.0,-4.7309,-4.7309,-4.7309,-4.7309,-4.7309,-4.7309,-4.7309,-4.7294,-4.7145,-4.6322,-4.5274,-4.514,-4.4302,-4.329,-4.329,-4.329,-4.329,-4.329,-4.329,-4.329,-4.329,-4.329,-4.329,-4.329,-4.329,-4.329,-4.329,-4.294,-4.2425,-4.1767,-4.095,-4.0202,-3.9508,-3.9388,0.0,0.0,0.0,0.0,0.0,0.0,0.0,0.0,0.0,0.0,0.0,0.0,0.0,0.0,0.0,-3.5504,-3.5504,-3.6716,-3.7404,0.0,0.0,-3.9388,-3.9388,0.0,-3.9388,-3.9388,-3.9388,-4.0113,-4.1422,-4.1422,-4.2102,-4.329,-4.329,-4.329,-4.329,-4.329,-4.329,-4.329,-4.329,-4.329,-4.329,-4.329,-4.329,-4.329,0.0,0.0,0.0,0.0,0.0,0.0,-4.912,-4.9673,-5.0001,-5.0001,-5.0061,-5.0345,-5.1003,-5.1124,-5.1154,-5.1214,-5.0569,-4.9957,-4.9359,-4.8656,-4.7997,-4.7339,-4.7309,-4.7309,-4.7309,-4.7309,-4.7309,0.0,-4.7309,-4.6995,0.0,0.0,0.0,0.0,0.0,0.0,0.0,-4.7309,-4.7309,-4.7309,-4.7309,-4.7309,-4.7309,-4.7309,-4.7309,-4.7234,-4.6636,-4.5933,-4.5214,-4.4601,-4.3888,-4.329,-4.329,-4.329,-4.329,-4.329,-4.329,-4.329,-4.329,-4.329,-4.329,-4.329,-4.329,-4.329,-4.329,-4.3245,-4.306,-4.244,-4.1265,-4.0202,-3.9508,-3.9388,-3.9394,0.0,0.0,0.0,0.0,0.0,0.0,0.0,0.0,0.0,0.0,-3.5504,0.0,0.0,-3.5504,-3.5504,-3.5504,-3.6716,-3.7404,-3.7404,-3.8686,-3.9388,-3.9388,-3.9388,-3.9388,-3.9388,-3.9388,-4.0113,-4.1422,-4.1422,-4.2102,-4.329,-4.329,-4.329,-4.329,-4.329,-4.329,-4.329,-4.329,-4.329,-4.329,-4.329,-4.329,-4.329,0.0,0.0,0.0,0.0,0.0,0.0,0.0,-5.0016,-5.033,-5.0734,-5.0779,-5.0883,-5.1184,-5.1214,-5.1214,-5.1214,-5.0928,-5.0556,-4.9898,-4.9239,-4.8581,-4.7923,-4.7519,-4.7309,-4.7309,-4.7309,-4.7309,0.0,0.0,0.0,0.0,0.0,0.0,0.0,0.0,-4.7309,-4.7309,-4.7309,-4.7309,-4.7309,-4.7309,-4.7309,-4.7309,-4.7309,-4.7309,-4.7219,-4.6561,-4.5873,-4.52,-4.4541,-4.3828,-4.329,-4.329,-4.329,-4.329,-4.329,-4.329,-4.329,-4.329,-4.329,-4.329,-4.329,-4.329,-4.329,-4.329,-4.329,-4.315,-4.253,-4.1309,-4.0202,-3.9508,-3.9388,-3.9388,-3.9388,0.0,0.0,0.0,0.0,0.0,0.0,0.0,0.0,0.0,0.0,0.0,0.0,0.0,-3.5504,-3.5504,-3.6716,-3.7404,-3.7404,0.0,-3.9388,-3.9388,-3.9388,-3.9388,-3.9388,-3.9388,-4.0113,-4.1422,-4.1422,-4.2102,-4.329,-4.329,-4.329,-4.329,-4.329,-4.329,-4.329,-4.329,-4.329,-4.329,-4.329,-4.329,-4.329,-4.7878,0.0,-4.8641,0.0,-4.9239,-4.9763,-5.039,-5.048,-5.0644,-5.1154,-5.1214,-5.1214,-5.1214,-5.1214,-5.1214,-5.1214,-5.1214,-5.0945,-5.024,-4.9628,-4.9015,-4.8312,-4.7653,0.0,-4.7309,-4.7309,-4.7309,-4.7309,-4.7309,0.0,0.0,0.0,0.0,0.0,-4.7309,-4.7309,-4.7309,-4.7309,-4.7309,-4.7309,-4.7309,-4.7309,-4.7309,-4.7309,-4.7309,-4.7189,-4.6337,-4.5708,-4.517,-4.4317,-4.3678,-4.329,-4.329,-4.329,-4.329,-4.329,-4.329,-4.329,-4.329,-4.329,-4.329,-4.329,-4.329,-4.329,-4.329,-4.329,-4.315,-4.253,-4.1512,-4.0487,-3.9828,-3.9508,-3.9388,-3.9388,0.0,0.0,0.0,0.0,0.0,0.0,-3.7135,-3.6761,-3.6761,0.0,0.0,0.0,0.0,-3.5983,-3.5804,-3.6821,0.0,0.0,0.0,0.0,-3.9388,-3.9388,-3.9388,-3.9388,-3.9388,-4.0113,-4.1384,-4.1788,-4.2462,-4.329,-4.329,-4.329,-4.329,-4.329,-4.329,-4.329,-4.329,-4.329,-4.329,-4.329,-4.329,-4.329,-4.9284,-4.9299,-4.9464,-5.0061,-5.0166,-5.0405,-5.1109,-5.1214,-5.1214,-5.1214,-5.1214,-5.1214,-5.1214,-5.1214,-5.1214,-5.1214,-5.1214,-5.0945,-5.024,-4.9628,-4.9015,0.0,0.0,-4.7309,-4.7309,-4.7309,-4.7309,-4.7309,0.0,0.0,-4.6294,0.0,-4.6681,-4.7309,-4.7309,-4.7309,-4.7309,-4.7309,-4.7309,-4.7309,-4.7309,-4.7309,-4.7309,-4.7309,-4.7309,-4.713,-4.5783,-4.5304,-4.5095,-4.3738,-4.3305,-4.329,-4.329,-4.329,-4.329,-4.329,-4.329,-4.329,-4.329,-4.329,-4.329,-4.329,-4.329,-4.329,-4.329,-4.329,-4.315,-4.253,-4.1871,-4.1175,-4.0502,-3.9858,-3.9388,-3.9388,0.0,0.0,0.0,0.0,0.0,0.0,-3.7808,-3.7404,-3.7404,0.0,0.0,0.0,0.0,0.0,0.0,0.0,0.0,-3.8362,-3.905,0.0,-3.9388,-3.9388,-3.9388,-3.9388,-3.9388,-4.0113,-4.1429,-4.2677,-4.329,-4.329,-4.329,-4.329,-4.329,-4.329,-4.329,-4.329,-4.329,-4.329,-4.329,-4.329,-4.329,-4.329,-4.9314,-4.9628,-4.9987,-5.0166,-5.0569,-5.0928,-5.1184,-5.1214,-5.1214,-5.1214,-5.1214,-5.1214,-5.1214,-5.1214,-5.1214,0.0,-5.1214,-5.1124,0.0,-4.9883,-4.9209,-4.9,-4.7893,-4.7309,-4.7309,-4.7309,-4.7309,-4.7309,0.0,0.0,0.0,-4.6995,-4.7115,-4.7309,-4.7309,-4.7309,-4.7309,-4.7309,-4.7309,-4.7309,-4.7309,-4.7309,-4.7309,-4.7309,-4.7309,-4.713,-4.5783,-4.5289,-4.5095,-4.3738,-4.329,-4.329,-4.329,-4.329,-4.329,-4.329,-4.329,-4.329,-4.329,-4.329,-4.329,-4.329,-4.329,-4.329,-4.329,-4.329,-4.315,-4.253,-4.1871,-4.119,-4.0516,-3.9858,-3.9388,-3.9388,-3.9388,0.0,0.0,0.0,0.0,0.0,-3.8497,-3.8078,-3.8078,-3.7674,0.0,0.0,0.0,0.0,0.0,0.0,0.0,0.0,-3.9065,0.0,-3.9388,-3.9388,-3.9388,-3.9424,-3.9873,-4.0771,-4.2111,-4.294,-4.329,-4.329,-4.329,-4.329,-4.329,-4.329,-4.329,-4.329,-4.329,-4.329,-4.329,-4.329,-4.329,-4.329,-5.0002,-5.0331,-5.0569,-5.0569,-5.0898,-5.1214,-5.1214,-5.1214,-5.1214,-5.1214,-5.1214,-5.1214,-5.1214,-5.1214,0.0,-5.1214,-5.1214,-5.1214,-5.1214,-4.9987,-4.9314,-4.9314,-4.8012,-4.7309,-4.7309,-4.7309,0.0,-4.7309,-4.7309,-4.7309,-4.7309,-4.7309,-4.7309,-4.7309,-4.7309,-4.7309,-4.7309,-4.7309,-4.7309,-4.7309,-4.7309,-4.7309,-4.7309,-4.7309,-4.7309,-4.713,-4.5783,-4.5289,-4.5095,-4.3738,-4.329,-4.329,-4.329,-4.329,-4.329,-4.329,-4.329,-4.329,-4.329,-4.329,-4.329,-4.329,-4.329,-4.329,-4.329,-4.329,-4.317,-4.2821,-4.2207,-4.1587,-4.0891,-4.0232,-3.9709,-3.9454,-3.9388,-3.9388,-3.9388,0.0,0.0,0.0,0.0,0.0,0.0,-3.8407,-3.8167,0.0,0.0,0.0,0.0,0.0,0.0,-3.8766,-3.9185,-3.9388,-3.9388,-3.9388,-3.9544,-3.9798,-4.0711,-4.1602,-4.2425,-4.303,-4.329,-4.329,-4.329,-4.329,-4.329,-4.329,-4.329,-4.329,-4.329,-4.329,-4.329,-4.329,-4.329,-4.329,-5.1214,-5.1214,-5.1214,0.0,-5.1214,-5.1214,-5.1214,-5.1214,-5.1214,-5.1214,-5.1214,-5.1214,-5.1214,-5.1214,-5.1214,-5.1214,0.0,0.0,0.0,-5.0032,-4.9359,-4.9314,-4.8057,-4.7354,-4.7309,-4.7309,-4.7309,-4.7309,-4.7309,-4.7309,-4.7309,-4.7309,-4.7309,-4.7309,-4.7309,-4.7309,-4.7309,-4.7309,-4.7309,-4.7309,-4.7309,-4.7309,-4.7309,-4.7309,-4.7309,-4.713,-4.5828,-4.5334,-4.5095,-4.3823,-4.3334,-4.329,-4.329,-4.329,-4.329,-4.329,-4.329,-4.329,-4.329,-4.329,-4.329,-4.329,-4.329,-4.329,-4.329,-4.329,-4.329,-4.329,-4.2821,-4.2216,-4.1602,-4.0876,-4.0202,-3.9553,-3.9454,-3.9388,-3.9388,0.0,0.0,0.0,0.0,0.0,-3.9388,-3.9388,-3.9388,0.0,0.0,0.0,0.0,0.0,-3.8751,-3.9394,-3.9388,-3.9388,-3.9388,-3.9433,-3.9843,-4.0546,-4.1811,-4.2425,-4.2485,-4.3045,-4.329,-4.329,-4.329,-4.329,-4.329,-4.329,-4.329,-4.329,-4.329,-4.329,-4.329,-4.329,-4.329,-4.329,0.0,0.0,-5.1214,-5.1214,-5.1214,-5.1214,-5.1214,-5.1214,-5.1214,-5.1214,-5.1214,-5.1214,-5.1214,-5.1214,-5.1214,-5.1214,-5.1214,-5.1214,-5.1214,-5.0451,-4.9778,-4.9329,-4.8491,-4.7818,-4.7309,-4.7309,-4.7309,-4.7309,-4.7309,-4.7309,-4.7309,-4.7309,-4.7309,-4.7309,-4.7309,-4.7309,-4.7309,-4.7309,-4.7309,-4.7309,-4.7309,-4.7309,-4.7309,-4.7309,-4.7309,-4.7189,-4.6381,-4.5738,-4.517,-4.4347,-4.3708,-4.329,-4.329,-4.329,-4.329,-4.329,-4.329,-4.329,-4.329,-4.329,-4.329,-4.329,-4.329,-4.329,-4.329,-4.329,-4.329,-4.329,-4.2821,-4.2351,-4.2186,-4.119,-4.0352,-4.0187,-3.9753,-3.9388,-3.9388,-3.9388,0.0,0.0,-3.9388,-3.9388,-3.9388,-3.9388,-3.9388,0.0,0.0,0.0,-3.9388,-3.926,-3.9245,-3.9373,-3.9388,-3.9388,-3.9388,-3.9918,-4.0756,-4.1931,-4.2246,-4.2626,-4.3105,-4.3215,-4.329,-4.329,-4.329,-4.329,-4.329,-4.329,-4.329,-4.329,-4.329,-4.329,-4.329,-4.329,-4.329,-4.329,-5.0287,-5.0287,-5.0493,-5.1073,-5.1214,-5.1214,-5.1214,-5.1214,-5.1214,-5.1214,-5.1214,-5.1214,-5.1214,-5.1214,-5.1214,-5.1214,-5.1214,-5.1214,-5.1214,-5.0554,-4.9942,-4.9344,-4.8641,-4.7982,-4.7309,-4.7309,-4.7309,-4.7309,-4.7309,-4.7309,-4.7309,-4.7309,-4.7309,-4.7309,-4.7309,-4.7309,-4.7309,-4.7309,-4.7309,-4.7309,-4.7309,-4.7309,-4.7309,-4.7309,-4.7309,-4.7219,-4.6561,-4.5873,-4.52,-4.4541,-4.3828,-4.329,-4.329,-4.329,-4.329,-4.329,-4.329,-4.329,-4.329,-4.329,-4.329,-4.329,-4.329,-4.329,-4.329,-4.329,-4.329,-4.329,-4.3045,-4.2716,-4.2455,-4.1811,-4.11,-4.0502,-4.0098,-3.9768,-3.9454,-3.9388,-3.9388,-3.9388,-3.9388,-3.9388,-3.9388,-3.9388,-3.9388,-3.9388,-3.9388,0.0,-3.9388,-3.9388,-3.9388,-3.9388,-3.9388,-3.9574,-3.9858,-4.0816,-4.1692,-4.2396,-4.2671,-4.2985,-4.329,-4.329,-4.329,-4.329,-4.329,-4.329,-4.329,-4.329,-4.329,-4.329,-4.329,-4.329,-4.329,-4.329,-4.329,-4.329,-4.8901,-4.8901,-4.9308,-5.065,-5.0698,-5.065,-5.0855,-5.0698,-5.065,-5.0855,-5.0902,-5.0964,-5.1167,-5.1214,-5.1214,-5.1214,-5.1214,-5.1214,-5.1214,-5.0644,-5.0062,-4.9344,-4.8775,-4.8072,-4.7324,-4.7309,-4.7309,-4.7309,-4.7309,-4.7309,-4.7309,-4.7309,-4.7309,-4.7309,-4.7309,-4.7309,-4.7309,-4.7309,-4.7309,-4.7309,-4.7309,-4.7309,-4.7309,-4.7309,-4.7309,-4.7234,-4.6681,-4.6037,-4.5349,-4.4691,-4.4032,-4.3424,-4.3319,-4.329,-4.329,-4.329,-4.329,-4.329,-4.329,-4.329,-4.329,-4.329,-4.329,-4.329,-4.329,-4.329,-4.329,-4.329,-4.329,-4.3125,-4.265,-4.247,-4.2036,-4.0876,-4.0531,-4.0202,-3.9649,0.0,-3.9388,-3.9388,-3.9388,-3.9388,-3.9388,-3.9388,-3.9388,-3.9388,-3.9388,-3.9388,-3.9388,-3.9514,-3.9574,-3.9574,-3.9574,-3.9933,-4.0681,-4.1841,-4.2455,-4.2545,-4.3075,-4.329,-4.329,-4.329,-4.329,-4.329,-4.329,-4.329,-4.329,-4.329,-4.329,-4.329,-4.329,-4.329,-4.329,-4.329,-4.329,-4.329,-4.7402,-4.7402,-4.7873,-4.9259,-4.8539,-4.8125,-4.9308,-4.8489,-4.8175,-4.9357,-4.9518,-4.9936,-5.1073,-5.1214,-5.1214,-5.1214,-5.1214,-5.1214,-5.1214,-5.1124,-5.0526,-4.9359,-4.9209,-4.8551,-4.7339,-4.7309,-4.7309,-4.7309,-4.7309,-4.7309,-4.7309,-4.7309,-4.7309,-4.7309,-4.7309,-4.7309,-4.7309,-4.7309,-4.7309,-4.7309,-4.7309,-4.7309,-4.7309,-4.7309,-4.7309,-4.7294,-4.7189,-4.6726,-4.6052,-4.5379,-4.4706,-4.4062,-4.3469,-4.329,-4.329,-4.329,-4.329,-4.329,-4.329,-4.329,-4.329,-4.329,-4.329,-4.329,-4.329,-4.329,-4.329,-4.329,-4.329,-4.326,-4.317,-4.2731,-4.2336,-4.2126,-4.113,-4.0367,-4.0262,0.0,-3.9388,-3.9388,-3.9388,-3.9388,-3.9388,-3.9388,-3.9388,-3.9388,-3.9388,-3.9388,-3.9388,-3.9948,-4.0247,-4.0247,-4.0247,-4.0831,-4.2081,-4.2306,-4.2641,-4.314,-4.3245,-4.329,-4.329,-4.329,-4.329,-4.329,-4.329,-4.329,-4.329,-4.329,-4.329,-4.329,-4.329,-4.329,-4.329,-4.329,-4.329,-4.329,-4.5964,-4.5964,-4.6435,-4.7822,-4.7517,-4.7299,-4.7974,-4.7517,-4.7619,-4.8999,-4.921,-4.9727,-5.1058,-5.1214,-5.1214,-5.1214,-5.1214,-5.0902,-5.0191,-5.0807,-5.0631,-4.9374,-4.9314,-4.8656,-4.7339,-4.7309,-4.7309,-4.7309,-4.7309,-4.7309,-4.7309,-4.7309,-4.7309,-4.7309,-4.7309,-4.7309,-4.7309,-4.7309,-4.7309,-4.7309,-4.7309,-4.7309,-4.7309,-4.7309,-4.7309,-4.7309,-4.7309,-4.689,-4.6234,-4.5963,-4.5155,-4.4272,-4.3958,-4.3574,-4.329,-4.329,-4.329,-4.329,-4.329,-4.329,-4.329,-4.329,-4.329,-4.329,-4.329,-4.329,-4.329,-4.329,-4.329,-4.329,-4.329,-4.309,-4.2776,-4.2455,-4.1886,0.0,-4.098,-4.0666,-4.0472,-4.0472,-4.0472,-4.0472,-4.0472,-4.0472,-4.0472,-4.0472,-4.0472,-4.0472,-4.0472,-4.0771,-4.0935,-4.0935,-4.1265,-4.1782,-4.2396,-4.2701,-4.303,-4.329,-4.329,-4.329,-4.329,-4.329,-4.329,-4.329,-4.329,-4.329,-4.329,-4.329,-4.329,-4.329,-4.329,-4.329,-4.329,-4.329,-4.329,-4.329,-4.4522,-4.4522,-4.4994,-4.6383,-4.6331,-4.6226,-4.6539,-4.6331,-4.6643,-4.8024,-4.8225,-4.8738,-5.008,-5.0239,-5.0239,-5.0239,-5.0239,-4.9824,-4.8802,-4.9679,-4.9666,-4.8418,-4.8383,-4.8045,-4.7324,-4.7019,-4.7019,-4.7309,-4.7019,-4.7019,-4.7309,-4.7309,-4.7309,-4.7309,-4.7309,-4.7309,-4.7309,-4.7309,-4.7309,-4.7309,-4.7309,-4.7309,-4.7309,-4.7309,-4.7309,-4.7309,-4.7309,-4.698,-4.6488,-4.6324,-4.5633,-4.4721,-4.4407,-4.3932,-4.3484,-4.3349,-4.329,-4.329,-4.329,-4.329,-4.329,-4.329,-4.329,-4.329,-4.329,-4.329,-4.329,-4.329,-4.329,-4.329,-4.329,-4.329,-4.3125,-4.2671,0.0,-4.2231,-4.1707,-4.1512,-4.1422,-4.1422,-4.1422,-4.1422,-4.1422,-4.1422,-4.1422,-4.1422,-4.1422,-4.1422,-4.1422,-4.1572,-4.1722,-4.1833,-4.2216,-4.247,-4.262,-4.309,-4.329,-4.329,-4.329,-4.329,-4.329,-4.329,-4.329,-4.329,-4.329,-4.329,-4.329,-4.329,-4.329,-4.329,-4.329,-4.329,-4.329,-4.329,-4.329,-4.329,-4.3129,-4.3129,-4.3547,-4.4941,-4.4113,-4.37,-4.4994,-4.4113,-4.381,-4.5142,-4.5302,-4.582,-4.7248,-4.7402,-4.7402,-4.7402,-4.7402,-4.735,-4.7248,-4.735,-4.6859,-4.565,-4.5673,-4.6209,-4.7266,-4.6166,-4.6107,-4.7309,-4.6107,-4.6166,-4.7309,-4.7309,-4.7309,-4.7309,-4.7309,-4.7309,-4.7309,-4.7309,-4.7309,-4.7309,-4.7309,-4.7309,-4.7309,-4.7309,-4.7309,-4.7309,-4.7309,-4.7279,-4.7145,-4.6488,-4.6204,-4.5963,-4.4706,-4.4287,-4.4122,-4.3469,-4.329,-4.329,-4.329,-4.329,-4.329,-4.329,-4.329,-4.329,-4.329,-4.329,-4.329,-4.329,-4.329,-4.329,-4.329,-4.329,-4.329,-4.323,0.0,0.0,-4.2336,-4.1796,-4.1422,-4.1422,-4.1422,-4.1422,-4.1422,-4.1422,-4.1422,-4.1422,-4.1422,-4.1422,-4.1422,-4.1991,-4.2566,-4.3125,-4.2656,-4.2656,-4.3215,-4.3275,-4.329,-4.329,-4.329,-4.329,-4.329,-4.329,-4.329,-4.329,-4.329,-4.329,-4.329,-4.329,-4.329,-4.329,-4.329,-4.329,-4.329,-4.329,-4.329,-4.329,-4.2974,-4.2974,-4.3129,-4.3645,-4.3338,-4.3184,-4.37,-4.3338,-4.3492,-4.4833,-4.4994,-4.5555,-4.694,-4.7094,-4.7094,-4.7094,-4.7094,-4.6747,-4.5872,-4.6643,-4.6556,-4.5354,-4.534,-4.5252,-4.4964,-4.5252,-4.5252,-4.4918,-4.4456,-4.4872,-4.6107,-4.6107,-4.6535,-4.7266,-4.6447,-4.655,-4.7251,-4.6447,-4.6594,-4.7309,-4.7309,-4.7309,-4.7309,-4.7309,-4.7309,-4.7309,-4.7309,-4.7309,-4.7264,-4.701,-4.6623,-4.619,-4.5681,-4.499,-4.4182,-4.3484,-4.329,-4.329,-4.329,-4.329,-4.329,-4.329,-4.329,-4.329,-4.329,-4.329,-4.329,-4.329,-4.329,-4.329,-4.329,-4.329,-4.329,-4.329,0.0,-4.297,-4.297,-4.2746,-4.2596,-4.2596,-4.2596,-4.2596,-4.2596,-4.2596,-4.2596,-4.2596,-4.2596,-4.2596,-4.2596,-4.2836,-4.3075,-4.329,-4.309,-4.309,-4.329,-4.329,-4.329,-4.329,-4.329,-4.329,-4.329,-4.329,-4.329,-4.329,-4.329,-4.329,-4.329,-4.329,-4.329,-4.329,-4.329,-4.329,-4.329,-4.329,-4.329,-4.329,-4.2974,-4.2974,-4.2974,-4.2974,-4.2974,-4.2974,-4.2974,-4.2974,-4.3338,-4.4277,-4.4372,-4.4738,-4.5714,-4.582,-4.582,-4.582,-4.582,-4.5409,-4.4427,-4.513,-4.5495,-4.5291,-4.4765,-4.4171,-4.3504,-4.3975,-4.3975,-4.3504,-4.3122,-4.3551,-4.4826,-4.5207,-4.5869,-4.6682,-4.6211,-4.6491,-4.7251,-4.6358,-4.6491,-4.7309,-4.7309,-4.7309,-4.7309,-4.7309,-4.7309,-4.7309,-4.7309,-4.7309,-4.7309,-4.7309,-4.701,-4.6591,-4.6396,-4.5544,-4.4496,-4.3798,-4.3604,-4.3559,-4.3349,-4.329,-4.329,-4.329,-4.329,-4.329,-4.329,-4.329,-4.329,-4.329,-4.329,-4.329,-4.329,-4.329,-4.329,-4.329,-4.329,-4.329,-4.329,-4.329,-4.329,-4.329,-4.329,-4.329,-4.329,-4.329,-4.329,-4.329,-4.329,-4.329,-4.329,-4.329,-4.329,-4.329,-4.329,-4.329,-4.329,-4.329,-4.329,-4.329,-4.329,-4.329,-4.329,-4.329,-4.329,-4.329,-4.329,-4.329,-4.329,-4.329,-4.329,-4.329,-4.329,-4.329,-4.329,-4.329,-4.329,-4.329,-4.2974,-4.2974,-4.2974,-4.2974,-4.2974,-4.2974,-4.2974,-4.2974,-4.2974,-4.2974,-4.2974,-4.2974,-4.2974,-4.2974,-4.2974,-4.2974,-4.2974,-4.2974,-4.2974,-4.2527,-4.3122,-4.5192,-4.3409,-4.2721,-4.347,-4.2217,-4.2217,-4.3456,-4.2217,-4.2217,-4.3504,-4.478,-4.5403,-4.5448,-4.6682,-4.7251,-4.7266,-4.7251,-4.7266,-4.7309,-4.7309,-4.7309,-4.7309,-4.7309,-4.7309,-4.7309,-4.7309,-4.7309,-4.7309,-4.7309,-4.7309,-4.7189,-4.6488,-4.5858,-4.517,-4.4471,-4.4276,-4.4127,-4.3484,-4.3305,-4.329,-4.329,-4.329,-4.329,-4.329,-4.329,-4.329,-4.329,-4.329,-4.329,-4.329,-4.329,-4.329,-4.329,-4.329,-4.329,-4.329,-4.329,-4.329,-4.329,-4.329,-4.329,-4.329,-4.329,-4.329,-4.329,-4.329,-4.329,-4.329,-4.329,-4.329,-4.329,-4.329,-4.329,-4.329,-4.329,-4.329,-4.329,-4.329,-4.329,-4.329,-4.329,-4.329,-4.329,-4.329,-4.329,-4.329,-4.329,-4.329,-4.329,-4.329,-4.329,-4.329,-4.329,-4.329,-4.329,-4.2974,-4.2974,-4.2974,-4.2974,-4.2974,-4.2974,-4.2974,-4.2974,-4.2974,-4.2974,-4.2974,-4.2974,-4.2974,-4.2974,-4.2974,-4.2974,-4.2974,-4.2974,-4.2974,-4.2879,-4.2844,-4.3095,-4.2643,-4.2092,-4.1388,-4.1516,-4.1369,-4.0844,-4.0453,-4.0932,-4.2168,-4.2544,-4.3218,-4.4022,-4.3551,-4.3787,-4.4595,-4.3693,-4.4303,-4.5973,-4.5973,-4.6491,-4.7309,-4.7309,-4.7309,-4.7309,-4.7309,-4.7309,-4.7309,-4.7309,-4.7309,-4.7189,-4.6488,-4.6145,-4.5689,-4.4146,-4.3408,-4.3029,-4.2742,-4.2405,-4.229,-4.3115,-4.329,-4.329,-4.329,-4.329,-4.329,-4.329,-4.329,-4.329,-4.329,-4.329,-4.329,-4.329,-4.329,-4.329,-4.329,-4.329,-4.329,-4.329,-4.329,-4.329,-4.329,-4.329,-4.329,-4.329,-4.329,-4.329,-4.329,-4.329,-4.329,-4.329,-4.329,-4.329,-4.329,-4.329,-4.329,-4.329,-4.329,-4.329,-4.329,-4.329,-4.329,-4.329,-4.329,-4.329,-4.329,-4.329,-4.329,-4.329,-4.329,-4.329,-4.329,-4.329,-4.329,-4.329,-4.2974,-4.2974,-4.2974,-4.2974,-4.2974,-4.2974,-4.2974,-4.2974,-4.2974,-4.2974,-4.2974,-4.2974,-4.2974,-4.2974,-4.2974,-4.2974,-4.2974,-4.2974,-4.2974,-4.2974,-4.2891,-4.2552,-4.2385,-4.1747,-4.0526,-4.0914,-4.067,-3.9697,-3.9697,-4.007,-4.0844,-4.1369,-4.2035,-4.2738,-4.2461,-4.2786,-4.3456,-4.2689,-4.3266,-4.4688,-4.5207,-4.5539,-4.5824,-4.6358,-4.6535,-4.6535,-4.6535,-4.6873,-4.7207,-4.6726,-4.6535,-4.6579,-4.6644,-4.6711,-4.6289,-4.4371,-4.3545,-4.3142,-4.2247,-4.1637,-4.1525,-4.267,-4.3133,-4.317,-4.2725,-4.2629,-4.2629,-4.2629,-4.2629,-4.2765,-4.321,-4.329,-4.329,-4.329,-4.329,-4.329,-4.329,-4.329,-4.329,-4.329,-4.329,-4.329,-4.329,-4.329,-4.329,-4.329,-4.329,-4.329,-4.329,-4.329,-4.329,-4.329,-4.329,-4.329,-4.329,-4.329,-4.329,-4.329,-4.329,-4.329,-4.329,-4.329,-4.329,-4.329,-4.329,-4.329,-4.329,-4.329,-4.329,-4.329,-4.329,-4.329,-4.329,-4.329,-4.329,-4.329,-4.2974,-4.2974,-4.2974,-4.2974,-4.2974,-4.2974,-4.2974,-4.2974,-4.2974,-4.2974,-4.2974,-4.2974,-4.2974,-4.2974,-4.2974,-4.2974,-4.2974,-4.2974,-4.2974,-4.2974,-4.2974,-4.2974,-4.2552,-4.1731,-4.0689,-4.0563,-4.0275,-3.9772,-3.9722,-3.9697,-3.9749,-4.0882,-4.1406,-4.1455,-4.2641,-4.317,-4.317,-4.317,-4.3218,-4.3456,-4.4595,-4.4442,-4.3646,-4.478,-4.5207,-4.5252,-4.5358,-4.6166,-4.6975,-4.5779,-4.5403,-4.5584,-4.6785,-4.7121,-4.6754,-4.4993,-4.4362,-4.3863,-4.207,-4.1113,-4.0883,-4.2037,-4.2721,-4.2799,-4.1823,-4.1587,-4.1587,-4.1462,-4.1545,-4.1932,-4.2941,-4.325,-4.329,-4.329,-4.329,-4.329,-4.329,-4.321,-4.3155,-4.3155,-4.3155,-4.3155,-4.3155,-4.325,-4.329,-4.329,-4.321,-4.321,-4.329,-4.321,-4.321,-4.329,-4.329,-4.325,-4.3155,-4.3155,-4.321,-4.329,-4.329,-4.329,-4.329,-4.329,-4.329,-4.329,-4.329,-4.329,-4.329,-4.329,-4.329,-4.329,-4.329,-4.329,-4.329,-4.329,-4.329,-4.329,-4.2974,-4.2974,-4.2974,-4.2974,-4.2974,-4.2974,-4.2974,-4.2974,-4.2974,-4.2974,-4.2974,-4.2974,-4.2974,-4.2974,-4.2974,-4.2974,-4.2974,-4.2974,-4.2974,-4.2974,-4.2974,-4.2974,-4.2861,-4.2484,-4.1873,-4.0953,-4.0463,-4.0337,-3.991,-3.9697,-3.9697,-3.9981,-4.0121,-4.0121,-4.0415,-4.0503,-4.0503,-4.0503,-4.1082,-4.2035,-4.2315,-4.2882,-4.3551,-4.3834,-4.3929,-4.4022,-4.5024,-4.5584,-4.5779,-4.5494,-4.5403,-4.5448,-4.5734,-4.5824,-4.575,-4.5335,-4.4194,-4.2948,-4.244,-4.1172,-4.0261,-4.1414,-4.1493,-4.131,-4.1535,-4.1587,-4.1337,-4.0447,-4.1,-4.167,-4.1932,-4.2684,-4.329,-4.329,-4.329,-4.329,-4.329,-4.2548,-4.1988,-4.1988,-4.1988,-4.1988,-4.1988,-4.2765,-4.329,-4.329,-4.2467,-4.2371,-4.325,-4.2467,-4.2371,-4.325,-4.329,-4.286,-4.1988,-4.1988,-4.2412,-4.329,-4.329,-4.329,-4.329,-4.329,-4.329,-4.329,-4.329,-4.329,-4.329,-4.329,-4.329,-4.329,-4.329,-4.329,-4.329,-4.329,-4.329,-4.329,-4.2974,-4.2974,-4.2974,-4.2974,-4.2974,-4.2974,-4.2974,-4.2974,-4.2974,-4.2974,-4.2974,-4.2974,-4.2974,-4.2974,-4.2974,-4.2974,-4.2974,-4.2974,-4.2974,-4.2974,-4.2974,-4.2974,-4.2974,-4.2848,-4.2602,-4.1731,-4.1178,-4.0862,-4.0362,-4.0086,-4.0086,-3.9823,-3.9697,-3.9697,-3.9697,-3.9697,-3.9697,-3.9697,-4.007,-4.0743,-4.1369,-4.1654,-4.1739,-4.2363,-4.2593,-4.2689,-4.3361,-4.3598,-4.3693,-4.4303,-4.4069,-4.3693,-4.4303,-4.4503,-4.4349,-4.3787,-4.2903,-4.205,-4.1338,-4.0308,-3.9635,-4.0782,-4.0655,-4.0414,-4.1036,-4.0543,-3.9901,-3.9885,-3.9915,-4.0118,-4.0689,-4.1267,-4.1864,-4.2412,-4.2508,-4.2684,-4.321,-4.233,-4.1587,-4.1587,-4.1127,-4.0788,-4.0788,-4.2304,-4.3076,-4.2548,-4.1932,-4.185,-4.2467,-4.1435,-4.1295,-4.2467,-4.2508,-4.2193,-4.1587,-4.1587,-4.1643,-4.1699,-4.2208,-4.2508,-4.2508,-4.3036,-4.329,-4.329,-4.329,-4.329,-4.329,-4.329,-4.329,-4.329,-4.329,-4.329,-4.329,-4.329,-4.329,-4.329,-4.2974,-4.2974,-4.2974,-4.2974,-4.2974,-4.2974,-4.2974,-4.2974,-4.2974,-4.2974,-4.2974,-4.2974,-4.2974,-4.2974,-4.2974,-4.2974,-4.2974,-4.2974,-4.2974,-4.2974,-4.2974,-4.2974,-4.2974,-4.2974,-4.2974,-4.259,-4.2032,-4.148,-4.0927,-4.0614,-4.0513,-4.0049,-3.9785,-3.9697,-3.9697,-3.9697,-3.9697,-3.9697,-3.9697,-3.9788,-4.0844,-4.0655,-3.9839,-4.0882,-4.1269,-4.1319,-4.1505,-4.1739,-4.2021,-4.2882,-4.2461,-4.1789,-4.2834,-4.317,-4.3026,-4.2168,-4.1789,-4.1369,-4.0313,-3.955,-3.9247,-4.0182,-4.0034,-3.9854,-4.0518,-3.9414,-3.8493,-3.9257,-3.8715,-3.8424,-3.9404,-3.9768,-4.0189,-4.1169,-4.1295,-4.1726,-4.286,-4.185,-4.107,-4.1295,-4.0304,-3.9667,-3.9899,-4.1616,-4.2345,-4.1378,-4.1112,-4.1112,-4.1295,-4.0232,-4.0145,-4.1253,-4.1295,-4.1197,-4.0986,-4.0986,-4.0433,-3.9329,-4.0476,-4.1112,-4.1337,-4.2508,-4.3036,-4.3036,-4.321,-4.329,-4.329,-4.3076,-4.3036,-4.2981,-4.278,-4.2739,-4.2739,-4.2739,-4.2996,-4.325,-4.2974,-4.2974,-4.2974,-4.2974,-4.2974,-4.2974,-4.2974,-4.2974,-4.2974,-4.2974,-4.2974,-4.2974,-4.2974,-4.2974,-4.2974,-4.2974,-4.2974,-4.2974,-4.2974,-4.2974,-4.2974,-4.2974,-4.2974,-4.2974,-4.2974,-4.2898,-4.2597,-4.2099,-4.1492,-4.0924,-4.0513,-4.0438,-4.0149,-3.9697,-3.9697,-3.9697,-3.9697,-3.9697,-3.9697,-3.9749,-3.989,-3.9839,-3.9749,-3.989,-3.9981,-4.007,-4.1219,-4.2315,-4.3122,-4.2168,-4.1739,-4.1654,-4.1789,-4.1838,-4.2035,-4.2978,-4.2461,-4.1555,-4.1406,-4.0503,-3.9636,-3.9764,-3.9399,-3.9306,-4.0377,-3.9651,-3.8548,-3.774,-3.7844,-3.8153,-3.8289,-3.9183,-3.9942,-4.0102,-4.0116,-4.0532,-4.1684,-3.9931,-3.8948,-4.0015,-3.9081,-3.8738,-3.9812,-4.0202,-4.0289,-4.0145,-3.9169,-3.9036,-4.0059,-3.9006,-3.8903,-4.0102,-4.0116,-3.9623,-3.859,-3.859,-3.7984,-3.6896,-3.803,-3.9125,-4.0159,-4.1295,-4.185,-4.1891,-4.286,-4.329,-4.321,-4.2249,-4.185,-4.1726,-4.0746,-4.0375,-4.0375,-4.0375,-4.1616,-4.3155,-4.2974,-4.2974,-4.2974,-4.2974,-4.2974,-4.2974,-4.2974,-4.2974,-4.2974,-4.2974,-4.2974,-4.2974,-4.2974,-4.2974,-4.2974,-4.2974,-4.2974,-4.2974,-4.2974,-4.2974,-4.2974,-4.2974,-4.2974,-4.2974,-4.2974,-4.2974,-4.2861,-4.2678,-4.207,-4.1668,-4.1417,-4.1116,-4.0852,-4.0601,-4.0287,-4.0162,-4.0136,-3.9823,-3.9697,-3.9697,-3.9697,-3.9697,-3.9697,-3.9697,-3.9697,-3.9788,-4.0364,-4.0882,-4.1269,-4.0743,-4.0554,-4.0554,-4.0554,-4.0554,-4.0642,-4.1219,-4.0982,-4.0554,-4.0554,-4.0121,-3.9697,-3.9697,-3.9509,-3.9474,-3.9993,-3.9503,-3.8858,-3.8681,-3.8118,-3.7625,-3.7625,-3.7774,-3.8134,-3.8783,-3.8872,-3.9316,-4.049,-3.9169,-3.8075,-3.7952,-3.803,-3.8075,-3.7965,-3.9152,-3.9623,-3.8961,-3.8379,-3.8334,-3.8872,-3.7769,-3.7678,-3.8872,-3.8872,-3.8649,-3.8121,-3.8107,-3.754,-3.6405,-3.6883,-3.7769,-3.8917,-4.0088,-4.0661,-4.0703,-4.1864,-4.1988,-4.1393,-4.1545,-4.1211,-4.0618,-4.0116,-3.9899,-3.9899,-3.9899,-4.0546,-4.1435]},{"header":{"parameterUnit":"m.s-1","parameterCategory":1,"la1":30.6,"la2":28.766,"lo1":-90.7593,"lo2":-88.6598,"dy":0.0162,"dx":0.0183,"nx":116,"ny":114,"refTime":"2024-05-02T00:00:00:Z","depth":0,"parameterNumber":3,"parameterNumberName":"V-component_of_WINDS"},"data":[0.0,0.0,0.0,0.0,0.0,0.0,0.0,0.0,0.0,0.0,0.0,0.0,0.0,0.0,0.0,0.0,0.0,0.0,0.0,0.0,0.0,0.0,0.0,0.0,0.0,0.0,0.0,0.0,0.0,0.0,0.0,0.0,0.0,0.0,0.0,0.0,0.0,0.0,0.0,0.0,0.0,0.0,0.0,0.0,0.0,0.0,0.0,0.0,0.0,0.0,0.0,0.0,0.0,0.0,0.0,0.0,0.0,0.0,0.0,0.0,0.0,0.0,0.0,0.0,0.0,0.0,0.0,0.0,0.0,0.0,0.0,0.0,0.0,0.0,0.0,0.0,0.0,0.0,0.0,0.0,0.0,0.0,0.0,0.0,0.0,0.0,0.0,0.0,0.0,0.0,0.0,0.0,0.0,0.0,0.0,0.0,0.0,0.0,0.0,0.0,0.0,0.0,0.0,0.0,0.0,0.0,0.0,0.0,0.0,0.0,0.0,0.0,0.0,0.0,0.0,0.0,0.0,0.0,0.0,0.0,0.0,0.0,0.0,0.0,0.0,0.0,0.0,0.0,0.0,0.0,0.0,0.0,0.0,0.0,0.0,0.0,0.0,0.0,0.0,0.0,0.0,0.0,0.0,0.0,0.0,0.0,0.0,0.0,0.0,0.0,0.0,0.0,0.0,0.0,0.0,0.0,0.0,0.0,0.0,0.0,0.0,0.0,0.0,0.0,0.0,0.0,0.0,0.0,0.0,0.0,0.0,0.0,0.0,0.0,0.0,0.0,0.0,0.0,0.0,0.0,0.0,0.0,0.0,0.0,0.0,0.0,0.0,0.0,0.0,0.0,0.0,0.0,0.0,0.0,0.0,0.0,0.0,0.0,0.0,0.0,0.0,0.0,0.0,0.0,0.0,0.0,0.0,0.0,0.0,0.0,0.0,0.0,0.0,0.0,0.0,0.0,0.0,0.0,0.0,0.0,0.0,0.0,0.0,0.0,0.0,0.0,0.0,0.0,0.0,0.0,0.0,0.0,0.0,0.0,0.0,0.0,0.0,0.0,0.0,0.0,0.0,0.0,0.0,0.0,0.0,0.0,0.0,0.0,0.0,0.0,0.0,0.0,0.0,0.0,0.0,0.0,0.0,0.0,0.0,0.0,0.0,0.0,0.0,0.0,0.0,0.0,0.0,0.0,0.0,0.0,0.0,0.0,0.0,0.0,0.0,0.0,0.0,0.0,0.0,0.0,0.0,0.0,0.0,0.0,0.0,0.0,0.0,0.0,0.0,0.0,0.0,0.0,0.0,0.0,0.0,0.0,0.0,0.0,0.0,0.0,0.0,0.0,0.0,0.0,0.0,0.0,0.0,0.0,0.0,0.0,0.0,0.0,0.0,0.0,0.0,0.0,0.0,0.0,0.0,0.0,0.0,0.0,0.0,0.0,0.0,0.0,0.0,0.0,0.0,0.0,0.0,0.0,0.0,0.0,0.0,0.0,0.0,0.0,0.0,0.0,0.0,0.0,0.0,0.0,0.0,0.0,0.0,0.0,0.0,0.0,0.0,0.0,0.0,0.0,0.0,0.0,0.0,0.0,0.0,0.0,0.0,0.0,0.0,0.0,0.0,0.0,0.0,0.0,0.0,0.0,0.0,0.0,0.0,0.0,0.0,0.0,0.0,0.0,0.0,0.0,0.0,0.0,0.0,0.0,0.0,0.0,0.0,0.0,0.0,0.0,0.0,0.0,0.0,0.0,0.0,0.0,0.0,0.0,0.0,0.0,0.0,0.0,0.0,0.0,0.0,0.0,0.0,0.0,0.0,0.0,0.0,0.0,0.0,0.0,0.0,0.0,0.0,0.0,0.0,0.0,0.0,0.0,0.0,0.0,0.0,0.0,0.0,0.0,0.0,0.0,0.0,0.0,0.0,0.0,0.0,0.0,0.0,0.0,0.0,0.0,0.0,0.0,0.0,0.0,0.0,0.0,0.0,0.0,0.0,0.0,0.0,0.0,0.0,0.0,0.0,0.0,0.0,0.0,0.0,0.0,0.0,0.0,0.0,0.0,0.0,0.0,0.0,0.0,0.0,0.0,0.0,0.0,0.0,0.0,0.0,0.0,0.0,0.0,0.0,0.0,0.0,0.0,0.0,0.0,0.0,0.0,0.0,0.0,0.0,0.0,0.0,0.0,0.0,0.0,0.0,0.0,0.0,0.0,0.0,0.0,0.0,0.0,0.0,0.0,0.0,0.0,0.0,0.0,0.0,0.0,0.0,0.0,0.0,0.0,0.0,0.0,0.0,0.0,0.0,0.0,0.0,0.0,0.0,0.0,0.0,0.0,0.0,0.0,0.0,0.0,0.0,0.0,0.0,0.0,0.0,0.0,0.0,0.0,0.0,0.0,0.0,0.0,0.0,0.0,0.0,0.0,0.0,0.0,0.0,0.0,0.0,0.0,0.0,0.0,0.0,0.0,0.0,0.0,0.0,0.0,0.0,0.0,0.0,0.0,0.0,0.0,0.0,0.0,0.0,0.0,0.0,0.0,0.0,0.0,0.0,0.0,0.0,0.0,0.0,0.0,0.0,0.0,0.0,0.0,0.0,0.0,0.0,0.0,0.0,0.0,0.0,0.0,0.0,0.0,0.0,0.0,0.0,0.0,0.0,0.0,0.0,0.0,0.0,0.0,0.0,0.0,0.0,0.0,0.0,0.0,0.0,0.0,0.0,0.0,0.0,0.0,0.0,0.0,0.0,0.0,0.0,0.0,0.0,0.0,0.0,0.0,0.0,0.0,0.0,0.0,0.0,0.0,0.0,0.0,0.0,0.0,0.0,0.0,0.0,0.0,0.0,0.0,0.0,0.0,0.0,0.0,0.0,0.0,0.0,0.0,0.0,0.0,0.0,0.0,0.0,0.0,0.0,0.0,0.0,0.0,0.0,0.0,0.0,0.0,0.0,0.0,0.0,0.0,0.0,0.0,0.0,0.0,0.0,0.0,0.0,0.0,0.0,0.0,0.0,0.0,0.0,0.0,0.0,0.0,0.0,0.0,0.0,0.0,0.0,0.0,0.0,0.0,0.0,0.0,0.0,0.0,0.0,0.0,0.0,0.0,0.0,0.0,0.0,0.0,0.0,0.0,0.0,0.0,0.0,0.0,0.0,0.0,0.0,0.0,0.0,0.0,0.0,0.0,0.0,0.0,0.0,0.0,0.0,0.0,0.0,0.0,0.0,0.0,0.0,0.0,0.0,0.0,0.0,0.0,0.0,0.0,0.0,0.0,0.0,0.0,0.0,0.0,0.0,0.0,0.0,0.0,0.0,0.0,0.0,0.0,0.0,0.0,0.0,0.0,0.0,0.0,0.0,0.0,0.0,0.0,0.0,0.0,0.0,0.0,0.0,0.0,0.0,0.0,0.0,0.0,0.0,0.0,0.0,0.0,0.0,0.0,0.0,0.0,0.0,0.0,0.0,0.0,0.0,0.0,0.0,0.0,0.0,0.0,0.0,0.0,0.0,0.0,0.0,0.0,0.0,0.0,0.0,0.0,0.0,0.0,0.0,0.0,0.0,0.0,0.0,0.0,0.0,0.0,0.0,0.0,0.0,0.0,0.0,0.0,0.0,0.0,0.0,0.0,0.0,0.0,0.0,0.0,0.0,0.0,0.0,0.0,0.0,0.0,0.0,0.0,0.0,0.0,0.0,0.0,0.0,0.0,0.0,0.0,0.0,0.0,0.0,0.0,0.0,0.0,0.0,0.0,0.0,0.0,0.0,0.0,0.0,0.0,0.0,0.0,0.0,0.0,0.0,0.0,0.0,0.0,0.0,0.0,0.0,0.0,0.0,0.0,0.0,0.0,0.0,0.0,0.0,0.0,0.0,0.0,0.0,0.0,0.0,0.0,0.0,0.0,0.0,0.0,0.0,0.0,0.0,0.0,0.0,0.0,0.0,0.0,0.0,0.0,0.0,0.0,0.0,0.0,0.0,0.0,0.0,0.0,0.0,0.0,0.0,0.0,0.0,0.0,0.0,0.0,0.0,0.0,0.0,0.0,0.0,0.0,0.0,0.0,0.0,0.0,0.0,0.0,0.0,0.0,0.0,0.0,0.0,0.0,0.0,0.0,0.0,0.0,0.0,0.0,0.0,0.0,0.0,0.0,0.0,0.0,0.0,0.0,0.0,0.0,0.0,0.0,0.0,0.0,0.0,0.0,0.0,0.0,0.0,0.0,0.0,0.0,0.0,0.0,0.0,0.0,0.0,0.0,0.0,0.0,0.0,0.0,0.0,0.0,0.0,0.0,0.0,0.0,0.0,0.0,0.0,0.0,0.0,0.0,0.0,0.0,0.0,0.0,0.0,0.0,0.0,0.0,0.0,0.0,0.0,0.0,0.0,0.0,0.0,0.0,0.0,0.0,0.0,0.0,0.0,0.0,0.0,0.0,0.0,0.0,0.0,0.0,0.0,0.0,0.0,0.0,0.0,0.0,0.0,0.0,0.0,0.0,0.0,0.0,0.0,0.0,0.0,0.0,0.0,0.0,0.0,0.0,0.0,0.0,0.0,0.0,0.0,0.0,0.0,0.0,0.0,0.0,0.0,0.0,0.0,0.0,0.0,0.0,0.0,0.0,0.0,0.0,0.0,0.0,0.0,0.0,0.0,0.0,0.0,0.0,0.0,0.0,0.0,0.0,0.0,0.0,0.0,0.0,0.0,0.0,0.0,0.0,0.0,0.0,0.0,0.0,0.0,0.0,0.0,0.0,0.0,0.0,0.0,0.0,0.0,0.0,0.0,0.0,0.0,0.0,0.0,0.0,0.0,0.0,0.0,0.0,0.0,0.0,0.0,0.0,0.0,0.0,0.0,0.0,0.0,0.0,0.0,0.0,0.0,0.0,0.0,0.0,0.0,0.0,0.0,0.0,0.0,0.0,0.0,0.0,0.0,0.0,0.0,0.0,0.0,0.0,0.0,0.0,0.0,0.0,0.0,0.0,0.0,0.0,0.0,0.0,0.0,0.0,0.0,0.0,0.0,0.0,0.0,0.0,0.0,0.0,0.0,0.0,0.0,0.0,0.0,0.0,0.0,0.0,0.0,0.0,0.0,0.0,0.0,0.0,0.0,0.0,0.0,0.0,0.0,0.0,0.0,0.0,0.0,0.0,0.0,0.0,0.0,0.0,0.0,0.0,0.0,0.0,0.0,0.0,0.0,0.0,0.0,0.0,0.0,0.0,0.0,0.0,0.0,0.0,0.0,0.0,0.0,0.0,0.0,0.0,0.0,0.0,0.0,0.0,0.0,0.0,0.0,0.0,0.0,0.0,0.0,0.0,0.0,0.0,0.0,0.0,0.0,0.0,0.0,0.0,0.0,0.0,0.0,0.0,0.0,0.0,0.0,0.0,0.0,0.0,0.0,0.0,0.0,0.0,0.0,0.0,0.0,0.0,0.0,0.0,0.0,0.0,0.0,0.0,0.0,0.0,0.0,0.0,0.0,0.0,0.0,0.0,0.0,0.0,0.0,0.0,0.0,0.0,0.0,0.0,0.0,0.0,0.0,0.0,0.0,0.0,0.0,0.0,0.0,0.0,0.0,0.0,0.0,0.0,0.0,0.0,0.0,0.0,0.0,0.0,0.0,0.0,0.0,0.0,0.0,0.0,0.0,0.0,0.0,0.0,0.0,0.0,0.0,0.0,0.0,0.0,0.0,0.0,0.0,0.0,0.0,0.0,0.0,0.0,0.0,0.0,0.0,0.0,0.0,0.0,0.0,0.0,0.0,0.0,0.0,0.0,0.0,0.0,0.0,0.0,0.0,0.0,0.0,0.0,0.0,0.0,0.0,0.0,0.0,0.0,0.0,0.0,0.0,0.0,0.0,0.0,0.0,0.0,0.0,0.0,0.0,0.0,0.0,0.0,0.0,0.0,0.0,0.0,0.0,0.0,0.0,0.0,0.0,0.0,0.0,0.0,0.0,0.0,0.0,0.0,0.0,0.0,0.0,0.0,0.0,0.0,0.0,0.0,0.0,0.0,0.0,0.0,0.0,0.0,0.0,0.0,0.0,0.0,0.0,0.0,0.0,0.0,0.0,0.0,0.0,0.0,0.0,0.0,0.0,0.0,0.0,0.0,0.7911,0.0,0.0,0.0,0.0,0.0,0.0,0.0,0.0,0.0,0.0,0.0,0.0,0.0,0.0,0.0,0.0,0.0,0.0,0.0,0.0,0.0,0.0,0.0,0.0,1.8079,1.721,1.592,1.5784,1.5784,1.5784,1.6433,0.0,0.0,0.0,0.0,1.6803,1.6803,1.6756,1.6716,1.6109,1.5784,1.5825,1.648,1.8079,2.044,0.0,0.0,0.0,0.0,0.0,0.0,0.0,0.0,0.0,0.0,0.0,0.0,0.0,0.0,0.0,0.0,0.0,0.0,0.0,0.0,0.0,0.0,0.0,0.0,0.0,0.0,0.0,0.0,0.0,0.0,0.0,0.0,0.0,0.0,0.0,0.0,0.0,0.0,0.0,0.0,0.0,0.0,0.0,0.0,0.0,0.0,0.0,0.0,0.0,0.0,0.0,0.0,0.0,0.0,0.0,0.0,0.0,0.0,0.0,0.0,0.0,0.0,0.0,0.0,0.0,0.0,0.0,0.0,0.0,0.0,0.0,0.7944,0.0,0.0,0.0,0.0,0.0,0.0,0.0,0.0,0.0,0.0,0.0,0.0,0.0,0.0,0.0,0.0,0.0,0.0,0.0,0.0,0.0,1.9268,1.787,1.6763,1.6062,1.5825,1.5784,1.5784,1.5784,1.5784,1.5784,1.5784,1.5784,1.5784,1.5784,1.5784,1.6339,1.7365,1.6339,1.5784,1.5784,1.6015,1.7755,2.0711,2.1721,0.0,0.0,0.0,0.0,0.0,0.0,0.0,0.0,0.0,0.0,0.0,0.0,0.0,0.0,0.0,0.0,0.0,0.0,0.0,0.0,0.0,0.0,0.0,0.0,0.0,0.0,0.0,0.0,0.0,0.0,0.0,0.0,0.0,0.0,0.0,0.0,0.0,0.0,0.0,0.0,0.0,0.0,0.0,0.0,0.0,0.0,0.0,0.0,0.0,0.0,0.0,0.0,0.0,0.0,0.0,0.0,0.0,0.0,0.0,0.0,0.0,0.0,0.0,0.7988,0.7988,0.7988,0.7988,0.7988,0.7988,0.7988,0.7988,0.7988,0.7988,0.0,0.0,0.0,0.0,0.0,0.0,0.0,0.0,0.0,0.0,0.0,0.0,0.0,0.0,0.0,0.0,0.0,0.0,0.0,2.0215,1.7963,1.7552,1.699,1.592,1.5784,1.5784,1.5784,1.5784,1.5784,1.5784,1.5784,1.5784,1.5784,1.5784,1.5879,1.6062,1.5879,1.5784,1.5825,1.6943,1.7731,1.8187,1.8326,1.8419,1.8549,0.0,0.0,0.0,0.0,0.0,0.0,0.0,0.0,0.0,0.0,0.0,0.0,0.0,0.0,0.0,0.0,0.0,0.0,0.0,0.0,0.0,0.0,0.0,0.0,0.0,0.0,0.0,0.0,0.0,0.0,0.0,0.0,0.0,0.0,0.0,0.0,0.0,0.0,0.0,0.0,0.0,1.5784,1.5784,0.0,0.0,0.0,0.0,0.0,0.0,0.0,0.0,0.0,0.0,0.0,0.0,0.0,0.7988,0.7988,0.7988,0.7988,0.7988,0.7988,0.7988,0.7988,0.7988,0.7988,0.7988,0.7988,0.0,0.7988,0.7988,0.0,0.0,0.0,0.0,0.0,0.0,0.0,0.0,0.0,0.0,0.0,0.0,0.0,0.0,0.0,0.0,0.0,0.0,0.0,0.0,0.0,1.7444,1.6433,1.5825,1.5784,1.5784,1.5784,1.5784,1.5784,1.5784,1.5784,1.5784,1.5784,1.5784,1.5784,1.5784,1.5784,1.5784,1.5825,1.6386,1.6622,1.6622,1.6622,1.7397,1.8772,1.9852,0.0,0.0,0.0,0.0,0.0,0.0,0.0,0.0,0.0,0.0,0.0,0.0,0.0,0.0,0.0,0.0,0.0,0.0,0.0,0.0,0.0,0.0,0.0,0.0,0.0,0.0,0.0,0.0,0.0,0.0,0.0,0.0,0.0,0.0,0.0,0.0,0.0,0.0,0.0,1.5784,1.5784,1.5784,1.5784,1.5784,0.0,0.0,0.0,0.0,0.0,0.0,0.0,0.0,0.0,0.7988,0.7988,0.7988,0.7988,0.7988,0.7988,0.7988,0.7988,0.7988,0.7988,0.7988,0.7988,0.7988,0.7988,0.7988,0.7988,0.7988,0.7988,0.7988,0.0,0.0,0.0,0.0,0.7988,0.7982,0.0,0.0,0.0,0.0,0.0,0.0,0.0,0.0,0.0,0.0,0.0,0.0,1.8534,1.6929,1.5784,1.5784,1.5784,1.5784,1.5784,1.5784,1.5865,1.5939,1.5945,1.5979,1.6052,1.5979,1.5905,1.5784,1.5784,1.5784,1.5784,1.5784,1.5784,1.5784,1.5784,1.6842,1.858,1.8902,1.9534,2.044,0.0,0.0,0.0,0.0,0.0,0.0,0.0,0.0,0.0,0.0,0.0,0.0,0.0,0.0,0.0,0.0,0.0,0.0,0.0,0.0,0.0,0.0,0.0,0.0,0.0,0.0,0.0,0.0,0.0,0.0,0.0,0.0,0.0,0.0,0.0,0.0,0.0,1.5784,1.5784,1.5784,1.5784,1.5784,0.0,0.0,0.0,0.0,0.0,0.0,0.8581,0.8187,0.7988,0.7988,0.8029,0.8099,0.8099,0.8136,0.8153,0.8153,0.8153,0.8153,0.8153,0.8153,0.8153,0.8153,0.8153,0.8133,0.8096,0.8005,0.7988,0.7988,0.7988,0.7988,0.7988,0.7988,0.7988,0.7988,0.0,0.0,0.0,0.0,0.0,0.0,0.0,0.0,0.0,0.0,0.0,1.8534,1.6244,1.5872,1.5784,1.5784,1.5784,1.5784,1.5784,1.5784,1.5952,1.6239,1.6253,1.638,1.6653,1.6393,1.6112,1.5784,1.5784,1.5784,1.5784,1.5784,1.5784,1.5784,1.5784,1.5872,1.6062,1.7271,1.7824,1.8095,2.0395,0.0,0.0,0.0,0.0,0.0,0.0,0.0,0.0,0.0,0.0,0.0,0.0,0.0,0.0,0.0,0.0,0.0,0.0,0.0,0.0,0.0,0.0,0.0,0.0,0.0,0.0,0.0,0.0,0.0,0.0,0.0,0.0,0.0,0.0,0.0,0.0,0.0,0.0,1.5784,1.5784,0.0,0.0,0.0,0.0,1.3776,1.1453,0.9948,0.9899,0.8676,0.7988,0.7988,0.818,0.831,0.831,0.8391,0.8459,0.8459,0.8459,0.8459,0.8459,0.8459,0.8459,0.8459,0.8459,0.8384,0.8248,0.8099,0.7988,0.7988,0.7988,0.7988,0.7988,0.7988,0.7988,0.7988,0.0,0.0,0.0,0.0,0.0,2.235,2.1987,2.0944,1.9988,1.9534,1.8118,1.707,1.7037,1.6292,1.5784,1.5784,1.5784,1.5784,1.5784,1.6005,1.6166,1.6266,1.6453,1.6513,1.6426,1.6139,1.6032,1.6112,1.6112,1.6213,1.6393,1.6393,1.6393,1.6393,1.6393,1.6293,1.6154,1.6381,1.6943,1.7777,1.8634,1.9898,0.0,0.0,0.0,0.0,0.0,0.0,0.0,0.0,0.0,0.0,0.0,0.0,0.0,0.0,0.0,0.0,0.0,0.0,0.0,0.0,0.0,0.0,0.0,0.0,0.0,0.0,0.0,0.0,0.0,0.0,0.0,0.0,0.0,0.0,0.0,0.0,0.0,1.5784,1.5784,0.0,1.5784,1.4657,1.3926,1.3926,1.1574,1.0117,1.0117,0.8976,0.8323,0.8323,0.8377,0.8408,0.8408,0.8459,0.8482,0.8482,0.8482,0.8482,0.8482,0.8482,0.8482,0.8482,0.8482,0.8455,0.8404,0.8347,0.8211,0.7988,0.7988,0.7988,0.7988,0.7988,0.7988,0.7988,0.0,0.0,0.0,2.3359,2.2871,2.2217,2.1436,2.026,1.936,1.8956,1.7444,1.6622,1.699,1.6298,1.5784,1.5784,1.5919,1.5979,1.5979,1.6253,1.6466,1.6616,1.6847,1.6867,1.6623,1.638,1.6319,1.642,1.642,1.652,1.6707,1.6707,1.6707,1.6707,1.6707,1.66,1.64,1.6106,1.6388,1.7084,1.7552,1.891,2.0702,0.0,0.0,0.0,0.0,0.0,0.0,0.0,0.0,0.0,0.0,0.0,0.0,0.0,0.0,0.0,0.0,0.0,0.0,0.0,0.0,0.0,0.0,0.0,0.0,0.0,0.0,0.0,0.0,0.0,0.0,0.0,0.0,0.0,0.0,0.0,1.5784,1.5784,1.5784,1.5824,1.5972,1.5191,1.4734,1.4826,1.2439,1.1014,1.1014,0.9402,0.8482,0.8482,0.8533,0.8584,0.8635,0.8686,0.8763,0.8763,0.8763,0.8682,0.8635,0.8635,0.8635,0.8635,0.8635,0.8608,0.856,0.856,0.8411,0.8187,0.8187,0.8187,0.8184,0.8136,0.8116,0.8109,0.0,2.4092,2.3809,2.3809,2.2473,2.1373,2.1329,2.0294,1.9126,1.79,1.7675,1.7207,1.5947,1.5804,1.5804,1.5804,1.6119,1.6286,1.6286,1.656,1.6854,1.7199,1.7474,1.7494,1.7206,1.7192,1.7052,1.672,1.672,1.6727,1.6747,1.6747,1.6747,1.6747,1.6747,1.674,1.67,1.642,1.6126,1.5947,1.7138,1.8365,1.9451,0.0,0.0,0.0,0.0,0.0,0.0,0.0,0.0,0.0,0.0,0.0,0.0,0.0,0.0,0.0,0.0,0.0,0.0,0.0,0.0,0.0,0.0,0.0,0.0,0.0,0.0,0.0,0.0,0.0,0.0,0.0,0.0,0.0,1.5784,1.5784,1.5784,1.5791,1.5798,1.5959,1.6259,1.6286,1.64,1.6687,1.4146,1.2612,1.2612,1.0004,0.8509,0.8509,0.8655,0.8801,0.8895,0.9089,0.9217,0.9217,0.9217,0.9086,0.8898,0.8898,0.8898,0.8898,0.8898,0.8869,0.873,0.8726,0.8635,0.8503,0.8486,0.8482,0.8465,0.8378,0.833,0.8255,2.4414,2.4326,2.4248,2.4248,2.3857,2.3211,2.2269,2.1084,1.9805,1.8483,1.7526,1.6854,1.6509,1.6466,1.6466,1.6466,1.654,1.6587,1.6587,1.6911,1.7213,1.7501,1.7387,1.7286,1.7199,1.6941,1.6894,1.7079,1.7079,1.7248,1.7622,1.7622,1.7622,1.7622,1.7622,1.7435,1.7072,1.6991,1.674,1.6426,1.6375,1.7077,1.8187,0.0,0.0,0.0,0.0,0.0,0.0,0.0,0.0,0.0,0.0,0.0,0.0,0.0,0.0,0.0,0.0,0.0,0.0,0.0,0.0,0.0,0.0,0.0,0.0,0.0,0.0,0.0,0.0,0.0,0.0,0.0,1.5784,1.5784,1.5784,1.5784,1.5912,1.6126,1.6152,1.6266,1.656,1.6587,1.662,1.67,1.4318,1.2874,1.2874,1.0497,0.9133,0.9133,0.9174,0.9218,0.9259,0.93,0.9317,0.9317,0.9317,0.93,0.9259,0.9259,0.9259,0.9259,0.9259,0.9235,0.9188,0.9076,0.906,0.8992,0.8608,0.8482,0.8476,0.8438,0.8425,0.8418,2.4923,2.4814,2.4687,2.4687,2.4541,2.3988,2.2699,2.1877,2.0962,1.9659,1.8361,1.7534,1.7534,1.705,1.6707,1.6707,1.682,1.6894,1.6894,1.7219,1.746,1.7575,1.7474,1.738,1.738,1.7161,1.7221,1.7528,1.7528,1.7769,1.823,1.823,1.823,1.823,1.823,1.7969,1.7515,1.744,1.7507,1.7681,1.7197,1.7347,1.7878,1.7744,1.8772,2.026,2.0458,2.0854,2.1203,2.0711,0.0,0.0,0.0,0.0,0.0,0.0,0.0,0.0,0.0,0.0,0.0,0.0,0.0,0.0,0.0,0.0,0.0,0.0,0.0,0.0,0.0,0.0,0.0,0.0,1.5784,1.5872,1.5999,1.6012,1.6079,1.6301,1.638,1.6567,1.686,1.7001,1.7128,1.7255,1.5463,1.4368,1.4368,1.2495,1.1372,1.1372,1.0751,1.0443,1.051,0.9824,0.9476,0.9476,0.9476,0.9442,0.9381,0.9381,0.9381,0.9381,0.9381,0.9381,0.9374,0.9344,0.9306,0.0,0.0,0.0,0.0,0.0,0.8537,0.8482,2.5693,2.542,2.5194,2.5194,2.4824,2.4132,2.293,2.274,2.2295,2.108,1.9826,1.9007,1.881,1.7732,1.6951,1.68,1.7048,1.7253,1.7253,1.7494,1.7582,1.7582,1.7582,1.7582,1.7582,1.7615,1.7769,1.7995,1.8029,1.8195,1.8544,1.8544,1.8544,1.8544,1.8544,1.8377,1.8022,1.7762,1.8199,1.9029,1.8858,1.8491,1.8092,1.7856,1.908,2.0747,1.967,2.0079,2.0935,1.9716,0.0,0.0,0.0,0.0,0.0,0.0,0.0,0.0,0.0,0.0,0.0,0.0,0.0,0.0,0.0,0.0,0.0,0.0,0.0,0.0,0.0,0.0,0.0,0.0,1.5811,1.5972,1.6239,1.6382,1.6422,1.6422,1.66,1.6887,1.7266,1.7482,1.7762,1.8022,1.6993,1.6346,1.6346,0.0,0.0,0.0,0.0,1.2151,1.2312,1.0862,1.0161,1.0161,1.0161,1.0085,1.0008,1.0008,1.0008,1.0008,1.0008,1.0008,1.0004,0.9986,0.9968,0.9867,0.9181,0.8908,0.8944,0.8794,0.8652,0.8533,2.5693,2.5615,2.5557,2.5557,2.5489,2.5025,2.3712,2.3515,2.3005,2.1695,2.1294,2.0689,1.9543,1.9184,1.8581,1.7513,1.7468,1.7502,1.7502,1.7549,1.7582,1.7582,1.7582,1.7582,1.7582,1.7829,1.7935,1.7995,1.829,1.8557,1.8838,1.8838,1.8838,1.8838,1.8838,1.8677,1.8384,1.8083,1.803,1.8295,1.8891,1.8792,1.8258,1.819,1.8277,1.8365,1.8141,1.8818,1.967,1.8457,1.8056,1.7863,1.6842,0.0,0.0,0.0,0.0,0.0,0.0,0.0,0.0,0.0,0.0,0.0,0.0,0.0,0.0,0.0,0.0,0.0,0.0,0.0,0.0,1.5784,1.6032,1.6206,1.6315,1.673,1.7032,1.7032,1.7079,1.7275,1.7822,1.7869,1.8083,1.8384,1.7222,1.6446,1.6446,1.5247,1.4473,1.4473,1.4237,1.4084,1.4119,1.3767,1.3649,1.3649,0.0,0.0,1.3587,1.3587,1.3587,1.3587,1.3587,1.3587,1.3573,1.346,1.3346,1.2932,1.0186,0.9169,0.9093,0.8947,0.8821,0.8797,2.5693,2.5693,2.5693,2.5693,2.5693,2.5479,2.4815,2.4716,2.4461,2.3791,2.3126,2.2416,2.171,2.1049,2.0084,1.8708,1.861,1.861,1.861,1.861,1.8297,1.7635,1.7582,1.7582,1.7582,1.7883,1.8069,1.827,1.8564,1.8858,1.9145,1.9145,1.9145,1.9202,1.9911,1.9605,1.8532,1.9124,1.9134,1.8875,2.002,2.0071,1.9431,1.9257,1.8933,1.8596,1.8596,1.8596,1.8503,1.7917,1.7271,1.6622,1.6015,1.6251,1.6615,0.0,0.0,0.0,0.0,0.0,0.0,0.0,0.0,0.0,0.0,0.0,0.0,0.0,0.0,1.5784,1.5784,0.0,1.5831,1.6025,1.6179,1.6422,1.6723,1.7012,1.7199,1.7199,1.7415,1.7716,1.7962,1.8255,1.8495,1.8698,1.8211,1.7955,1.7955,1.7324,1.6979,1.6979,1.6203,1.5784,1.5784,1.5015,1.4604,1.4604,1.4604,1.4604,1.4604,1.4604,1.4604,1.4604,1.4604,1.4604,1.4594,1.4542,1.4425,1.4182,1.2475,1.1265,1.0376,0.9434,0.9045,0.9035,2.5693,2.5693,2.5693,2.5693,2.5693,2.5693,2.5693,2.5693,2.5693,2.5693,2.4766,2.3998,2.3741,2.2717,2.155,2.0135,2.0033,2.0033,2.0033,2.0033,1.942,1.8042,1.7996,1.7996,1.7996,1.799,1.8265,1.883,1.8863,1.9152,1.9726,1.9506,1.9707,2.0321,2.1079,2.054,1.9099,2.0414,2.0469,1.9813,2.1348,2.1551,2.092,2.0589,2.0079,1.9451,1.9222,1.8549,1.7645,1.7412,1.6669,1.5784,1.5784,1.5784,1.5784,1.5784,1.5784,0.0,0.0,0.0,0.0,0.0,0.0,0.0,0.0,0.0,1.5784,1.5784,1.5784,1.5784,1.5784,1.5831,1.5999,1.6281,1.6415,1.6656,1.7132,1.7246,1.7306,1.7373,1.7756,1.8015,1.8075,1.8555,1.8945,1.9005,1.9232,1.9424,1.9424,1.9424,1.9424,1.9424,1.8163,1.7443,1.7443,1.6203,1.5553,1.5553,1.5553,1.5553,1.5553,1.5553,1.5553,1.5553,1.5553,1.5553,1.5553,1.5553,1.5553,1.5478,1.5046,1.4046,1.2604,1.0785,0.9982,0.9681,2.5693,2.5693,2.5693,2.5693,2.5693,2.5693,2.5693,2.5693,2.5693,2.5693,2.5586,2.502,2.384,2.3583,2.2926,2.16,2.1448,2.1448,2.1448,2.1448,2.0837,1.942,1.9376,1.9376,1.9376,1.8457,1.8636,1.9922,1.9244,1.959,2.0881,1.9851,2.0823,2.3255,2.1663,2.094,2.0837,2.1642,2.1236,2.0227,2.2086,2.2601,2.2182,2.1892,2.0841,1.936,1.828,1.7824,1.7552,1.6386,1.592,1.5784,1.5784,1.5784,1.5784,1.5784,0.0,1.5784,1.5784,1.5784,0.0,1.5784,1.5784,1.5784,0.0,0.0,1.5784,1.5784,1.5784,1.5784,1.5784,1.6046,1.6239,1.6266,1.6764,1.7125,1.7192,1.7427,1.7635,1.7862,1.7955,1.8095,1.8417,1.8731,1.9032,1.9299,1.941,1.9424,1.9424,1.9424,1.9424,1.9424,1.9243,1.9127,1.9127,1.8946,1.8887,1.8887,1.8887,1.8887,1.8887,1.8887,1.8887,1.8887,1.8887,1.8887,1.8887,1.8887,1.8887,1.8706,1.7295,1.661,1.6174,1.4266,1.27,1.1498,2.5693,2.5693,2.5693,2.5693,2.5693,2.5693,2.5693,2.5693,2.5693,2.5693,2.5693,2.5489,2.4922,2.4146,2.3791,2.3998,2.3326,2.2868,2.2868,2.2868,2.2265,2.0888,2.0033,1.9576,1.9576,1.8564,1.8306,1.8877,1.8733,1.8993,1.9584,1.9122,1.9514,2.07,2.0766,2.0227,1.9398,2.1399,2.1147,1.9684,2.203,2.2622,2.2112,2.2785,2.1989,2.0486,1.9988,1.891,0.0,1.7894,1.6976,1.5784,1.5784,1.5784,1.5784,1.5784,1.5784,0.0,1.5784,0.0,0.0,0.0,1.5784,1.5784,1.5784,1.5784,1.5784,1.5784,1.5784,1.5879,1.6052,1.6186,1.6386,0.0,1.7038,1.7259,1.7427,1.7508,1.7695,1.7955,1.8142,1.8417,1.8711,1.9011,1.9232,1.9417,1.9424,1.9424,1.9424,1.9424,1.9424,1.9424,1.9424,1.9424,1.9424,1.9424,1.9424,1.9424,1.9424,1.9424,1.9424,1.9424,1.9424,1.9424,1.9424,1.9424,1.9424,1.9424,1.9424,1.9307,1.8648,1.8402,1.806,1.5281,1.3894,1.3293,2.5693,2.5693,2.5693,2.5693,2.5693,2.5693,2.5693,2.5693,2.5693,2.5693,2.5693,2.5693,2.5693,2.4815,2.4658,2.5635,2.4815,2.4254,2.4254,2.4254,2.3633,2.2316,2.1253,2.0743,2.0743,1.9252,1.8645,1.901,1.8958,1.9166,1.954,1.9194,1.9661,2.0839,2.0994,2.0506,1.973,2.2059,2.1854,2.0136,2.2329,2.286,2.2428,2.3284,2.2856,2.1756,2.1436,1.9943,1.828,1.8818,1.7809,1.6251,1.592,1.5784,1.5784,1.5784,1.5784,1.5784,1.5784,0.0,0.0,1.5784,1.5784,1.5784,1.5784,1.5784,1.5852,1.5939,1.5952,1.6039,1.6339,1.6509,1.6703,1.7132,1.7266,1.7393,1.7555,1.7655,1.7829,1.8075,1.843,1.8724,1.9018,1.9239,1.9424,1.9424,1.9424,1.9424,1.9424,1.9424,1.9424,1.9424,1.9424,1.9424,1.9424,1.9424,1.9424,1.9424,1.9424,1.9424,1.9424,1.9424,1.9424,1.9424,1.9424,1.9424,1.9424,1.9424,1.9424,1.9424,1.9424,1.9424,1.91,1.6646,1.5527,1.5077,2.5693,2.5693,2.5693,2.5693,2.5693,2.5693,2.5693,2.5693,2.5693,2.5693,2.5693,2.5693,2.5693,2.5635,2.5635,2.5693,2.5635,2.5635,2.5635,2.5635,2.502,2.3692,2.3592,2.3592,2.3592,2.0904,2.0202,2.1566,2.0541,2.077,2.2133,2.0995,2.2687,2.6625,2.3436,2.2596,2.3574,2.4583,2.3966,2.2398,2.3383,2.3764,2.3695,2.3276,2.3101,2.2906,2.1702,2.0486,1.9268,0.0,1.7692,1.7412,1.6204,1.5784,0.0,1.5784,1.5784,0.0,0.0,0.0,1.5784,1.5784,1.5784,1.5784,1.5784,1.5784,1.5912,1.6199,1.6259,1.6346,1.664,1.6927,1.7179,1.7199,1.7434,1.7569,1.7582,1.7842,1.8089,1.8444,1.8731,1.9025,0.0,1.9366,1.9424,1.9424,1.9424,1.9424,1.9424,1.9424,1.9424,1.9424,1.9424,1.9424,1.9424,1.9424,1.9424,1.9424,1.9424,1.9424,1.9424,1.9424,1.9424,1.9424,1.9424,1.9424,1.9424,1.9424,1.9424,1.9424,1.9424,1.9424,1.9366,1.9294,1.8273,1.6915,2.5693,2.5693,2.5693,2.5693,2.5693,2.5693,2.5693,2.5693,2.5693,2.5693,2.5693,0.0,0.0,0.0,0.0,0.0,2.5693,2.5693,2.5693,2.5693,2.5479,2.5069,2.4146,2.3692,2.3692,2.1904,2.0786,2.0333,1.9947,1.9591,1.9179,1.9702,2.0682,2.2057,2.1592,2.1111,2.083,2.2583,2.2324,2.0913,2.2949,2.3613,2.334,2.3149,2.3091,2.3047,0.0,2.1712,2.0612,0.0,0.0,0.0,1.7451,0.0,0.0,1.6062,0.0,1.5784,0.0,0.0,1.5831,1.6072,1.6126,1.6172,1.6366,1.6413,1.644,1.654,1.656,1.6647,1.6947,1.7132,1.7266,1.746,1.7515,1.7582,1.7582,1.7849,1.8102,1.8457,1.8744,0.0,0.0,0.0,0.0,1.9424,1.9424,1.9424,1.9424,1.9424,1.9424,1.9424,1.9424,1.9424,1.9424,1.9424,1.9424,1.9424,1.9424,1.9424,1.9424,1.9424,1.9424,1.9424,1.9424,1.9424,1.9424,1.9424,1.9424,1.9424,1.9424,1.9424,1.9424,1.9424,1.9068,1.8571,0.0,2.5693,2.5693,2.5693,2.5693,0.0,0.0,0.0,0.0,0.0,0.0,0.0,0.0,0.0,0.0,0.0,0.0,2.5693,2.5693,2.5693,2.5693,2.5693,2.4864,2.4402,2.4402,2.3076,2.1954,2.1049,2.1049,2.0641,1.9775,2.0179,2.059,2.1084,2.1022,2.0744,2.0467,2.2173,2.2198,2.1179,2.2855,2.3389,2.3091,2.3091,2.3091,0.0,2.3091,2.2589,0.0,0.0,0.0,0.0,0.0,0.0,0.0,0.0,1.6059,1.6119,1.6019,1.6066,1.6186,1.638,1.6426,1.6473,1.666,1.6707,1.6734,1.684,1.6867,1.6954,1.73,1.7353,1.742,1.7555,1.7582,1.7622,1.7736,1.8009,1.8317,1.8611,1.8905,1.9158,0.0,0.0,0.0,1.9424,1.9424,1.9424,1.9424,1.9466,1.9519,1.9519,1.9626,1.9679,1.9679,1.9679,1.9679,1.9673,1.9573,1.9519,1.9519,1.9412,1.9424,1.9424,1.9424,1.9424,1.9424,1.9424,1.9424,1.9424,1.9424,1.9424,1.9424,1.9424,1.9424,1.9424,0.0,0.0,2.5693,0.0,0.0,0.0,0.0,0.0,0.0,0.0,0.0,0.0,0.0,0.0,0.0,0.0,0.0,0.0,2.5693,2.5693,2.5693,2.5693,2.5693,2.5693,2.5693,2.4452,2.3791,2.3692,2.3692,2.3642,2.3583,2.234,2.2432,2.3588,2.1923,2.1596,2.2456,2.3372,2.3471,2.3003,2.3091,2.3091,2.3091,2.3091,2.3091,2.3091,2.3091,0.0,0.0,0.0,0.0,0.0,0.0,0.0,0.0,0.0,0.0,1.6647,1.6373,1.65,1.6707,1.6727,1.6727,1.6734,1.6747,1.6747,1.6834,1.7166,1.7226,1.7306,0.0,0.0,1.7582,1.7582,1.7582,1.7689,1.7949,1.8303,1.8597,0.0,0.0,0.0,0.0,0.0,0.0,1.9424,0.0,1.943,1.945,1.9653,1.9806,1.982,2.0087,2.0173,2.0173,2.0173,2.0173,2.0227,1.9953,1.982,1.9813,1.9519,1.945,1.945,1.943,1.9424,1.9424,1.9424,1.9424,1.9424,1.9424,1.9424,1.9424,1.9424,1.9424,1.9424,0.0,0.0,0.0,0.0,0.0,0.0,0.0,0.0,0.0,0.0,0.0,0.0,0.0,0.0,0.0,0.0,0.0,0.0,2.5693,2.5693,2.5693,2.5693,2.5693,2.5693,2.5693,2.5382,2.4716,2.3692,2.3692,2.3176,2.2198,2.2531,2.2841,2.3165,2.3093,2.2732,2.2152,2.2942,2.2685,2.1845,2.2721,2.3091,2.3091,2.3091,2.3091,2.3091,2.3091,0.0,0.0,0.0,0.0,0.0,0.0,1.6784,1.6321,0.0,0.0,1.6693,1.6613,1.6647,1.676,1.7032,1.7085,1.7146,1.7308,1.7361,1.7382,1.7455,1.7521,1.7495,0.0,0.0,0.0,1.7582,1.7582,0.0,1.7949,1.8303,0.0,1.8885,0.0,1.9424,1.9424,1.9424,0.0,0.0,1.9424,1.9459,1.9679,1.976,1.99,2.0114,2.0133,2.0173,2.0173,2.0173,2.0173,2.0173,2.0154,2.012,2.0114,1.982,1.9686,1.9679,1.9459,1.9424,1.9424,1.9424,1.9424,1.9424,1.9424,1.9424,1.9424,1.9424,1.9424,1.9424,0.0,0.0,0.0,0.0,0.0,0.0,0.0,0.0,0.0,0.0,0.0,0.0,0.0,0.0,0.0,0.0,0.0,0.0,0.0,2.5693,2.5693,2.5693,2.5693,2.5693,2.5693,2.5693,2.5333,2.4559,2.4559,2.4104,2.3207,2.3041,2.2901,2.276,2.2862,2.2538,2.1952,2.278,2.2721,0.0,0.0,2.3091,2.3091,2.3091,2.3091,0.0,0.0,0.0,0.0,0.0,0.0,1.7132,1.722,1.6995,1.6703,1.6703,0.0,1.7061,1.6934,1.6994,1.7128,1.7347,1.7393,1.7434,1.7549,1.7582,1.7582,1.7582,1.7582,0.0,0.0,0.0,0.0,0.0,0.0,0.0,1.8176,1.8384,1.8644,0.0,1.9265,0.0,1.9424,1.9424,1.9419,0.0,1.9559,1.9626,1.9793,2.0047,2.0261,2.0421,2.0548,2.0615,2.0615,2.0615,2.0615,2.0615,2.0488,2.0428,2.0421,2.012,1.992,1.9786,0.0,1.9486,1.9424,1.9424,1.9424,1.9424,1.9424,1.9424,1.9424,1.9424,1.9424,1.9424,0.0,0.0,0.0,0.0,0.0,0.0,0.0,0.0,0.0,0.0,2.5693,2.5693,0.0,0.0,0.0,0.0,0.0,0.0,0.0,0.0,2.5693,2.5693,2.5693,2.5693,2.5693,2.5693,2.5693,2.5693,2.5693,2.5508,2.5068,2.3773,2.2951,2.2561,2.2171,2.1989,2.2017,2.2796,2.3091,2.3091,2.3091,2.3091,2.3091,0.0,0.0,0.0,0.0,0.0,0.0,0.0,1.8185,1.6373,1.6627,1.6907,1.7199,1.7199,1.7407,1.7528,1.7326,1.744,1.7582,1.7582,1.7582,1.7582,1.7582,1.7582,1.7582,1.7582,0.0,1.7582,1.7582,1.7582,1.7582,1.7582,0.0,1.7796,1.8404,1.849,1.8711,1.9357,1.9424,1.9424,1.9424,1.9406,1.9533,1.978,1.9873,1.992,1.992,2.0401,2.0695,2.0735,2.0982,2.1109,2.1109,2.1109,2.1109,2.1109,2.0855,2.0735,2.0722,2.0428,2.0154,1.9913,1.9833,1.9659,1.9419,1.9379,1.9424,1.9424,1.9424,1.9424,1.9424,1.9424,1.9424,1.9424,0.0,0.0,0.0,0.0,0.0,0.0,0.0,0.0,0.0,0.0,2.5693,2.5693,0.0,0.0,0.0,0.0,0.0,0.0,0.0,0.0,0.0,2.5693,2.5693,2.5693,2.5693,2.5693,0.0,0.0,0.0,2.5508,2.5106,2.4454,2.3919,2.3551,2.3082,2.289,2.288,2.3033,2.3091,2.3091,2.3091,2.3091,2.3091,0.0,0.0,0.0,0.0,0.0,0.0,0.0,1.7629,1.664,1.6693,1.6907,1.7199,1.7199,1.7407,1.7569,1.7522,1.7542,1.7582,1.7582,1.7582,1.7582,1.7582,1.7582,0.0,0.0,1.7582,1.7582,1.7582,1.7582,0.0,1.7582,0.0,0.0,0.0,0.0,1.8711,0.0,0.0,0.0,0.0,0.0,0.0,0.0,0.0,2.0521,2.0521,2.0621,2.0782,2.1029,2.1082,2.1109,2.1109,2.1109,2.1109,2.1109,2.1056,2.1036,2.1022,2.0735,2.0575,2.0501,2.0013,0.0,1.9706,1.9466,1.9424,1.9424,1.9424,1.9424,1.9424,1.9424,1.9424,1.9424,0.0,0.0,0.0,0.0,0.0,0.0,0.0,2.5693,2.5693,2.5693,2.5693,2.5693,2.5693,2.5693,2.5693,0.0,0.0,0.0,0.0,0.0,0.0,0.0,0.0,0.0,0.0,0.0,0.0,0.0,0.0,0.0,0.0,0.0,0.0,0.0,0.0,0.0,0.0,0.0,2.3091,0.0,0.0,0.0,0.0,0.0,0.0,0.0,0.0,0.0,0.0,0.0,1.9566,1.8085,1.7235,1.7192,1.7427,1.7427,1.7475,1.7582,1.7582,1.7582,1.7582,1.7582,1.7582,1.7582,1.7582,0.0,0.0,0.0,1.7582,1.7582,1.7582,0.0,0.0,0.0,0.0,0.0,0.0,0.0,0.0,0.0,0.0,0.0,0.0,0.0,0.0,0.0,0.0,2.0675,2.0675,2.0822,2.0962,2.1109,2.1109,2.1109,2.1109,2.1109,2.1109,2.1109,2.1109,2.1109,2.1109,2.0962,2.0822,2.0661,2.0374,0.0,1.9786,1.9646,1.9506,1.9424,1.9424,1.9424,1.9424,1.9424,1.9424,1.9424,0.0,0.0,0.0,0.0,0.0,0.0,2.5693,2.5693,2.5693,2.5693,2.5693,2.5693,2.5693,2.5693,2.5693,0.0,0.0,0.0,0.0,0.0,0.0,0.0,0.0,0.0,0.0,0.0,0.0,0.0,0.0,0.0,0.0,0.0,0.0,0.0,0.0,0.0,0.0,0.0,0.0,0.0,0.0,0.0,0.0,0.0,0.0,0.0,0.0,0.0,0.0,0.0,2.186,2.0192,1.8672,1.7901,1.7582,1.7582,1.7582,1.7582,1.7582,1.7582,1.7582,1.7582,1.7582,1.7582,1.7582,1.7582,0.0,0.0,1.7582,1.7582,1.7582,0.0,0.0,0.0,0.0,0.0,0.0,0.0,0.0,0.0,0.0,0.0,0.0,0.0,0.0,0.0,0.0,0.0,2.0768,2.0989,2.1109,2.1109,2.1109,2.1109,2.1109,2.1109,2.1109,2.1109,2.1109,2.1109,2.1109,2.1109,2.0989,2.0768,2.0702,0.0,1.9887,1.9826,1.9633,1.9424,1.9424,1.9424,1.9424,1.9424,1.9424,1.9424,0.0,0.0,0.0,0.0,0.0,0.0,2.5693,2.5693,2.5693,2.5693,2.5693,2.5693,2.5693,2.5693,2.5693,0.0,0.0,0.0,0.0,0.0,0.0,0.0,0.0,0.0,0.0,0.0,0.0,0.0,0.0,0.0,0.0,0.0,0.0,0.0,0.0,0.0,0.0,0.0,0.0,0.0,0.0,0.0,0.0,0.0,0.0,0.0,0.0,0.0,0.0,0.0,0.0,2.3076,2.1711,1.9598,1.7582,1.7582,0.0,0.0,1.7582,1.7582,1.7582,1.7582,1.7582,1.7582,1.7582,0.0,0.0,1.7582,1.7582,1.7582,1.7582,1.7582,1.7582,0.0,0.0,0.0,0.0,0.0,0.0,0.0,0.0,0.0,0.0,0.0,0.0,0.0,0.0,0.0,2.1069,2.1096,2.1109,2.1109,2.1109,2.1109,2.1109,2.1109,2.1109,2.1109,2.1109,2.1109,2.1109,2.1109,2.1096,2.1056,2.0795,0.0,0.0,1.9907,1.9633,1.9424,1.9424,1.9424,1.9424,1.9424,1.9424,1.9424,0.0,0.0,0.0,0.0,0.0,0.0,2.5693,2.5693,2.5693,2.5693,2.5693,2.5693,2.5693,2.5693,2.5693,2.5693,2.5693,0.0,0.0,0.0,0.0,0.0,0.0,0.0,0.0,0.0,2.4678,2.4678,0.0,0.0,0.0,0.0,0.0,0.0,0.0,0.0,0.0,0.0,0.0,0.0,0.0,0.0,0.0,0.0,0.0,0.0,0.0,0.0,0.0,0.0,0.0,0.0,2.3076,2.16,0.0,0.0,1.8812,1.861,1.7838,1.7582,1.7582,1.7582,1.7582,1.7582,1.7582,0.0,1.7582,1.7582,1.7582,1.7582,1.7582,1.7582,1.7582,0.0,0.0,0.0,0.0,0.0,0.0,0.0,0.0,0.0,0.0,0.0,0.0,0.0,0.0,0.0,2.1109,2.1109,2.1109,2.1109,2.1109,2.1109,2.1109,2.1109,2.1109,2.1109,2.1109,2.1109,2.1109,2.1109,2.1109,2.1102,2.0989,0.0,0.0,2.0107,1.9786,1.9424,1.9424,1.9424,1.9424,1.9424,1.9424,1.9424,0.0,0.0,0.0,0.0,0.0,2.5693,2.5693,2.5693,2.5693,2.5693,2.5693,2.5693,2.5693,2.5693,2.5693,2.5693,2.5567,0.0,0.0,0.0,0.0,0.0,0.0,0.0,0.0,0.0,2.4228,2.4228,2.3809,2.3594,0.0,0.0,0.0,0.0,0.0,0.0,0.0,0.0,0.0,0.0,0.0,0.0,0.0,0.0,0.0,0.0,0.0,0.0,0.0,0.0,0.0,0.0,0.0,0.0,0.0,0.0,1.9576,1.9324,1.7943,1.7582,1.7582,1.7582,1.7582,1.7582,0.0,1.7582,1.7582,1.7582,1.7582,1.7582,1.7582,1.7582,1.7582,0.0,0.0,1.7655,0.0,0.0,0.0,0.0,0.0,0.0,0.0,0.0,0.0,0.0,0.0,0.0,2.1109,2.1109,2.1109,2.1109,2.1109,2.1109,2.1109,2.1109,2.1109,2.1109,2.1109,2.1109,2.1109,2.1109,2.1109,2.1109,2.1109,0.0,0.0,2.0267,1.994,1.9486,1.9457,1.9424,1.9424,1.9424,1.9424,1.9424,0.0,0.0,0.0,0.0,0.0,2.5693,2.5693,2.5693,2.5693,2.5693,2.5693,2.5693,2.5693,2.5693,2.5693,2.5693,2.5332,0.0,0.0,0.0,0.0,0.0,0.0,0.0,2.5116,2.4228,2.3799,2.3799,2.3359,2.3101,2.3101,2.3091,0.0,0.0,0.0,0.0,0.0,0.0,0.0,0.0,0.0,0.0,0.0,0.0,0.0,0.0,0.0,0.0,0.0,0.0,0.0,0.0,0.0,2.5684,2.4873,0.0,1.9576,1.9324,1.7943,1.7582,1.7582,1.7582,1.7582,1.7582,0.0,1.7582,1.7582,1.7582,1.7582,1.7582,1.7582,1.7582,1.7582,1.7582,1.7582,0.0,0.0,0.0,0.0,0.0,0.0,0.0,0.0,0.0,0.0,0.0,0.0,0.0,2.1109,2.1109,2.1109,2.1109,2.1109,2.1109,2.1109,2.1109,2.1109,2.1109,2.1109,2.1109,2.1109,2.1109,2.1109,2.1109,0.0,0.0,0.0,2.0354,2.006,1.9766,1.9479,1.9424,1.9424,1.9424,1.9424,1.9424,0.0,0.0,0.0,0.0,0.0,0.0,2.5693,2.5693,2.5693,2.5693,2.5693,2.5693,2.5693,2.5693,2.5693,2.5693,2.5322,0.0,0.0,0.0,0.0,0.0,0.0,0.0,2.4199,2.3643,2.3305,2.3305,2.3159,2.3091,2.3091,2.3091,2.3091,2.3091,0.0,0.0,0.0,0.0,0.0,0.0,0.0,0.0,0.0,0.0,0.0,0.0,0.0,0.0,0.0,0.0,0.0,0.0,0.0,0.0,0.0,2.3035,2.2416,2.2114,2.0786,2.0377,2.0179,1.922,1.8961,1.8708,1.7786,1.8297,1.8708,1.7786,1.8349,1.8708,1.7786,1.7582,1.7582,1.7582,1.7582,0.0,0.0,0.0,0.0,0.0,0.0,0.0,0.0,0.0,0.0,0.0,0.0,0.0,2.1109,2.1109,2.1109,2.1109,2.1109,2.1109,2.1109,2.1109,2.1109,2.1109,2.1109,2.1109,2.1109,2.1109,2.1109,0.0,0.0,0.0,0.0,2.0575,2.0361,2.0087,1.9993,1.996,1.996,1.996,1.9833,1.9659,0.0,0.0,0.0,0.0,0.0,0.0,2.5693,2.5693,2.5693,2.5693,2.5693,2.5693,2.5693,2.5693,2.5693,2.5693,2.5322,0.0,0.0,0.0,0.0,0.0,0.0,0.0,2.4268,2.3682,2.3344,2.3344,2.3179,2.3091,2.3091,2.3091,2.3091,2.3091,2.3091,2.3091,0.0,0.0,0.0,0.0,0.0,0.0,2.4043,0.0,0.0,0.0,0.0,0.0,0.0,0.0,0.0,0.0,0.0,0.0,0.0,0.0,2.4452,2.4048,0.0,2.1702,2.1499,2.059,2.0385,2.0179,1.9317,1.9775,2.0187,1.9317,1.9826,1.9981,1.8603,1.8349,1.8199,1.7687,1.7582,0.0,0.0,0.0,0.0,0.0,0.0,0.0,0.0,0.0,0.0,0.0,0.0,0.0,2.1109,2.1109,2.1109,2.1109,2.1109,2.1109,2.1109,2.1109,2.1109,2.1109,2.1109,2.1109,2.1109,2.1109,2.1109,0.0,0.0,0.0,0.0,2.0722,2.0568,2.0388,2.0274,2.0173,2.0173,2.0173,2.0114,1.9947,0.0,0.0,0.0,0.0,0.0,0.0,0.0,2.5781,2.5781,2.5684,2.5693,2.5693,2.5693,2.5693,2.5693,2.5693,2.5361,0.0,0.0,0.0,0.0,0.0,0.0,2.5067,2.5067,2.4238,2.3838,2.3838,2.3428,2.3188,2.3188,2.3188,2.3188,2.3188,2.3188,2.3188,2.3188,2.3188,2.3647,2.4385,2.3984,2.4092,0.0,0.0,0.0,0.0,0.0,0.0,0.0,0.0,0.0,0.0,0.0,0.0,0.0,0.0,0.0,0.0,0.0,2.2005,2.1954,2.1853,2.1853,2.1803,2.1702,2.1752,0.0,2.1702,2.1803,2.1397,1.9886,1.9576,1.9169,1.7838,0.0,0.0,0.0,0.0,0.0,0.0,0.0,0.0,0.0,0.0,0.0,0.0,0.0,0.0,2.1109,2.1109,2.1109,2.1109,2.1089,2.1089,2.1109,2.1109,2.1109,2.1109,2.1109,2.1109,2.1109,2.1109,2.1109,0.0,0.0,0.0,0.0,2.0815,2.0708,2.0681,2.0401,2.0233,2.0233,2.0233,2.0281,2.0227,0.0,0.0,0.0,0.0,0.0,0.0,0.0,0.0,0.0,0.0,2.5693,2.5693,2.5693,2.5693,2.5693,0.0,0.0,0.0,0.0,0.0,0.0,0.0,2.457,2.457,2.457,2.4375,2.4268,2.4268,2.417,2.4066,2.4066,2.4066,2.4066,2.4066,2.4066,2.4066,2.4066,2.4066,2.4228,2.4404,2.4307,2.4531,0.0,0.0,0.0,0.0,2.5654,2.5693,0.0,0.0,0.0,0.0,0.0,0.0,0.0,0.0,2.5693,2.5586,2.4922,0.0,2.4501,2.3484,2.3226,2.2968,0.0,2.2508,2.2918,2.1904,0.0,2.2466,2.0033,1.9576,1.9169,0.0,0.0,0.0,0.0,0.0,0.0,0.0,0.0,0.0,0.0,0.0,0.0,0.0,0.0,2.1109,2.1109,2.1109,2.1109,2.1109,2.0895,2.0882,2.1109,2.1109,2.1109,2.1109,2.1109,2.1109,2.1109,2.1109,2.1109,0.0,0.0,0.0,2.1109,2.1036,2.1009,2.1002,2.0929,2.0902,2.0902,2.0902,2.0762,2.0561,0.0,0.0,0.0,0.0,0.0,0.0,0.0,0.0,0.0,0.0,2.6062,2.5693,2.5693,2.5693,2.5927,0.0,0.0,0.0,0.0,0.0,0.0,2.4982,2.4982,2.4982,2.4982,2.4824,2.4717,2.4717,2.4521,2.4414,2.4414,2.4414,2.4414,2.4414,2.4414,2.4531,2.4697,2.4502,2.4648,2.5,2.4795,0.0,0.0,0.0,0.0,0.0,2.5693,2.5693,0.0,2.5693,2.5693,2.5693,0.0,0.0,0.0,0.0,2.5693,2.5693,2.5693,2.5693,2.5538,2.4815,2.4609,2.4452,2.3692,2.4097,0.0,0.0,0.0,0.0,0.0,0.0,0.0,0.0,0.0,0.0,0.0,0.0,0.0,0.0,0.0,0.0,0.0,0.0,0.0,0.0,0.0,2.0909,2.0909,2.0909,2.0848,2.0708,2.0555,2.0615,2.0909,2.0775,2.0708,2.0708,2.0708,2.0708,2.0708,2.0708,2.0782,0.0,0.0,0.0,2.1109,2.1109,2.1109,2.1109,2.1109,2.1109,2.1109,2.1109,2.1009,2.0855,0.0,0.0,0.0,0.0,0.0,0.0,0.0,0.0,0.0,0.0,0.0,0.0,0.0,0.0,0.0,0.0,0.0,0.0,0.0,0.0,2.5693,2.5693,2.5693,2.5693,2.5693,2.5361,2.5166,2.5166,2.4795,2.4619,2.4619,2.4619,2.4619,2.4619,2.4619,2.4824,2.5194,2.4775,2.5001,2.5654,2.5322,0.0,0.0,0.0,0.0,0.0,0.0,0.0,0.0,2.5693,2.5693,2.5693,2.5693,0.0,0.0,0.0,0.0,0.0,2.5693,2.5693,2.5693,2.5693,2.5693,2.5693,2.5693,0.0,0.0,0.0,0.0,0.0,0.0,0.0,0.0,0.0,0.0,0.0,0.0,0.0,0.0,0.0,0.0,0.0,0.0,0.0,0.0,0.0,0.0,2.0608,2.0608,2.0608,2.0494,2.0241,2.0187,2.0287,2.0541,2.0334,2.0173,2.0173,2.0173,2.0173,2.0173,2.0173,2.0368,2.0608,0.0,0.0,2.1049,2.1089,2.1109,2.1109,2.1109,2.1109,2.1109,2.1109,2.1109,2.1062,0.0,0.0,0.0,0.0,0.0,0.0,0.0,0.0,0.0,0.0,0.0,0.0,0.0,0.0,0.0,0.0,0.0,0.0,0.0,2.639,2.5693,2.5693,2.5693,2.5693,2.5693,2.5625,2.5586,2.5586,2.5518,2.5489,2.5489,2.5489,2.5489,2.5489,2.5489,2.5528,2.5586,2.5518,2.5567,2.5684,2.5615,0.0,0.0,0.0,0.0,0.0,0.0,0.0,0.0,2.5693,2.5693,2.5693,2.5693,0.0,0.0,0.0,0.0,0.0,2.5693,2.5693,2.5693,2.5693,2.5693,2.5693,2.5693,0.0,0.0,0.0,0.0,0.0,0.0,0.0,0.0,0.0,0.0,0.0,0.0,0.0,0.0,0.0,0.0,0.0,0.0,0.0,0.0,0.0,0.0,2.0301,2.0301,2.0301,2.0281,2.0173,1.9993,1.9887,1.9933,2.0134,2.0173,2.0173,2.0173,2.0173,2.0173,2.0173,2.0261,2.0314,0.0,2.0702,2.0762,2.1009,2.1109,2.1109,2.1109,2.1109,2.1109,2.1109,2.1109,2.1029,0.0,0.0,0.0,0.0,0.0,0.0,0.0,0.0,0.0,0.0,0.0,0.0,0.0,0.0,0.0,0.0,0.0,0.0,0.0,2.704,2.6438,2.5732,2.5693,2.5693,2.5693,2.5693,2.5693,2.5693,2.5693,2.5693,2.5693,2.5693,2.5693,2.5693,2.5693,2.5693,2.5693,2.5693,2.5693,2.5693,0.0,0.0,0.0,0.0,0.0,0.0,0.0,0.0,0.0,0.0,2.5693,2.5693,2.5693,0.0,0.0,0.0,0.0,0.0,2.5693,2.5693,2.5693,2.5693,2.5693,2.5693,2.5693,2.5693,0.0,0.0,0.0,0.0,0.0,0.0,0.0,0.0,0.0,0.0,0.0,0.0,0.0,0.0,0.0,0.0,0.0,0.0,0.0,0.0,0.0,0.0,2.0,2.0,1.9927,1.9773,1.9633,1.9566,1.9566,2.0489,2.0955,2.0955,2.016,2.0219,2.0955,2.0101,1.9853,2.0013,0.0,2.0528,2.0702,2.0989,2.1601,2.2341,2.1475,2.1664,2.2341,2.1418,2.1009,2.0815,0.0,0.0,0.0,0.0,0.0,0.0,0.0,0.0,0.0,0.0,0.0,0.0,0.0,0.0,0.0,0.0,0.0,0.0,0.0,2.7778,2.703,2.5781,2.5693,2.5693,2.5693,2.5693,2.5693,2.5693,2.5693,2.5693,2.5693,2.5693,2.5693,2.5693,2.5693,2.5693,2.5693,2.5693,2.5693,2.5693,0.0,0.0,0.0,0.0,0.0,0.0,0.0,0.0,0.0,0.0,0.0,0.0,0.0,0.0,0.0,2.5693,2.5693,2.5693,2.5693,2.5693,2.5693,2.5693,2.5693,2.5693,2.5693,2.5693,0.0,0.0,0.0,0.0,0.0,0.0,0.0,0.0,0.0,0.0,0.0,0.0,0.0,0.0,0.0,0.0,0.0,0.0,0.0,0.0,0.0,0.0,2.0723,2.0723,2.0611,2.0443,2.0429,2.0429,2.0429,2.1536,2.1919,2.1578,2.0816,2.1038,2.2089,2.0594,2.0048,2.0223,2.012,2.0301,2.0656,2.1313,2.2402,2.3512,2.2577,2.2827,2.345,2.2153,2.1291,2.0635,0.0,0.0,0.0,0.0,0.0,0.0,0.0,0.0,0.0,0.0,0.0,0.0,0.0,0.0,0.0,0.0,0.0,0.0,2.9361,2.8226,2.703,2.5781,2.5693,2.5693,2.5693,2.5693,2.5693,2.5693,2.5693,2.5693,2.5693,2.5693,2.5693,2.5693,2.5693,2.5693,2.5693,2.5693,2.5693,2.5693,2.5693,0.0,0.0,0.0,0.0,0.0,0.0,0.0,0.0,0.0,0.0,0.0,0.0,0.0,2.5693,2.5693,2.5693,2.5693,2.5693,2.5693,2.5693,2.5693,2.5693,2.5693,2.5693,2.5693,0.0,2.5693,0.0,0.0,0.0,0.0,0.0,0.0,0.0,0.0,0.0,0.0,0.0,0.0,0.0,0.0,0.0,0.0,0.0,0.0,0.0,0.0,2.3528,2.3528,2.3511,2.3487,2.3487,2.3487,2.3487,2.3599,2.2927,2.1643,2.287,2.3543,2.3599,2.2089,2.143,2.1417,2.0327,1.9993,2.0409,2.2201,2.3228,2.3752,2.5138,2.484,2.3574,2.345,2.2267,2.0635,0.0,0.0,0.0,0.0,0.0,0.0,0.0,0.0,0.0,0.0,0.0,0.0,0.0,0.0,0.0,0.0,0.0,0.0,2.7295,2.74,2.703,2.5781,2.5693,2.5693,2.5693,2.5693,2.5693,2.5693,2.5693,2.5693,2.5693,2.5693,2.5693,2.5693,2.5693,2.5693,2.5693,2.5693,2.5693,2.5693,2.5693,2.5693,0.0,0.0,0.0,0.0,0.0,0.0,0.0,0.0,2.5693,2.5693,2.5693,2.5693,2.5693,2.5693,2.5693,2.5693,2.5693,2.5693,2.5693,2.5693,2.5693,0.0,0.0,2.5693,2.5693,2.5693,2.5693,0.0,0.0,0.0,0.0,0.0,0.0,0.0,0.0,0.0,0.0,0.0,0.0,0.0,0.0,0.0,0.0,0.0,0.0,0.0,2.3822,2.3822,2.3822,2.3822,2.3822,2.3822,2.3822,2.4765,2.4931,2.4369,2.3989,2.4322,2.5151,2.3646,2.2983,2.295,2.2735,2.2678,2.2831,2.3964,2.5171,2.6287,2.7176,2.6327,2.463,2.463,2.3323,2.1496,0.0,0.0,0.0,0.0,0.0,0.0,0.0,0.0,0.0,0.0,0.0,0.0,0.0,0.0,0.0,0.0,0.0,0.0,2.7067,2.7673,2.7447,2.5781,2.5693,2.5693,2.5693,2.5693,2.5693,2.5693,2.5693,2.5693,2.5693,2.5693,2.5693,2.5693,2.5693,2.5693,2.5693,2.5693,2.5693,2.5693,2.5693,2.5693,0.0,0.0,0.0,0.0,0.0,0.0,0.0,0.0,2.5693,2.5693,2.5693,2.5693,2.5693,2.5693,2.5693,2.5693,2.5693,2.5693,2.5693,2.5693,0.0,0.0,2.5693,2.5693,2.5693,2.5693,2.5693,0.0,0.0,0.0,0.0,0.0,0.0,0.0,0.0,0.0,0.0,0.0,0.0,0.0,0.0,0.0,0.0,0.0,0.0,0.0,0.0,2.5215,2.5215,2.5215,2.5215,2.5215,2.5215,2.6273,2.6771,2.6771,2.5717,2.5772,2.6717,2.5215,2.4544,2.4505,2.4255,2.4211,2.4351,2.5368,2.6763,2.839,2.8658,2.7575,2.5864,2.5864,2.4529,2.2759,0.0,0.0,0.0,0.0,0.0,0.0,0.0,0.0,3.3124,3.3124,3.3124,0.0,0.0,0.0,0.0,0.0,0.0,0.0,2.9544,2.9407,2.8308,2.583,2.5742,2.5742,2.5742,2.5732,2.5684,2.5693,2.5693,2.5693,2.5693,2.5693,2.5693,2.5693,2.5693,2.5693,2.5693,2.5693,2.5693,2.5693,2.5693,2.5693,2.5693,0.0,0.0,0.0,0.0,0.0,0.0,0.0,2.5693,2.5693,2.5693,2.5693,2.5693,2.5693,2.5693,2.5693,2.5693,2.5693,2.5693,0.0,0.0,0.0,2.5693,2.5693,2.5693,2.5693,0.0,2.5693,2.5693,0.0,0.0,0.0,0.0,0.0,0.0,0.0,0.0,0.0,0.0,0.0,0.0,0.0,0.0,0.0,0.0,0.0,0.0,2.8291,2.8291,2.8291,2.8291,2.8291,2.8291,2.8291,2.8291,2.8291,2.8291,2.8291,2.8237,2.6771,2.61,2.6045,2.4488,2.4028,2.448,2.609,2.7865,2.9626,2.9626,2.8578,2.7122,2.7122,2.5952,2.431,0.0,0.0,0.0,0.0,0.0,0.0,0.0,0.0,3.3124,3.3124,3.3124,0.0,0.0,0.0,0.0,0.0,0.0,0.0,2.9498,2.9407,2.9085,2.8355,2.8308,2.8308,2.8308,2.7484,2.662,2.5693,2.5693,2.5693,2.5693,2.5693,2.5693,2.5693,2.5693,2.5693,2.5693,2.5693,2.5693,2.5693,2.5693,2.5693,2.5693,0.0,0.0,0.0,0.0,0.0,0.0,0.0,0.0,0.0,2.5693,2.5693,2.5693,2.5693,2.5693,2.5693,2.5693,2.5693,0.0,2.5693,0.0,0.0,0.0,2.5693,0.0,0.0,0.0,2.5693,0.0,0.0,0.0,0.0,0.0,0.0,0.0,0.0,0.0,0.0,0.0,0.0,0.0,0.0,0.0,0.0,0.0,0.0,0.0,2.8291,2.8291,2.8291,2.8291,2.8291,2.8291,2.8291,2.8291,2.8291,2.8291,2.8291,2.8291,2.7843,2.7672,2.7618,2.7168,2.7017,2.7157,2.795,2.8774,2.9626,2.9626,2.9087,2.8365,2.8365,2.7188,2.5547,0.0,0.0,0.0,0.0,0.0,0.0,0.0,0.0,3.3124,3.3124,3.3124,3.3124,0.0,0.0,0.0,0.0,0.0,0.0,3.0181,3.0135,2.9909,2.9407,2.9407,2.9407,2.9407,2.8226,2.722,2.6428,2.5965,2.5693,2.5693,2.5693,2.5693,2.5693,2.5693,2.5693,2.5693,2.5693,2.5693,2.5693,2.5693,2.5693,2.5693,0.0,0.0,0.0,0.0,0.0,0.0,0.0,0.0,0.0,2.5693,2.5693,2.5693,2.5693,2.5693,2.5693,2.5693,2.5693,0.0,2.5693,2.5693,2.5693,2.5693,0.0,0.0,0.0,0.0,0.0,0.0,0.0,0.0,0.0,0.0,0.0,0.0,0.0,0.0,0.0,0.0,0.0,0.0,0.0,0.0,0.0,0.0,0.0,0.0,2.8291,2.8291,2.8291,2.8291,2.8291,2.8291,2.8291,2.8291,2.8291,2.8291,2.8291,2.8291,2.8291,2.8291,2.8291,2.8291,2.8291,2.831,2.8564,2.8828,2.9062,2.9062,2.8896,2.8672,2.8672,2.7946,2.6997,0.0,0.0,3.3124,3.3124,0.0,0.0,0.0,0.0,3.3124,3.3124,3.3124,3.3124,0.0,0.0,0.0,0.0,0.0,0.0,3.1456,3.1356,3.0866,2.9772,2.9727,2.9681,2.959,2.8495,2.7861,2.7767,2.638,2.5781,2.5878,2.5732,2.5801,2.5937,2.5791,2.5771,2.5801,2.5801,2.5801,2.5801,2.5801,2.5801,2.5801,2.5801,0.0,0.0,0.0,0.0,0.0,0.0,0.0,0.0,2.5693,2.5693,2.5693,2.5693,2.5693,2.5693,2.5693,0.0,0.0,2.5693,2.5693,0.0,2.5693,0.0,0.0,0.0,0.0,0.0,0.0,0.0,0.0,0.0,0.0,0.0,0.0,0.0,0.0,0.0,0.0,0.0,0.0,0.0,0.0,0.0,0.0,0.0,0.0,2.8291,2.8291,2.8291,2.8291,2.8291,2.8291,2.8291,2.8291,2.8291,2.8291,2.8291,2.8291,2.8291,2.8291,2.8291,2.8291,2.8291,2.8291,2.8291,2.8291,2.8291,2.8291,2.8291,2.8291,2.8291,2.8291,2.8291,0.0,0.0,3.3124,3.3124,0.0,0.0,0.0,0.0,0.0,0.0,0.0,0.0,0.0,0.0,0.0,0.0,0.0,0.0,3.2711,3.2698,3.2568,3.2339,3.2295,3.1833,3.081,3.0541,2.9943,2.8993,2.6802,2.6197,2.7173,2.6149,2.6425,2.7641,2.6665,2.6426,2.6738,2.6738,2.6738,2.6738,2.6738,2.6738,2.6738,2.6738,2.6533,0.0,0.0,0.0,0.0,0.0,0.0,0.0,2.5693,2.5693,2.5693,2.5693,2.5693,2.5693,2.5693,2.5693,0.0,0.0,2.5693,2.5693,2.5693,0.0,0.0,0.0,0.0,0.0,0.0,0.0,0.0,0.0,0.0,0.0,0.0,0.0,0.0,0.0,0.0,0.0,0.0,0.0,0.0,0.0,0.0,0.0,2.8291,2.8291,2.8291,2.8291,2.8291,2.8291,2.8291,2.8291,2.8291,0.0,2.8291,2.8291,2.8291,2.8291,2.8291,2.8291,2.8291,2.8291,2.8291,2.8291,2.8291,2.8291,2.8291,2.8291,2.8291,2.8291,2.8291,2.8291,0.0,0.0,0.0,0.0,0.0,0.0,0.0,0.0,0.0,0.0,0.0,0.0,0.0,0.0,0.0,0.0,0.0,0.0,3.347,3.3721,3.3872,3.3872,3.3872,3.3582,3.2865,3.2301,3.171,3.1055,2.9167,2.8124,2.7867,2.7477,2.7418,2.7591,2.6972,2.6807,2.7012,2.7012,2.7012,2.7012,2.7012,2.7012,2.7012,2.7012,2.6875,2.666,2.6465,0.0,0.0,0.0,0.0,0.0,0.0,0.0,2.5693,2.5693,2.5693,2.5693,2.5693,0.0,0.0,2.5693,0.0,0.0,0.0,0.0,0.0,0.0,0.0,0.0,0.0,0.0,0.0,0.0,0.0,0.0,0.0,0.0,0.0,0.0,0.0,0.0,0.0,0.0,0.0,0.0,0.0,2.8291,2.8291,2.8291,2.8291,2.8291,2.8291,2.8291,2.8291,2.8291,2.8291,2.8291,2.8291,2.8291,2.8291,2.8291,2.8291,2.8291,2.8291,2.8291,2.8291,2.8291,2.8291,2.8291,2.8291,2.8291,2.8291,2.8291,2.8291,2.8291,0.0,0.0,0.0,0.0,0.0,0.0,0.0,0.0,0.0,0.0,0.0,0.0,0.0,0.0,0.0,0.0,0.0,0.0,3.4035,3.4462,3.468,3.468,3.468,3.468,3.468,3.372,3.32,3.32,3.2265,3.0833,2.9112,2.9042,2.8557,2.7762,2.7324,2.7312,2.7525,2.7329,2.7236,2.7236,2.7236,2.7236,2.7236,2.7236,2.7187,2.708,2.6738,2.6514,2.6338,2.5977,0.0,0.0,0.0,0.0,2.5693,2.5693,2.5693,2.5693,2.5693,0.0,2.5693,2.5693,2.5693,0.0,0.0,0.0,0.0,0.0,0.0,0.0,0.0,0.0,0.0,0.0,0.0,0.0,0.0,0.0,0.0,0.0,0.0,0.0,0.0,0.0,0.0,0.0,0.0,2.8291,2.8291,2.8291,2.8291,2.8291,2.8291,2.8291,2.8291,2.8291,2.8291,2.8291,2.8291,2.8291,2.8291,2.8291,2.8291,2.8291,2.8291,2.8291,2.8291,2.8291,2.8291,2.8291,2.8291,2.8291,2.8291,2.8291,2.8291,2.8291,0.0,0.0,0.0,0.0,0.0,0.0,0.0,0.0,0.0,0.0,3.45,3.45,0.0,0.0,3.45,3.45,3.4562,3.4568,3.4568,0.0,0.0,3.468,3.468,3.468,3.468,3.4532,3.4487,3.4487,3.4764,3.4167,3.272,3.0166,2.9689,3.0811,2.8614,2.8433,2.9787,2.8625,2.8125,2.8125,2.8125,2.8125,2.8125,2.8125,2.79,2.762,2.7571,2.7012,2.6377,2.6328,2.6055,0.0,0.0,0.0,2.5693,2.5693,2.5693,2.5693,0.0,0.0,2.5693,0.0,0.0,0.0,0.0,0.0,0.0,0.0,0.0,0.0,0.0,0.0,0.0,0.0,0.0,0.0,0.0,0.0,0.0,0.0,0.0,0.0,0.0,0.0,0.0,0.0,2.8291,2.8291,2.8291,2.8291,2.8291,2.8291,2.8291,2.8291,2.8291,2.8291,2.8291,2.8291,2.8291,2.8291,2.8291,2.8291,2.8291,2.8291,2.8291,2.8291,2.8291,2.8291,2.8291,2.8291,2.8291,2.8291,2.8291,2.8291,2.8291,2.8291,0.0,0.0,0.0,0.0,0.0,0.0,0.0,0.0,0.0,0.0,0.0,3.468,3.468,3.468,3.468,3.468,3.4956,3.5316,3.5617,3.5642,3.5642,3.5642,3.5642,3.5642,3.5642,3.5642,3.5642,3.5642,3.5881,3.531,3.3968,3.2653,3.1617,3.0769,2.9673,2.9183,2.9154,2.8548,2.8291,2.8291,2.8291,2.8291,2.8291,2.8291,2.8174,2.7988,2.7806,2.7266,2.6699,2.6465,2.6103,2.5693,2.5693,0.0,0.0,0.0,2.5693,0.0,2.5693,2.5693,2.5693,0.0,0.0,0.0,0.0,0.0,0.0,0.0,0.0,0.0,0.0,0.0,0.0,0.0,0.0,0.0,0.0,0.0,0.0,0.0,0.0,0.0,0.0,0.0,0.0,0.0,2.8291,2.8291,2.8291,2.8291,2.8291,2.8291,2.8291,2.8291,2.8291,2.8291,2.8291,2.8291,2.8291,2.8291,2.8291,2.8291,2.8291,2.8291,2.8291,2.8291,2.8291,2.8291,2.8291,2.8291,2.8291,2.8291,2.8291,2.8291,2.8291,2.8291,0.0,0.0,0.0,0.0,0.0,0.0,0.0,0.0,0.0,0.0,0.0,3.514,3.514,0.0,0.0,0.0,3.5516,3.5931,3.638,3.6405,3.6405,3.6405,3.6405,3.6405,3.6405,3.6405,3.6405,3.6405,3.6405,3.5918,3.4933,3.4933,3.3613,3.1338,3.0628,2.9765,2.8804,2.8441,2.8291,2.8291,2.8291,2.8291,2.8291,2.8291,2.8291,2.8252,2.7939,2.748,2.6973,2.665,2.6182,2.5693,2.5693,2.5693,0.0,0.0,0.0,0.0,0.0,0.0,0.0,0.0,0.0,0.0,0.0,0.0,0.0,0.0,0.0,0.0,0.0,0.0,0.0,0.0,0.0,0.0,0.0,0.0,0.0,0.0,0.0,0.0,0.0,0.0,0.0,0.0,2.8291,2.8291,2.8291,2.8291,2.8291,2.8291,2.8291,2.8291,2.8291,2.8291,2.8291,2.8291,2.8291,2.8291,2.8291,2.8291,2.8291,2.8291,2.8291,2.8291,2.8291,2.8291,2.8291,2.8291,2.8291,2.8291,2.8291,2.8291,2.8291,2.8291,0.0,0.0,0.0,0.0,0.0,0.0,0.0,0.0,0.0,0.0,0.0,3.6317,3.6317,3.6317,3.6317,3.6317,3.6355,3.638,3.6405,3.6405,3.6405,3.6405,3.6405,0.0,3.6405,3.6405,3.6405,3.6405,3.6405,3.6358,3.631,3.631,3.5523,3.408,3.144,3.0266,3.011,2.8847,2.8291,2.8291,2.8291,2.8291,2.8291,2.8291,2.8291,2.8291,2.8271,2.7725,2.7012,2.6992,2.6376,2.5693,2.5693,2.5693,2.5693,0.0,0.0,0.0,0.0,0.0,0.0,0.0,0.0,0.0,0.0,0.0,0.0,0.0,0.0,0.0,0.0,0.0,0.0,0.0,0.0,0.0,0.0,0.0,0.0,0.0,0.0,0.0,0.0,0.0,0.0,0.0,2.8291,2.8291,2.8291,2.8291,2.8291,2.8291,2.8291,2.8291,2.8291,2.8291,2.8291,2.8291,2.8291,2.8291,2.8291,2.8291,2.8291,2.8291,2.8291,2.8291,2.8291,2.8291,2.8291,2.8291,2.8291,2.8291,2.8291,2.8291,2.8291,2.8291,0.0,0.0,0.0,0.0,0.0,0.0,0.0,0.0,0.0,0.0,0.0,0.0,0.0,3.6405,3.6405,3.6405,3.6405,3.6405,3.6405,3.6405,3.6405,3.6405,3.6405,3.6405,3.6405,3.6405,3.6405,3.6405,3.6405,3.6405,3.6405,3.6405,3.5667,3.4337,3.2443,3.1571,3.1429,2.9207,2.8804,2.9503,2.8654,2.8291,2.8291,2.8291,2.8291,0.0,0.0,0.0,0.0,2.7109,2.6631,2.6251,2.6759,2.6897,2.6897,2.6897,0.0,0.0,0.0,0.0,0.0,0.0,0.0,0.0,0.0,0.0,0.0,0.0,0.0,0.0,0.0,0.0,0.0,0.0,0.0,0.0,0.0,0.0,0.0,0.0,0.0,0.0,0.0,0.0,0.0,0.0,0.0,2.8008,2.8281,2.8291,2.8291,2.8291,2.8291,2.8291,2.8291,2.8291,2.8291,2.8291,2.8291,2.8291,2.8291,2.8291,2.8291,2.8291,2.8291,2.8291,2.8291,2.8291,2.8291,2.8291,2.8291,2.8291,2.8291,2.8291,2.8291,2.8291,0.0,0.0,0.0,3.6405,0.0,3.6405,3.6405,3.6405,3.6405,3.6405,0.0,0.0,0.0,0.0,3.6405,3.6405,3.6405,3.6405,3.6405,3.6405,3.6405,3.6405,3.6405,3.6405,3.6405,3.6405,3.6405,3.6405,3.6405,3.6405,3.6405,3.6405,3.5918,3.4969,3.3143,3.2028,3.1531,2.9713,2.9207,2.9555,2.8644,2.8291,2.8291,0.0,0.0,0.0,0.0,0.0,0.0,0.0,0.0,0.0,0.0,0.0,0.0,0.0,0.0,0.0,2.8912,0.0,0.0,0.0,0.0,0.0,0.0,0.0,0.0,0.0,0.0,0.0,0.0,0.0,0.0,0.0,0.0,0.0,0.0,0.0,0.0,0.0,0.0,0.0,0.0,0.0,0.0,0.0,0.0,0.0,2.8066,2.8223,2.8291,2.8291,2.8291,2.8291,2.8291,2.8291,2.8291,2.8291,2.8291,2.8291,2.8291,2.8291,2.8291,2.8291,2.8291,2.8291,2.8291,2.8291,2.8291,2.8291,2.8291,2.8291,2.8291,2.8291,2.8291,2.8291,3.6405,3.6405,3.6405,3.6405,3.6405,3.6405,3.6405,3.6405,3.6405,3.6405,0.0,0.0,0.0,0.0,0.0,3.6405,3.6405,3.6405,3.6405,3.6405,3.6405,3.6405,3.6405,3.6405,3.6405,3.6405,3.6405,3.6405,3.6405,3.6405,3.6405,3.6405,3.6405,3.6298,3.3589,3.1684,3.0421,3.0266,2.9565,2.8388,0.0,2.8344,2.8344,0.0,0.0,0.0,2.8344,2.7806,0.0,2.7114,0.0,0.0,0.0,0.0,0.0,0.0,0.0,0.0,0.0,0.0,0.0,0.0,0.0,0.0,0.0,0.0,0.0,0.0,0.0,0.0,0.0,0.0,0.0,0.0,0.0,0.0,0.0,0.0,0.0,0.0,0.0,0.0,0.0,0.0,0.0,0.0,2.7393,2.7689,2.7718,2.8066,2.8291,2.8291,2.8291,2.8291,2.8291,2.8291,2.8291,2.8291,2.8291,2.8291,2.8291,2.8291,2.8291,2.8291,2.8291,2.8291,2.8291,2.8291,2.8291,2.8291,2.8291,2.8291,2.8291,2.8291,2.8291,2.8291,3.6405,3.6405,3.6405,3.6405,3.6405,3.6405,3.6405,3.6405,3.6405,0.0,0.0,0.0,3.6405,3.6405,3.6405,3.6405,3.6405,3.6405,3.6405,3.6405,3.6405,3.6405,3.6405,3.6405,3.6405,3.6405,3.6405,3.6405,3.6405,3.6405,3.6405,3.6405,3.6405,3.6358,3.5607,3.4508,3.3066,3.012,0.0,3.1019,2.9102,2.89,0.0,0.0,0.0,0.0,0.0,2.96,2.9435,0.0,2.9255,2.8644,0.0,0.0,0.0,0.0,0.0,0.0,3.1356,0.0,0.0,0.0,0.0,0.0,2.7288,2.6266,0.0,0.0,0.0,0.0,0.0,0.0,0.0,0.0,0.0,0.0,0.0,0.0,0.0,0.0,0.0,0.0,0.0,0.0,0.0,0.0,2.667,2.7012,2.7689,2.8066,2.8291,2.8291,2.8291,2.8291,2.8291,2.8291,2.8291,2.8291,2.8291,2.8291,2.8291,2.8291,2.8291,2.8291,2.8291,2.8291,2.8291,2.8291,2.8291,2.8291,2.8291,2.8291,2.8291,2.8291,2.8291,2.8291,3.6405,3.6405,3.6405,3.6405,3.6405,3.6405,3.6405,3.6405,3.6405,0.0,0.0,0.0,3.6405,3.6405,3.6405,3.6405,3.6405,3.6405,3.6405,3.6405,3.6405,3.6405,3.6405,3.6405,3.6405,3.6405,3.6405,3.6405,3.6405,3.6405,3.6405,3.6405,3.6405,3.6358,3.5823,3.5126,3.4227,3.1235,0.0,0.0,2.9154,0.0,0.0,2.8601,2.8654,0.0,0.0,0.0,3.0155,3.0997,3.0812,0.0,0.0,0.0,0.0,0.0,0.0,0.0,0.0,0.0,0.0,0.0,0.0,0.0,2.7843,2.6434,2.5272,0.0,0.0,0.0,0.0,0.0,0.0,0.0,0.0,0.0,0.0,0.0,0.0,0.0,0.0,0.0,0.0,2.5693,2.5791,2.6103,2.6289,2.668,2.7363,2.7803,2.8027,2.8027,2.8203,2.8291,2.8291,2.8291,2.8291,2.8291,2.8291,2.8291,2.8291,2.8291,2.8291,2.8291,2.8291,2.8291,2.8291,2.8291,2.8291,2.8291,2.8291,2.8291,2.8291,2.8291,2.8291,2.8291,0.0,3.6405,3.6405,3.6405,3.6405,3.6405,3.6405,3.6405,3.6405,0.0,3.6405,3.6405,3.6405,3.6405,3.6405,3.6405,3.6405,3.6405,3.6405,3.6405,3.6405,3.6405,3.6405,3.6405,3.6405,3.6405,3.6405,3.6405,3.6405,3.6405,3.6405,3.6405,3.6405,3.6358,3.5174,3.4629,3.4532,3.3155,0.0,3.0421,2.9059,2.8548,0.0,0.0,2.9154,3.0317,3.0473,3.0414,3.0407,3.1538,3.211,0.0,0.0,0.0,0.0,0.0,3.3124,0.0,0.0,0.0,0.0,0.0,0.0,0.0,2.8568,2.6743,2.5051,0.0,0.0,0.0,0.0,0.0,0.0,0.0,0.0,0.0,0.0,0.0,0.0,0.0,0.0,0.0,2.5684,2.5693,2.5693,2.5693,2.6143,2.6553,2.6924,2.7363,2.7669,2.7718,2.8027,2.8242,2.8291,2.8291,2.8291,2.8291,2.8291,2.8291,2.8291,2.8291,2.8291,2.8291,2.8291,2.8291,2.8291,2.8291,2.8291,2.8291,2.8291,2.8291,2.8291,2.8291,2.8291,2.8291,3.6405,3.6405,3.6405,3.6405,3.6405,3.6405,3.6405,3.6405,3.6405,3.6405,3.6405,3.6405,3.6405,3.6405,3.6405,3.6405,3.6405,3.6405,3.6405,3.6405,3.6405,3.6405,3.6405,3.6405,3.6405,3.6405,3.6405,3.6405,3.6405,3.6405,3.6405,3.6405,3.6405,3.6405,3.6121,3.6013,3.5918,3.4569,0.0,3.1785,3.0473,0.0,2.9817,2.8698,2.9154,3.0421,3.152,3.2587,3.3464,3.3347,3.3701,3.4012,0.0,0.0,0.0,0.0,0.0,0.0,0.0,0.0,0.0,0.0,0.0,0.0,2.9814,2.8761,2.7704,0.0,0.0,0.0,0.0,0.0,0.0,0.0,0.0,0.0,0.0,0.0,0.0,0.0,0.0,0.0,2.5654,2.5693,2.5693,2.5693,2.6143,2.6426,2.6504,2.6914,2.7305,2.7708,2.7796,2.7949,2.8291,2.8291,2.8291,2.8291,2.8291,2.8291,2.8291,2.8291,2.8291,2.8291,2.8291,2.8291,2.8291,2.8291,2.8291,2.8291,2.8291,2.8291,2.8291,2.8291,2.8291,2.8291,3.682,3.6593,3.6405,3.6405,3.6405,3.6505,3.6782,3.682,3.692,3.7149,3.7186,3.7186,3.7186,3.7186,3.7186,3.7186,3.7186,3.7186,3.7186,3.6971,3.682,3.682,3.6556,3.6405,3.6405,3.6405,3.6405,3.6405,3.6405,3.6405,3.6405,3.6405,3.6405,3.6405,3.6405,3.6405,3.6358,0.0,3.4617,3.3155,3.1122,0.0,3.0214,2.9555,3.0577,3.2454,3.3105,3.4215,3.5282,3.4366,3.4515,0.0,0.0,3.3818,3.3847,0.0,3.3294,3.3124,0.0,0.0,0.0,3.3124,0.0,0.0,0.0,2.9535,2.851,0.0,0.0,0.0,0.0,0.0,0.0,0.0,0.0,0.0,0.0,0.0,0.0,0.0,0.0,0.0,2.5011,2.5273,2.5498,2.5674,2.5937,2.6064,2.6064,2.6465,2.6807,2.7021,2.7236,2.7549,2.7978,2.7978,2.8086,2.8291,2.8291,2.8291,2.8291,2.8291,2.8291,2.8291,2.8291,2.8291,2.8291,2.8291,2.8291,2.8291,2.8291,2.8291,2.8291,2.8291,2.8291,2.8291,3.7362,3.6985,3.6732,3.6732,3.6732,3.6822,3.7274,3.7337,3.75,3.7952,3.8002,3.8002,3.8002,3.8002,3.8002,3.8002,3.7914,3.7889,3.8002,3.7487,3.7186,3.7186,3.6807,3.6518,3.6405,3.6405,3.6405,3.6405,3.6405,3.6405,3.6405,3.6405,3.6405,3.6405,3.6405,3.6405,0.0,0.0,0.0,3.4227,0.0,3.0927,3.0669,3.0669,3.2252,3.4434,3.4678,3.5475,3.6203,3.5126,3.5181,3.5633,3.5533,3.4893,0.0,0.0,0.0,0.0,0.0,0.0,0.0,0.0,0.0,3.2129,0.0,0.0,0.0,0.0,0.0,0.0,0.0,0.0,0.0,0.0,0.0,0.0,0.0,0.0,0.0,0.0,0.0,0.0,0.0,2.5169,2.549,2.5586,2.5868,2.5965,2.5684,2.6074,2.6299,2.6387,2.6719,2.71,2.7539,2.7679,2.7832,2.8174,2.8252,2.8291,2.8291,2.8291,2.8291,2.8291,2.8291,2.8291,2.8291,2.8291,2.8291,2.8291,2.8291,2.8291,2.8291,2.8291,2.8291,2.8291,3.8015,3.7864,3.7814,3.7814,3.7814,3.7839,3.7902,3.7914,3.7939,3.8002,3.8002,3.8002,3.8002,3.8002,3.8002,0.0,0.0,0.0,3.7977,0.0,3.7186,3.7186,3.7123,3.6908,3.6417,3.6405,3.6405,3.6405,3.6405,3.6405,3.6405,3.6405,3.6405,3.6405,3.6405,0.0,0.0,0.0,3.5619,0.0,3.408,3.3204,0.0,3.2079,3.3055,3.4581,3.5763,3.6263,3.6358,0.0,3.6225,3.6182,0.0,3.542,3.5119,0.0,0.0,0.0,0.0,0.0,0.0,0.0,3.3074,0.0,0.0,0.0,0.0,0.0,0.0,0.0,0.0,0.0,0.0,0.0,0.0,0.0,0.0,0.0,0.0,0.0,0.0,0.0,0.0,2.6395,2.6279,2.5232,2.652,2.6897,2.5781,2.5732,2.5986,2.6377,2.6435,2.666,2.709,2.7471,2.7738,2.7796,2.8115,2.8291,2.8291,2.8291,2.8291,2.8291,2.8291,2.8291,2.8291,2.8291,2.8291,2.8291,2.8291,2.8291,2.8291,2.8291,2.8291,2.8291,3.8617,3.8241,3.8002,3.8002,3.8002,3.8115,3.8454,3.8781,3.8981,3.8981,3.8981,3.8981,0.0,0.0,0.0,0.0,0.0,3.8743,0.0,0.0,3.8215,3.8215,3.7538,3.7073,3.6895,3.6568,3.6405,3.6405,3.6405,3.6405,3.6405,3.6405,3.6405,3.6405,3.6405,0.0,3.6405,0.0,3.6061,0.0,0.0,0.0,0.0,3.381,3.4362,3.5619,3.6216,3.6405,3.6405,0.0,3.6405,0.0,0.0,0.0,0.0,0.0,0.0,0.0,0.0,0.0,0.0,0.0,0.0,0.0,3.2767,0.0,3.2089,0.0,0.0,0.0,0.0,0.0,0.0,0.0,0.0,0.0,0.0,0.0,0.0,0.0,0.0,0.0,0.0,0.0,0.0,0.0,2.6861,2.7355,2.5437,2.6287,2.6567,2.6006,2.6006,2.6221,2.665,2.6836,2.7229,2.7718,2.7894,2.8057,2.8291,2.8291,2.8291,2.8291,2.8291,2.8291,2.8291,2.8291,2.8291,2.8291,2.8291,2.8291,2.8291,2.8291,2.8291,2.8291,3.9182,3.8755,3.8467,3.8467,3.8467,3.8605,3.9032,3.9433,3.9697,3.9697,3.9697,0.0,3.9697,3.9697,0.0,0.0,3.9559,3.9534,0.0,0.0,3.8856,0.0,0.0,0.0,0.0,3.6757,3.6556,3.6405,3.6405,3.6405,3.6405,3.6405,3.6405,3.6405,0.0,3.6405,3.6405,0.0,3.6405,3.6417,3.6568,3.6719,3.6701,3.5588,3.5793,3.6631,3.6631,3.6531,3.6405,3.6405,3.6405,0.0,3.6405,0.0,0.0,0.0,0.0,0.0,3.4274,0.0,0.0,0.0,0.0,0.0,0.0,0.0,0.0,0.0,0.0,0.0,0.0,0.0,0.0,0.0,0.0,0.0,0.0,0.0,0.0,0.0,0.0,0.0,0.0,0.0,0.0,0.0,0.0,2.8031,2.6145,2.6884,2.6991,2.6245,2.5878,2.584,2.6201,2.6656,2.7282,2.8081,2.8149,2.8438,2.8847,2.8441,2.8291,2.8291,2.8291,2.8291,2.8291,2.8291,2.8291,2.8291,2.8291,2.8291,2.8291,2.8291,2.8291,2.8291,3.9672,3.9647,0.0,3.9647,3.9647,3.9647,3.9659,3.9685,3.9697,3.9697,0.0,0.0,0.0,0.0,0.0,0.0,0.0,3.9132,3.9659,0.0,3.8617,0.0,0.0,3.8102,0.0,0.0,3.6945,3.6405,3.6405,3.6405,3.6405,3.6405,3.6405,3.6405,3.6405,3.6405,3.6405,3.6405,3.6405,3.6455,3.6996,3.7475,3.7902,0.0,3.7161,3.7161,3.7161,0.0,0.0,3.6405,3.6405,0.0,0.0,0.0,0.0,0.0,0.0,0.0,0.0,0.0,0.0,3.3872,0.0,0.0,0.0,0.0,3.2893,0.0,0.0,0.0,0.0,0.0,0.0,0.0,0.0,0.0,0.0,0.0,0.0,0.0,0.0,0.0,0.0,0.0,0.0,0.0,0.0,0.0,2.8511,2.738,2.6967,2.7531,2.6342,2.5693,2.5713,2.7337,2.8404,2.8974,2.9274,2.9723,3.0162,2.89,2.8291,2.8291,2.8291,2.8291,2.8291,2.8291,2.8291,2.8291,2.8291,2.8291,2.8291,2.8291,2.8291,2.8291,3.9697,0.0,0.0,0.0,0.0,3.9697,3.9697,3.9697,3.9697,0.0,0.0,0.0,0.0,3.9697,3.9697,0.0,0.0,3.9496,3.9685,3.9521,0.0,0.0,0.0,3.8655,0.0,0.0,0.0,0.0,3.6581,3.6405,3.6405,3.6405,3.6405,3.6405,0.0,3.6405,0.0,0.0,0.0,0.0,0.0,3.8065,3.8517,0.0,3.7726,3.7676,3.7312,3.7061,0.0,3.6531,3.6405,3.6405,3.6405,3.6405,3.6367,3.6144,3.6094,0.0,0.0,0.0,3.4768,3.4085,0.0,0.0,0.0,0.0,0.0,0.0,0.0,0.0,0.0,0.0,0.0,0.0,0.0,0.0,0.0,0.0,0.0,0.0,0.0,0.0,0.0,0.0,0.0,0.0,2.891,0.0,2.8196,2.8798,2.8666,2.7615,2.7173,2.6945,2.6945,2.7508,2.8413,2.9668,3.016,3.0652,3.1061,3.0982,3.0979,3.0927,3.0016,2.9608,2.9555,2.8644,2.8794,2.9608,2.9608,2.9608,2.9513,2.8644,2.8291,2.8291,3.9697,3.9697,0.0,0.0,0.0,3.9697,3.9697,3.9697,0.0,0.0,3.9697,0.0,3.9697,0.0,3.9697,0.0,3.9697,3.9697,3.9697,3.9697,0.0,3.9408,3.9245,0.0,0.0,0.0,0.0,0.0,0.0,3.6405,3.6405,3.6405,3.6405,3.6405,0.0,3.6405,3.6417,0.0,3.686,0.0,0.0,3.8655,0.0,0.0,3.8479,3.8266,0.0,3.7525,3.7123,3.682,3.6568,3.6405,3.6405,3.6405,3.6405,3.6405,3.6405,3.6329,3.5931,3.5646,0.0,3.4618,3.4186,0.0,3.3445,0.0,0.0,0.0,0.0,0.0,0.0,0.0,0.0,0.0,0.0,0.0,0.0,2.9792,0.0,0.0,0.0,0.0,0.0,0.0,0.0,2.7758,2.9319,2.988,0.0,0.0,2.9651,2.8637,2.8361,2.8226,2.8226,2.868,2.9515,3.0742,3.1315,3.1759,3.2214,3.2257,3.228,3.223,3.1378,3.1019,3.0916,3.0057,3.0214,3.1019,3.1019,3.1019,3.0876,2.9513,2.9006,2.9006,3.9697,3.9697,0.0,0.0,3.9697,0.0,0.0,0.0,3.9697,0.0,3.9697,3.9697,3.9697,3.9697,3.9697,3.9697,3.9697,3.9697,3.9697,3.9697,0.0,0.0,3.9421,3.9182,3.8115,0.0,0.0,0.0,0.0,0.0,3.6455,3.6417,3.6405,3.6405,3.643,0.0,3.648,3.6985,3.7249,3.7362,3.8467,3.922,3.9697,3.9697,3.9371,3.8957,3.8932,3.8165,3.7224,3.7199,3.6857,3.6405,3.6405,3.6405,3.6405,3.6405,3.6405,3.6405,3.6405,3.5981,3.5533,3.5508,3.4705,0.0,0.0,0.0,3.3106,0.0,0.0,0.0,0.0,0.0,0.0,0.0,0.0,0.0,0.0,0.0,0.0,0.0,0.0,0.0,0.0,0.0,2.9792,2.9792,2.9792,3.003,0.0,0.0,2.9903,3.0383,2.9826,2.9498,2.9498,3.0631,3.1529,3.2144,3.2577,3.3054,3.3553,3.2853,3.2482,3.2482,3.2431,3.2381,3.2381,3.2331,3.2331,3.2381,3.2381,3.2381,3.223,3.0865,3.0421,3.0421,3.9697,3.9697,3.9697,0.0,3.9697,3.9697,0.0,0.0,0.0,0.0,3.9697,3.9697,3.9697,3.9697,3.9697,3.9697,3.9697,0.0,0.0,0.0,0.0,3.9484,3.9622,3.9559,3.927,3.8856,0.0,3.8442,0.0,0.0,3.7008,3.6606,3.6405,3.643,0.0,0.0,3.701,3.7563,3.804,3.8492,3.9195,3.9572,3.9697,0.0,3.9597,3.9433,3.9019,3.8404,3.7739,3.7324,3.6857,3.6405,3.6405,3.6405,3.6405,3.6405,3.6405,3.6405,3.6405,3.6304,3.6056,3.5596,3.5282,3.4868,0.0,0.0,0.0,0.0,0.0,0.0,0.0,0.0,0.0,0.0,0.0,0.0,0.0,0.0,0.0,2.9792,0.0,0.0,0.0,0.0,2.9792,2.9792,2.9792,3.003,3.0583,0.0,0.0,3.0426,3.0629,3.0721,3.0721,3.1033,3.1749,3.2835,3.3744,3.4264,3.4424,3.5069,3.5343,3.5295,3.4313,3.3871,3.3773,3.2744,3.2894,3.3871,3.3871,3.3871,3.3712,3.2292,3.1785,3.1785,3.9697,3.9697,0.0,3.9697,0.0,0.0,3.9697,3.9697,0.0,3.9697,3.9697,0.0,4.0023,4.0061,4.0149,4.0388,4.0199,0.0,4.0061,0.0,0.0,3.9697,3.9697,3.9697,3.9697,3.9145,0.0,3.8919,0.0,0.0,3.7538,3.7224,3.7073,0.0,0.0,3.755,0.0,3.814,3.8705,3.9258,3.9572,3.9697,0.0,3.9697,3.9697,3.9647,3.9346,3.8705,3.7952,3.7651,3.7023,3.6405,3.6405,3.6405,3.6405,3.6405,3.6405,3.6405,3.6405,3.6405,3.6329,3.5981,3.5683,3.5332,3.4718,3.4248,3.3809,0.0,3.3244,3.3124,0.0,0.0,0.0,0.0,0.0,0.0,0.0,0.0,0.0,0.0,0.0,0.0,0.0,2.9792,2.9792,2.9792,2.9792,2.993,0.0,0.0,0.0,3.084,3.1594,3.2052,3.2052,3.2052,3.2382,3.3124,3.3947,3.4487,3.4751,3.5617,3.6132,3.6358,3.5619,3.5271,3.5223,3.4399,3.4557,3.5271,3.5271,3.5271,3.5174,3.4399,3.37,3.3204,3.9697,0.0,0.0,0.0,0.0,0.0,0.0,3.9697,0.0,3.9798,0.0,4.0011,4.0563,4.0626,4.0761,4.125,0.0,4.0513,4.0513,3.9998,3.9697,3.9697,3.9697,3.9697,3.9697,3.922,0.0,0.0,0.0,3.8115,3.8115,3.804,0.0,0.0,0.0,0.0,0.0,3.8768,3.9258,3.9697,3.9697,3.9697,3.9697,3.9697,3.9697,3.9697,3.9697,3.8969,3.8002,3.8002,3.7274,3.6405,3.6405,3.6405,3.6405,3.6405,3.6405,3.6405,3.6405,3.6405,3.6405,3.6405,3.6006,3.5596,3.552,3.4756,3.4073,3.3935,3.352,3.3156,0.0,0.0,0.0,0.0,0.0,0.0,0.0,0.0,0.0,0.0,0.0,0.0,0.0,0.0,2.9792,2.9792,2.9792,2.9792,0.0,0.0,0.0,3.1386,3.2533,3.3124,3.3124,3.3124,3.3124,3.3124,3.3633,3.4186,3.4738,3.5245,3.5843,3.6405,3.6405,3.6405,3.6405,3.6405,3.6405,3.6405,3.6405,3.6405,3.6405,3.6405,3.5667,3.4678,0.0,0.0,0.0,0.0,0.0,3.9697,3.9697,3.9697,3.986,4.0312,4.0375,4.0576,4.1075,4.1137,4.1175,4.1275,4.0786,0.0,0.0,0.0,0.0,3.9697,3.9697,3.9697,3.9697,3.9597,3.9546,0.0,3.8994,3.8718,3.8705,3.8228,0.0,0.0,0.0,0.0,3.9408,3.9509,0.0,3.9697,3.9697,3.9697,3.9697,3.9697,3.9697,3.9697,3.9697,3.8969,3.8002,3.8002,3.7274,3.6405,3.6405,3.6405,3.6405,3.6405,3.6405,3.6405,3.6405,3.6405,3.6405,3.6405,3.6329,3.6094,3.5596,3.5345,3.4956,3.4085,3.3822,3.3621,3.3156,0.0,0.0,0.0,0.0,0.0,0.0,0.0,0.0,0.0,0.0,0.0,0.0,0.0,0.0,0.0,0.0,2.9792,0.0,0.0,0.0,0.0,3.2533,0.0,0.0,0.0,3.3124,3.3124,3.3633,3.4186,3.4738,3.5245,3.5843,3.6405,3.6405,3.6405,3.6405,3.6405,3.6405,3.6405,3.6405,3.6405,3.6405,3.6405,3.6263,3.6061,0.0,0.0,0.0,0.0,0.0,0.0,0.0,4.0124,4.0212,4.0488,4.0764,4.1153,4.1706,4.1769,4.1882,4.217,4.1681,4.1241,4.0965,4.0425,3.9986,3.971,3.9697,0.0,3.9697,3.9697,3.9697,3.9697,3.9433,3.9295,3.9295,3.9019,0.0,0.0,0.0,3.9446,0.0,0.0,0.0,3.9697,3.9697,3.9697,3.9697,3.9697,3.9697,3.9697,3.9697,3.8969,3.8002,3.8002,3.7274,3.6405,3.6405,3.6405,3.6405,3.6405,3.6405,3.6405,3.6405,3.6405,3.6405,3.6405,3.6405,3.6329,3.6031,3.5696,3.527,3.45,3.4098,3.3734,3.3224,3.2855,0.0,0.0,0.0,0.0,0.0,0.0,0.0,0.0,0.0,0.0,0.0,0.0,0.0,0.0,0.0,0.0,0.0,0.0,3.1386,0.0,0.0,0.0,3.3124,0.0,3.3124,3.3124,3.3345,3.3909,3.4726,3.4956,3.5579,3.6405,3.6405,3.6405,3.6405,3.6405,3.6405,3.6405,3.6405,3.6405,3.6405,3.6405,3.6405,3.6405,0.0,3.9697,0.0,0.0,3.9873,0.0,4.0614,4.0789,4.0865,4.0865,4.1241,4.1731,4.2326,4.2389,4.2564,4.2936,4.2527,4.1919,4.1326,4.0827,4.0275,3.9722,3.9697,3.9697,3.9697,3.9697,3.9697,0.0,3.9697,3.9634,3.9521,3.9634,0.0,0.0,0.0,0.0,0.0,0.0,3.9697,3.9697,3.9697,3.9697,3.9697,3.9697,3.9697,3.9685,3.9559,3.8868,3.799,3.7877,3.7174,3.6405,3.6405,3.6405,3.6405,3.6405,3.6405,3.6405,3.6405,3.6405,3.6405,3.6405,3.6405,3.6405,3.6405,3.6031,3.552,3.4969,3.4361,3.3734,3.3224,3.3124,0.0,0.0,0.0,0.0,0.0,0.0,0.0,0.0,0.0,0.0,0.0,0.0,0.0,0.0,0.0,2.9792,2.9792,3.0809,3.1386,0.0,0.0,3.3124,3.3124,0.0,3.3124,3.3124,3.3124,3.3658,3.468,3.468,3.5328,3.6405,3.6405,3.6405,3.6405,3.6405,3.6405,3.6405,3.6405,3.6405,3.6405,3.6405,3.6405,3.6405,0.0,0.0,0.0,0.0,0.0,0.0,4.1125,4.1681,4.2049,4.2049,4.2099,4.2338,4.2891,4.2898,4.2924,4.2974,4.2527,4.1919,4.1326,4.0827,4.0275,3.9722,3.9697,3.9697,3.9697,3.9697,3.9697,0.0,3.9697,3.9433,0.0,0.0,0.0,0.0,0.0,0.0,0.0,3.9697,3.9697,3.9697,3.9697,3.9697,3.9697,3.9697,3.9697,3.9634,3.9132,3.8542,3.7939,3.7425,3.6908,3.6405,3.6405,3.6405,3.6405,3.6405,3.6405,3.6405,3.6405,3.6405,3.6405,3.6405,3.6405,3.6405,3.6405,3.6367,3.6132,3.5533,3.4625,3.3734,3.3224,3.3124,3.3056,0.0,0.0,0.0,0.0,0.0,0.0,0.0,0.0,0.0,0.0,2.9792,0.0,0.0,2.9792,2.9792,2.9792,3.0809,3.1386,3.1386,3.2533,3.3124,3.3124,3.3124,3.3124,3.3124,3.3124,3.3658,3.468,3.468,3.5328,3.6405,3.6405,3.6405,3.6405,3.6405,3.6405,3.6405,3.6405,3.6405,3.6405,3.6405,3.6405,3.6405,0.0,0.0,0.0,0.0,0.0,0.0,0.0,4.2062,4.2326,4.2665,4.2703,4.2791,4.2949,4.2974,4.2974,4.2974,4.2828,4.2421,4.1869,4.1317,4.0764,4.0212,3.9873,3.9697,3.9697,3.9697,3.9697,0.0,0.0,0.0,0.0,0.0,0.0,0.0,0.0,3.9697,3.9697,3.9697,3.9697,3.9697,3.9697,3.9697,3.9697,3.9697,3.9697,3.9622,3.9069,3.8492,3.7927,3.7374,3.6857,3.6405,3.6405,3.6405,3.6405,3.6405,3.6405,3.6405,3.6405,3.6405,3.6405,3.6405,3.6405,3.6405,3.6405,3.6405,3.6207,3.5608,3.4663,3.3734,3.3224,3.3124,3.3124,3.3124,0.0,0.0,0.0,0.0,0.0,0.0,0.0,0.0,0.0,0.0,0.0,0.0,0.0,2.9792,2.9792,3.0809,3.1386,3.1386,0.0,3.3124,3.3124,3.3124,3.3124,3.3124,3.3124,3.3658,3.468,3.468,3.5328,3.6405,3.6405,3.6405,3.6405,3.6405,3.6405,3.6405,3.6405,3.6405,3.6405,3.6405,3.6405,3.6405,4.0174,0.0,4.0814,0.0,4.1317,4.1756,4.2376,4.2451,4.259,4.2924,4.2974,4.2974,4.2974,4.2974,4.2974,4.2974,4.2974,4.2748,4.225,4.1643,4.1037,4.0538,3.9986,0.0,3.9697,3.9697,3.9697,3.9697,3.9697,0.0,0.0,0.0,0.0,0.0,3.9697,3.9697,3.9697,3.9697,3.9697,3.9697,3.9697,3.9697,3.9697,3.9697,3.9697,3.9597,3.8881,3.8354,3.7902,3.7186,3.6732,3.6405,3.6405,3.6405,3.6405,3.6405,3.6405,3.6405,3.6405,3.6405,3.6405,3.6405,3.6405,3.6405,3.6405,3.6405,3.6207,3.5608,3.4756,3.3972,3.342,3.3224,3.3124,3.3124,0.0,0.0,0.0,0.0,0.0,0.0,3.116,3.0846,3.0846,0.0,0.0,0.0,0.0,3.0193,3.0043,3.0896,0.0,0.0,0.0,0.0,3.3124,3.3124,3.3124,3.3124,3.3124,3.3658,3.4726,3.5064,3.5629,3.6405,3.6405,3.6405,3.6405,3.6405,3.6405,3.6405,3.6405,3.6405,3.6405,3.6405,3.6405,3.6405,4.1263,4.1275,4.1505,4.2099,4.2187,4.2389,4.2886,4.2974,4.2974,4.2974,4.2974,4.2974,4.2974,4.2974,4.2974,4.2974,4.2974,4.2748,4.225,4.1643,4.1037,0.0,0.0,3.9697,3.9697,3.9697,3.9697,3.9697,0.0,0.0,3.8932,0.0,3.917,3.9697,3.9697,3.9697,3.9697,3.9697,3.9697,3.9697,3.9697,3.9697,3.9697,3.9697,3.9697,3.9546,3.8417,3.8015,3.7839,3.6782,3.6417,3.6405,3.6405,3.6405,3.6405,3.6405,3.6405,3.6405,3.6405,3.6405,3.6405,3.6405,3.6405,3.6405,3.6405,3.6405,3.6207,3.5608,3.5056,3.455,3.3985,3.3445,3.3124,3.3124,0.0,0.0,0.0,0.0,0.0,0.0,3.1725,3.1386,3.1386,0.0,0.0,0.0,0.0,0.0,0.0,0.0,0.0,3.219,3.2767,0.0,3.3124,3.3124,3.3124,3.3124,3.3124,3.3658,3.4763,3.5889,3.6405,3.6405,3.6405,3.6405,3.6405,3.6405,3.6405,3.6405,3.6405,3.6405,3.6405,3.6405,3.6405,3.6405,4.1288,4.1643,4.1944,4.2187,4.2527,4.2828,4.2949,4.2974,4.2974,4.2974,4.2974,4.2974,4.2974,4.2974,4.2974,0.0,4.2974,4.2898,0.0,4.1856,4.12,4.1025,4.0187,3.9697,3.9697,3.9697,3.9697,3.9697,0.0,0.0,0.0,3.9433,3.9534,3.9697,3.9697,3.9697,3.9697,3.9697,3.9697,3.9697,3.9697,3.9697,3.9697,3.9697,3.9697,3.9546,3.8417,3.8002,3.7839,3.6782,3.6405,3.6405,3.6405,3.6405,3.6405,3.6405,3.6405,3.6405,3.6405,3.6405,3.6405,3.6405,3.6405,3.6405,3.6405,3.6405,3.6207,3.5608,3.5056,3.4562,3.3997,3.3445,3.3124,3.3124,3.3124,0.0,0.0,0.0,0.0,0.0,3.2303,3.1951,3.1951,3.1612,0.0,0.0,0.0,0.0,0.0,0.0,0.0,0.0,3.278,0.0,3.3124,3.3124,3.3124,3.3081,3.3458,3.4211,3.5257,3.6031,3.6405,3.6405,3.6405,3.6405,3.6405,3.6405,3.6405,3.6405,3.6405,3.6405,3.6405,3.6405,3.6405,3.6405,4.1957,4.2233,4.2527,4.2527,4.2803,4.2974,4.2974,4.2974,4.2974,4.2974,4.2974,4.2974,4.2974,4.2974,0.0,4.2974,4.2974,4.2974,4.2974,4.1944,4.1288,4.1288,4.0287,3.9697,3.9697,3.9697,0.0,3.9697,3.9697,3.9697,3.9697,3.9697,3.9697,3.9697,3.9697,3.9697,3.9697,3.9697,3.9697,3.9697,3.9697,3.9697,3.9697,3.9697,3.9697,3.9546,3.8417,3.8002,3.7839,3.6782,3.6405,3.6405,3.6405,3.6405,3.6405,3.6405,3.6405,3.6405,3.6405,3.6405,3.6405,3.6405,3.6405,3.6405,3.6405,3.6405,3.6304,3.5931,3.5416,3.4818,3.4311,3.3759,3.3319,3.3106,3.3124,3.3124,3.3124,0.0,0.0,0.0,0.0,0.0,0.0,3.2227,3.2026,0.0,0.0,0.0,0.0,0.0,0.0,3.2528,3.288,3.3124,3.3124,3.3124,3.3181,3.3395,3.4161,3.4831,3.552,3.6107,3.6405,3.6405,3.6405,3.6405,3.6405,3.6405,3.6405,3.6405,3.6405,3.6405,3.6405,3.6405,3.6405,3.6405,4.2974,4.2974,4.2974,0.0,4.2974,4.2974,4.2974,4.2974,4.2974,4.2974,4.2974,4.2974,4.2974,4.2974,4.2974,4.2974,0.0,0.0,0.0,4.1982,4.1326,4.1288,4.0325,3.9735,3.9697,3.9697,3.9697,3.9697,3.9697,3.9697,3.9697,3.9697,3.9697,3.9697,3.9697,3.9697,3.9697,3.9697,3.9697,3.9697,3.9697,3.9697,3.9697,3.9697,3.9697,3.9546,3.8454,3.804,3.7839,3.6772,3.6443,3.6405,3.6405,3.6405,3.6405,3.6405,3.6405,3.6405,3.6405,3.6405,3.6405,3.6405,3.6405,3.6405,3.6405,3.6405,3.6405,3.6405,3.5931,3.5345,3.4831,3.4299,3.3734,3.3262,3.3106,3.3124,3.3124,0.0,0.0,0.0,0.0,0.0,3.3124,3.3124,3.3124,0.0,0.0,0.0,0.0,0.0,3.2516,3.3056,3.3124,3.3124,3.3124,3.3162,3.3432,3.4022,3.5006,3.552,3.5571,3.6119,3.6405,3.6405,3.6405,3.6405,3.6405,3.6405,3.6405,3.6405,3.6405,3.6405,3.6405,3.6405,3.6405,3.6405,0.0,0.0,4.2974,4.2974,4.2974,4.2974,4.2974,4.2974,4.2974,4.2974,4.2974,4.2974,4.2974,4.2974,4.2974,4.2974,4.2974,4.2974,4.2974,4.2333,4.1769,4.13,4.0689,4.0124,3.9697,3.9697,3.9697,3.9697,3.9697,3.9697,3.9697,3.9697,3.9697,3.9697,3.9697,3.9697,3.9697,3.9697,3.9697,3.9697,3.9697,3.9697,3.9697,3.9697,3.9697,3.9597,3.8919,3.8379,3.7902,3.7211,3.6757,3.6405,3.6405,3.6405,3.6405,3.6405,3.6405,3.6405,3.6405,3.6405,3.6405,3.6405,3.6405,3.6405,3.6405,3.6405,3.6405,3.6405,3.5931,3.5458,3.532,3.4562,3.3859,3.3721,3.3357,3.3124,3.3124,3.3124,0.0,0.0,3.3124,3.3124,3.3124,3.3124,3.3124,0.0,0.0,0.0,3.3124,3.2943,3.293,3.3111,3.3124,3.3124,3.3124,3.3495,3.4198,3.5107,3.537,3.5768,3.6169,3.6342,3.6405,3.6405,3.6405,3.6405,3.6405,3.6405,3.6405,3.6405,3.6405,3.6405,3.6405,3.6405,3.6405,3.6405,4.3907,4.3907,4.37,4.3141,4.2974,4.2974,4.2974,4.2974,4.2974,4.2974,4.2974,4.2974,4.2974,4.2974,4.2974,4.2974,4.2974,4.2974,4.2974,4.2514,4.1907,4.1313,4.0814,4.0262,3.9697,3.9697,3.9697,3.9697,3.9697,3.9697,3.9697,3.9697,3.9697,3.9697,3.9697,3.9697,3.9697,3.9697,3.9697,3.9697,3.9697,3.9697,3.9697,3.9697,3.9697,3.9622,3.9069,3.8492,3.7927,3.7374,3.6857,3.6405,3.6405,3.6405,3.6405,3.6405,3.6405,3.6405,3.6405,3.6405,3.6405,3.6405,3.6405,3.6405,3.6405,3.6405,3.6405,3.6405,3.6119,3.5843,3.5545,3.5006,3.4487,3.3985,3.3646,3.337,3.3106,3.3124,3.3124,3.3124,3.3124,3.3124,3.3124,3.3124,3.3124,3.3124,3.3124,0.0,3.3124,3.3124,3.3124,3.3124,3.3124,3.3206,3.3445,3.4248,3.4906,3.5495,3.5805,3.6069,3.6405,3.6405,3.6405,3.6405,3.6405,3.6405,3.6405,3.6405,3.6405,3.6405,3.6405,3.6405,3.6405,3.6405,3.6405,3.6405,4.5302,4.5302,4.4887,4.3547,4.3492,4.3547,4.3338,4.3492,4.3547,4.3338,4.3283,4.324,4.303,4.2974,4.2974,4.2974,4.2974,4.2974,4.2974,4.259,4.2007,4.1313,4.0837,4.0337,3.971,3.9697,3.9697,3.9697,3.9697,3.9697,3.9697,3.9697,3.9697,3.9697,3.9697,3.9697,3.9697,3.9697,3.9697,3.9697,3.9697,3.9697,3.9697,3.9697,3.9697,3.9634,3.917,3.863,3.8052,3.75,3.6948,3.6518,3.643,3.6405,3.6405,3.6405,3.6405,3.6405,3.6405,3.6405,3.6405,3.6405,3.6405,3.6405,3.6405,3.6405,3.6405,3.6405,3.6405,3.6267,3.5708,3.5558,3.5194,3.4299,3.401,3.3734,3.3269,0.0,3.3124,3.3124,3.3124,3.3124,3.3124,3.3124,3.3124,3.3124,3.3124,3.3124,3.3124,3.3156,3.3206,3.3206,3.3206,3.3508,3.4135,3.5031,3.5545,3.5621,3.6144,3.6405,3.6405,3.6405,3.6405,3.6405,3.6405,3.6405,3.6405,3.6405,3.6405,3.6405,3.6405,3.6405,3.6405,3.6405,3.6405,3.6405,4.6785,4.6785,4.6331,4.4941,4.5661,4.6069,4.4887,4.5714,4.6017,4.4833,4.4684,4.4277,4.3141,4.2974,4.2974,4.2974,4.2974,4.2974,4.2974,4.2898,4.2396,4.1326,4.12,4.0739,3.9722,3.9697,3.9697,3.9697,3.9697,3.9697,3.9697,3.9697,3.9697,3.9697,3.9697,3.9697,3.9697,3.9697,3.9697,3.9697,3.9697,3.9697,3.9697,3.9697,3.9697,3.9685,3.9597,3.9207,3.8642,3.8078,3.7513,3.6973,3.6556,3.6405,3.6405,3.6405,3.6405,3.6405,3.6405,3.6405,3.6405,3.6405,3.6405,3.6405,3.6405,3.6405,3.6405,3.6405,3.6405,3.638,3.6304,3.5855,3.5445,3.527,3.4512,3.3872,3.3784,0.0,3.3124,3.3124,3.3124,3.3124,3.3124,3.3124,3.3124,3.3124,3.3124,3.3124,3.3124,3.352,3.3771,3.3771,3.3771,3.4261,3.5232,3.542,3.578,3.6279,3.6367,3.6405,3.6405,3.6405,3.6405,3.6405,3.6405,3.6405,3.6405,3.6405,3.6405,3.6405,3.6405,3.6405,3.6405,3.6405,3.6405,3.6405,4.8225,4.8225,4.7771,4.6383,4.6695,4.6888,4.6226,4.6695,4.6591,4.5195,4.4994,4.4481,4.3129,4.2974,4.2974,4.2974,4.2974,4.3283,4.4016,4.3394,4.2484,4.1338,4.1288,4.0827,3.9722,3.9697,3.9697,3.9697,3.9697,3.9697,3.9697,3.9697,3.9697,3.9697,3.9697,3.9697,3.9697,3.9697,3.9697,3.9697,3.9697,3.9697,3.9697,3.9697,3.9697,3.9697,3.9697,3.9346,3.8881,3.8567,3.7889,3.7149,3.6885,3.6644,3.6405,3.6405,3.6405,3.6405,3.6405,3.6405,3.6405,3.6405,3.6405,3.6405,3.6405,3.6405,3.6405,3.6405,3.6405,3.6405,3.6405,3.6157,3.5893,3.5545,3.5069,0.0,3.4387,3.4123,3.396,3.396,3.396,3.396,3.396,3.396,3.396,3.396,3.396,3.396,3.396,3.4211,3.4349,3.4349,3.4625,3.4981,3.5495,3.583,3.6107,3.6405,3.6405,3.6405,3.6405,3.6405,3.6405,3.6405,3.6405,3.6405,3.6405,3.6405,3.6405,3.6405,3.6405,3.6405,3.6405,3.6405,3.6405,3.6405,4.9664,4.9664,4.921,4.7822,4.7873,4.7974,4.767,4.7873,4.7568,4.6174,4.5964,4.5449,4.4113,4.3962,4.3962,4.3962,4.3962,4.4372,4.5409,4.4535,4.346,4.2275,4.169,4.0854,3.971,3.9981,3.9981,3.9697,3.9981,3.9981,3.9697,3.9697,3.9697,3.9697,3.9697,3.9697,3.9697,3.9697,3.9697,3.9697,3.9697,3.9697,3.9697,3.9697,3.9697,3.9697,3.9697,3.9421,3.9095,3.8957,3.8291,3.7525,3.7262,3.6945,3.6568,3.6455,3.6405,3.6405,3.6405,3.6405,3.6405,3.6405,3.6405,3.6405,3.6405,3.6405,3.6405,3.6405,3.6405,3.6405,3.6405,3.6405,3.6267,3.5805,0.0,3.5357,3.4919,3.4756,3.468,3.468,3.468,3.468,3.468,3.468,3.468,3.468,3.468,3.468,3.468,3.4806,3.4931,3.5102,3.5345,3.5558,3.5683,3.6157,3.6405,3.6405,3.6405,3.6405,3.6405,3.6405,3.6405,3.6405,3.6405,3.6405,3.6405,3.6405,3.6405,3.6405,3.6405,3.6405,3.6405,3.6405,3.6405,3.6405,5.1058,5.1058,5.065,4.9259,5.008,5.0493,4.921,5.008,5.0397,4.9049,4.8901,4.8389,4.694,4.6785,4.6785,4.6785,4.6785,4.6837,4.694,4.6837,4.625,4.5056,4.2778,4.0972,3.9749,4.0844,4.0882,3.9697,4.0882,4.0844,3.9697,3.9697,3.9697,3.9697,3.9697,3.9697,3.9697,3.9697,3.9697,3.9697,3.9697,3.9697,3.9697,3.9697,3.9697,3.9697,3.9697,3.9672,3.9559,3.9095,3.8856,3.8567,3.7513,3.7161,3.7023,3.6556,3.6405,3.6405,3.6405,3.6405,3.6405,3.6405,3.6405,3.6405,3.6405,3.6405,3.6405,3.6405,3.6405,3.6405,3.6405,3.6405,3.6405,3.6355,0.0,0.0,3.5445,3.4994,3.468,3.468,3.468,3.468,3.468,3.468,3.468,3.468,3.468,3.468,3.468,3.5157,3.5717,3.6267,3.5793,3.5793,3.6342,3.6392,3.6405,3.6405,3.6405,3.6405,3.6405,3.6405,3.6405,3.6405,3.6405,3.6405,3.6405,3.6405,3.6405,3.6405,3.6405,3.6405,3.6405,3.6405,3.6405,3.6405,5.1214,5.1214,5.1058,5.054,5.0855,5.1011,5.0493,5.0855,5.0698,4.9357,4.921,4.8638,4.7248,4.7094,4.7094,4.7094,4.7094,4.7466,4.8339,4.7568,4.6556,4.5354,4.2932,4.1739,4.2021,4.1739,4.1739,4.207,4.2558,4.2119,4.0882,4.0882,4.0453,3.9749,4.0554,4.0465,3.9736,4.0554,4.0415,3.9697,3.9697,3.9697,3.9697,3.9697,3.9697,3.9697,3.9697,3.9697,3.9659,3.9446,3.9208,3.8844,3.8416,3.7751,3.7073,3.6568,3.6405,3.6405,3.6405,3.6405,3.6405,3.6405,3.6405,3.6405,3.6405,3.6405,3.6405,3.6405,3.6405,3.6405,3.6405,3.6405,3.6405,3.6405,0.0,3.6056,3.6056,3.5868,3.5742,3.5742,3.5742,3.5742,3.5742,3.5742,3.5742,3.5742,3.5742,3.5742,3.5742,3.5943,3.6144,3.6405,3.6157,3.6157,3.6405,3.6405,3.6405,3.6405,3.6405,3.6405,3.6405,3.6405,3.6405,3.6405,3.6405,3.6405,3.6405,3.6405,3.6405,3.6405,3.6405,3.6405,3.6405,3.6405,3.6405,3.6405,5.1214,5.1214,5.1214,5.1214,5.1214,5.1214,5.1214,5.1214,5.0855,4.9936,4.9824,4.947,4.8489,4.8389,4.8389,4.8389,4.8389,4.8802,4.9776,4.8714,4.7214,4.539,4.3895,4.3218,4.3504,4.3026,4.3026,4.3504,4.3882,4.3456,4.2168,4.1789,4.1119,4.0313,4.0794,4.0503,3.9736,4.0655,4.0503,3.9697,3.9697,3.9697,3.9697,3.9697,3.9697,3.9697,3.9697,3.9697,3.9697,3.9697,3.9446,3.9094,3.8931,3.8216,3.7337,3.6832,3.6669,3.6631,3.6455,3.6405,3.6405,3.6405,3.6405,3.6405,3.6405,3.6405,3.6405,3.6405,3.6405,3.6405,3.6405,3.6405,3.6405,3.6405,3.6405,3.6405,3.6405,3.6405,3.6405,3.6405,3.6405,3.6405,3.6405,3.6405,3.6405,3.6405,3.6405,3.6405,3.6405,3.6405,3.6405,3.6405,3.6405,3.6405,3.6405,3.6405,3.6405,3.6405,3.6405,3.6405,3.6405,3.6405,3.6405,3.6405,3.6405,3.6405,3.6405,3.6405,3.6405,3.6405,3.6405,3.6405,3.6405,3.6405,3.6405,3.6405,5.1214,5.1214,5.1214,5.1214,5.1214,5.1214,5.1214,5.1214,5.1214,5.1214,5.1214,5.1214,5.1214,5.1214,5.1214,5.1214,5.1214,5.1214,5.1214,5.0569,4.8741,4.5488,4.6045,4.5513,4.3565,4.478,4.478,4.3551,4.478,4.478,4.3504,4.2217,4.1604,4.1555,4.0313,3.9736,3.9749,3.9736,3.9749,3.9697,3.9697,3.9697,3.9697,3.9697,3.9697,3.9697,3.9697,3.9697,3.9697,3.9697,3.9697,3.9597,3.9095,3.8479,3.7902,3.7398,3.7235,3.7109,3.6568,3.6417,3.6405,3.6405,3.6405,3.6405,3.6405,3.6405,3.6405,3.6405,3.6405,3.6405,3.6405,3.6405,3.6405,3.6405,3.6405,3.6405,3.6405,3.6405,3.6405,3.6405,3.6405,3.6405,3.6405,3.6405,3.6405,3.6405,3.6405,3.6405,3.6405,3.6405,3.6405,3.6405,3.6405,3.6405,3.6405,3.6405,3.6405,3.6405,3.6405,3.6405,3.6405,3.6405,3.6405,3.6405,3.6405,3.6405,3.6405,3.6405,3.6405,3.6405,3.6405,3.6405,3.6405,3.6405,3.6405,3.6405,5.1214,5.1214,5.1214,5.1214,5.1214,5.1214,5.1214,5.1214,5.1214,5.1214,5.1214,5.1214,5.1214,5.1214,5.1214,5.1214,5.1214,5.1214,5.1214,5.0988,5.0275,4.8817,4.7256,4.6543,4.6884,4.5906,4.5644,4.6166,4.6535,4.6062,4.4826,4.4442,4.3787,4.2978,4.3456,4.3218,4.2412,4.3313,4.2689,4.1032,4.1032,4.0503,3.9697,3.9697,3.9697,3.9697,3.9697,3.9697,3.9697,3.9697,3.9697,3.9597,3.9095,3.8806,3.8679,3.8971,3.8743,3.8405,3.8316,3.7931,3.7415,3.6581,3.6405,3.6405,3.6405,3.6405,3.6405,3.6405,3.6405,3.6405,3.6405,3.6405,3.6405,3.6405,3.6405,3.6405,3.6405,3.6405,3.6405,3.6405,3.6405,3.6405,3.6405,3.6405,3.6405,3.6405,3.6405,3.6405,3.6405,3.6405,3.6405,3.6405,3.6405,3.6405,3.6405,3.6405,3.6405,3.6405,3.6405,3.6405,3.6405,3.6405,3.6405,3.6405,3.6405,3.6405,3.6405,3.6405,3.6405,3.6405,3.6405,3.6405,3.6405,3.6405,3.6405,3.6405,5.1214,5.1214,5.1214,5.1214,5.1214,5.1214,5.1214,5.1214,5.1214,5.1214,5.1214,5.1214,5.1214,5.1214,5.1214,5.1214,5.1214,5.1214,5.1214,5.1214,5.1003,5.0599,4.8866,4.8024,4.8297,4.717,4.6786,4.7309,4.7309,4.6916,4.6166,4.5644,4.4978,4.4256,4.4549,4.421,4.3551,4.4303,4.374,4.2315,4.1789,4.1455,4.1169,4.0655,4.0453,4.0453,4.0453,4.0121,3.9788,4.0262,4.0453,4.0313,3.9487,3.9195,3.9361,4.0039,3.9989,3.9706,4.0091,3.9685,3.8893,3.7751,3.6921,3.6546,3.6977,3.7057,3.7057,3.7057,3.7057,3.693,3.6499,3.6405,3.6405,3.6405,3.6405,3.6405,3.6405,3.6405,3.6405,3.6405,3.6405,3.6405,3.6405,3.6405,3.6405,3.6405,3.6405,3.6405,3.6405,3.6405,3.6405,3.6405,3.6405,3.6405,3.6405,3.6405,3.6405,3.6405,3.6405,3.6405,3.6405,3.6405,3.6405,3.6405,3.6405,3.6405,3.6405,3.6405,3.6405,3.6405,3.6405,3.6405,3.6405,3.6405,3.6405,3.6405,5.1214,5.1214,5.1214,5.1214,5.1214,5.1214,5.1214,5.1214,5.1214,5.1214,5.1214,5.1214,5.1214,5.1214,5.1214,5.1214,5.1214,5.1214,5.1214,5.1214,5.1214,5.1214,5.0599,4.9733,4.8491,4.8341,4.7997,4.7399,4.7339,4.7309,4.7266,4.6107,4.5584,4.5539,4.4349,4.3834,4.3834,4.3834,4.3787,4.3551,4.2412,4.2544,4.3361,4.2217,4.1789,4.1739,4.1654,4.0844,4.0032,4.1219,4.1604,4.1406,4.0224,3.989,4.002,4.069,4.0918,4.1082,4.1705,4.1474,4.0794,3.9631,3.8046,3.7041,3.7906,3.8107,3.8107,3.8243,3.8153,3.7756,3.6756,3.6452,3.6405,3.6405,3.6405,3.6405,3.6405,3.6499,3.6534,3.6534,3.6534,3.6534,3.6534,3.6452,3.6405,3.6405,3.6499,3.6499,3.6405,3.6499,3.6499,3.6405,3.6405,3.6452,3.6534,3.6534,3.6499,3.6405,3.6405,3.6405,3.6405,3.6405,3.6405,3.6405,3.6405,3.6405,3.6405,3.6405,3.6405,3.6405,3.6405,3.6405,3.6405,3.6405,3.6405,3.6405,5.1214,5.1214,5.1214,5.1214,5.1214,5.1214,5.1214,5.1214,5.1214,5.1214,5.1214,5.1214,5.1214,5.1214,5.1214,5.1214,5.1214,5.1214,5.1214,5.1214,5.1214,5.1214,5.1079,5.0631,4.9792,4.8805,4.8222,4.8072,4.7563,4.7309,4.7309,4.7019,4.6873,4.6873,4.6594,4.6491,4.6491,4.6491,4.5928,4.4978,4.4688,4.4116,4.3456,4.317,4.3074,4.2978,4.1985,4.1406,4.1219,4.1505,4.1604,4.1555,4.1269,4.1169,4.1193,4.136,4.1756,4.2205,4.244,4.2728,4.2705,4.1505,4.0509,3.9546,3.8395,3.8107,3.8379,3.9316,3.8738,3.8017,3.7756,3.7023,3.6405,3.6405,3.6405,3.6405,3.6405,3.715,3.7723,3.7723,3.7723,3.7723,3.7723,3.693,3.6405,3.6405,3.7243,3.7322,3.6452,3.7243,3.7322,3.6452,3.6405,3.6849,3.7723,3.7723,3.7276,3.6405,3.6405,3.6405,3.6405,3.6405,3.6405,3.6405,3.6405,3.6405,3.6405,3.6405,3.6405,3.6405,3.6405,3.6405,3.6405,3.6405,3.6405,3.6405,5.1214,5.1214,5.1214,5.1214,5.1214,5.1214,5.1214,5.1214,5.1214,5.1214,5.1214,5.1214,5.1214,5.1214,5.1214,5.1214,5.1214,5.1214,5.1214,5.1214,5.1214,5.1214,5.1214,5.1065,5.0659,4.9733,4.9075,4.8805,4.8102,4.7773,4.7773,4.7459,4.7309,4.7309,4.7309,4.7309,4.7309,4.7309,4.6916,4.6255,4.5644,4.5358,4.5252,4.4642,4.4396,4.4303,4.3646,4.3409,4.3313,4.2689,4.293,4.3313,4.2689,4.2509,4.2641,4.3218,4.3659,4.4023,4.4719,4.4865,4.4602,4.3448,4.2655,4.1667,3.9802,3.9581,3.9814,3.9885,3.9828,3.9596,3.9036,3.8482,3.7861,3.7276,3.7196,3.7023,3.6499,3.7368,3.8107,3.8107,3.8604,3.8961,3.8961,3.7428,3.6628,3.715,3.7756,3.7848,3.7243,3.8302,3.8424,3.7243,3.7196,3.7494,3.8107,3.8107,3.8075,3.8043,3.7507,3.7196,3.7196,3.6675,3.6405,3.6405,3.6405,3.6405,3.6405,3.6405,3.6405,3.6405,3.6405,3.6405,3.6405,3.6405,3.6405,3.6405,5.1214,5.1214,5.1214,5.1214,5.1214,5.1214,5.1214,5.1214,5.1214,5.1214,5.1214,5.1214,5.1214,5.1214,5.1214,5.1214,5.1214,5.1214,5.1214,5.1214,5.1214,5.1214,5.1214,5.1214,5.1214,5.0644,5.0092,4.9434,4.8775,4.8401,4.8282,4.7728,4.7414,4.7309,4.7309,4.7309,4.7309,4.7309,4.7309,4.7207,4.6166,4.6358,4.7164,4.6107,4.5734,4.5689,4.5494,4.5252,4.4964,4.4116,4.4549,4.5207,4.4163,4.3834,4.3975,4.4826,4.5207,4.5644,4.6682,4.6718,4.6258,4.5318,4.456,4.3589,4.1866,4.1624,4.155,4.083,4.1156,4.1295,4.0361,4.0029,3.9579,3.8559,3.8424,3.7984,3.6849,3.7848,3.8635,3.8424,3.9434,4.0102,3.9899,3.8134,3.7381,3.8334,3.859,3.859,3.8424,3.9536,3.9623,3.8469,3.8424,3.8501,3.8725,3.8725,3.9302,4.0461,3.9258,3.859,3.8379,3.7196,3.6675,3.6675,3.6499,3.6405,3.6405,3.6628,3.6675,3.6709,3.6943,3.6989,3.6989,3.6989,3.6722,3.6452,5.1214,5.1214,5.1214,5.1214,5.1214,5.1214,5.1214,5.1214,5.1214,5.1214,5.1214,5.1214,5.1214,5.1214,5.1214,5.1214,5.1214,5.1214,5.1214,5.1214,5.1214,5.1214,5.1214,5.1214,5.1214,5.1124,5.0765,5.0061,4.9449,4.888,4.8282,4.8192,4.7848,4.7309,4.7309,4.7309,4.7309,4.7309,4.7309,4.7266,4.7121,4.7164,4.7266,4.7121,4.7019,4.6916,4.5779,4.4688,4.3882,4.4826,4.5252,4.5358,4.5207,4.5161,4.4978,4.4022,4.4549,4.5448,4.5584,4.6388,4.7131,4.6971,4.6437,4.5617,4.4355,4.3272,4.2718,4.3511,4.2587,4.1545,4.142,4.0575,3.9855,3.9667,3.9681,3.9227,3.803,3.9757,4.0774,3.9754,4.0646,4.1,3.9986,3.9593,3.9505,3.9623,4.0561,4.0689,3.9711,4.0746,4.0817,3.9667,3.9681,4.0145,4.1112,4.1112,4.1726,4.282,4.1684,4.0604,3.9637,3.8424,3.7848,3.7802,3.6849,3.6405,3.6499,3.7461,3.7848,3.7984,3.9006,3.9417,3.9417,3.9417,3.8134,3.6534,5.1214,5.1214,5.1214,5.1214,5.1214,5.1214,5.1214,5.1214,5.1214,5.1214,5.1214,5.1214,5.1214,5.1214,5.1214,5.1214,5.1214,5.1214,5.1214,5.1214,5.1214,5.1214,5.1214,5.1214,5.1214,5.1214,5.1079,5.0749,5.0137,4.9658,4.9359,4.9,4.8686,4.8386,4.8012,4.7863,4.7833,4.7459,4.7309,4.7309,4.7309,4.7309,4.7309,4.7309,4.7309,4.7207,4.6638,4.6107,4.5734,4.6255,4.6447,4.6447,4.6447,4.6447,4.6344,4.5779,4.6018,4.6447,4.6447,4.6873,4.7309,4.7309,4.7085,4.6731,4.621,4.5343,4.4505,4.4011,4.3466,4.3093,4.3093,4.2415,4.1616,4.0958,4.0873,4.0447,3.9271,4.0561,4.1643,4.1782,4.1684,4.1643,4.1796,4.0632,4.0145,4.0788,4.1337,4.1378,4.0873,4.1947,4.2029,4.0873,4.0873,4.1085,4.1601,4.1587,4.2152,4.329,4.2805,4.1947,4.0831,3.9653,3.9094,3.905,3.7861,3.7723,3.8347,3.8153,3.8514,3.9139,3.9681,3.9899,3.9899,3.9899,3.9241,3.8302]}]]